X32148 / D-ATUF 7700 Squawk Report (2nd of December, 2022)

Aircraft B738 Reg No. D-ATUF Age 16 years old
Model 737 Jet engines 2 First flight 17-03-06
Registered 15-01-07 Rollout 12-03-06 Delivered 28-03-06
Construction No. 34687 Line No. 1907 Series 8K5
ADSHEX 3C0C9E Airline name TUI fly Deutschland Owner TUI AG
Airfield based Hannover~Lower Saxony~D First tracked N/A

Flight history for D-ATUF

Route Flight No Date Playback
???? N/A 2023-02-06 08:05:00
???? N/A 2023-02-05 16:08:00
???? N/A 2023-02-03 18:27:00
Hannover (HAJ) - Birmingham (BHX) N/A 2023-02-03 17:19:00
Fuerteventura (FUE) - Hannover (HAJ) X32149 2023-02-02 21:46:00
Hannover (HAJ) - Fuerteventura (FUE) X32148 2023-02-02 16:13:00
Stuttgart (STR) - Hannover (HAJ) X3950 2023-02-02 00:12:00
Tenerife Sur (TFS) - Stuttgart (STR) X32219 2023-02-01 23:09:00
Stuttgart (STR) - Tenerife Sur (TFS) X32218 2023-02-01 15:38:00
Hannover (HAJ) - Stuttgart (STR) X3949 2023-02-01 10:47:00
Fuerteventura (FUE) - Hannover (HAJ) X32149 2023-01-31 20:44:00
Hannover (HAJ) - Fuerteventura (FUE) X32148 2023-01-31 15:05:00
Fuerteventura (FUE) - Hannover (HAJ) X32149 2023-01-30 22:02:00
Dusseldorf (DUS) - Fuerteventura (FUE) X32116 2023-01-30 15:48:00
Gran Canaria (LPA) - Dusseldorf (DUS) X32115 2023-01-29 20:22:00
Dusseldorf (DUS) - Gran Canaria (LPA) X32114 2023-01-29 14:27:00
Fuerteventura (FUE) - Dusseldorf (DUS) X32117 2023-01-28 21:47:00
Dusseldorf (DUS) - Fuerteventura (FUE) X32116 2023-01-28 17:08:00
Son Sant Joan (PMI) - Dusseldorf (DUS) X32323 2023-01-28 11:58:00
Dusseldorf (DUS) - Son Sant Joan (PMI) X32322 2023-01-28 08:19:00
Time Lat Lon Altitude Heading Speed Vertical Rate
2022-12-02 12:33:21 GMT 28.450012 -13.868391 0 272 0 0
2022-12-02 12:30:56 GMT 28.450005 -13.868395 0 272 0 0
2022-12-02 12:30:40 GMT 28.450012 -13.868391 0 272 0 0
2022-12-02 12:29:56 GMT 28.450005 -13.868395 0 272 0 0
2022-12-02 12:27:05 GMT 28.450012 -13.868377 0 272 2 0
2022-12-02 12:27:01 GMT 28.450012 -13.868338 0 272 3 0
2022-12-02 12:26:59 GMT 28.450012 -13.868311 0 272 4 0
2022-12-02 12:26:58 GMT 28.450012 -13.868298 0 272 4 0
2022-12-02 12:26:57 GMT 28.450012 -13.868232 0 272 4 0
2022-12-02 12:26:55 GMT 28.450012 -13.868232 0 272 5 0
2022-12-02 12:26:53 GMT 28.450005 -13.868193 0 272 5 0
2022-12-02 12:26:52 GMT 28.450012 -13.868166 0 272 6 0
2022-12-02 12:26:51 GMT 28.450012 -13.868140 0 272 8 0
2022-12-02 12:26:48 GMT 28.450005 -13.868045 0 270 9 0
2022-12-02 12:26:47 GMT 28.450005 -13.867977 0 267 9 0
2022-12-02 12:26:45 GMT 28.450005 -13.867883 0 267 9 0
2022-12-02 12:26:44 GMT 28.450012 -13.867836 0 264 9 0
2022-12-02 12:26:42 GMT 28.450012 -13.867744 0 255 9 0
2022-12-02 12:26:40 GMT 28.450050 -13.867614 0 230 10 0
2022-12-02 12:26:37 GMT 28.450191 -13.867493 0 194 9 0
2022-12-02 12:26:35 GMT 28.450191 -13.867493 0 194 9 0
2022-12-02 12:26:34 GMT 28.450308 -13.867466 0 182 12 0
2022-12-02 12:26:32 GMT 28.450308 -13.867466 0 182 12 0
2022-12-02 12:26:31 GMT 28.450356 -13.867466 0 182 12 0
2022-12-02 12:26:29 GMT 28.450470 -13.867453 0 185 13 0
2022-12-02 12:26:26 GMT 28.450653 -13.867427 0 194 13 0
2022-12-02 12:26:25 GMT 28.450808 -13.867372 0 213 13 0
2022-12-02 12:26:23 GMT 28.450808 -13.867372 0 213 13 0
2022-12-02 12:26:22 GMT 28.450859 -13.867334 0 219 13 0
2022-12-02 12:26:19 GMT 28.450974 -13.867189 0 241 13 0
2022-12-02 12:26:17 GMT 28.451019 -13.867070 0 255 13 0
2022-12-02 12:26:16 GMT 28.451031 -13.867017 0 261 13 0
2022-12-02 12:26:14 GMT 28.451054 -13.866885 0 270 13 0
2022-12-02 12:26:13 GMT 28.451054 -13.866806 0 270 13 0
2022-12-02 12:26:10 GMT 28.451040 -13.866671 0 267 13 0
2022-12-02 12:26:09 GMT 28.451042 -13.866595 0 267 13 0
2022-12-02 12:26:08 GMT 28.451052 -13.866483 0 264 13 0
2022-12-02 12:26:06 GMT 28.451054 -13.866410 0 261 13 0
2022-12-02 12:26:05 GMT 28.451088 -13.866227 0 253 13 0
2022-12-02 12:26:03 GMT 28.451088 -13.866227 0 253 13 0
2022-12-02 12:26:02 GMT 28.451134 -13.866079 0 236 13 0
2022-12-02 12:25:59 GMT 28.451237 -13.865921 0 216 13 0
2022-12-02 12:25:57 GMT 28.451273 -13.865877 0 210 13 0
2022-12-02 12:25:53 GMT 28.451534 -13.865763 0 188 14 0
2022-12-02 12:25:51 GMT 28.451683 -13.865736 0 180 16 0
2022-12-02 12:25:49 GMT 28.451740 -13.865736 0 180 16 0
2022-12-02 12:25:48 GMT 28.451809 -13.865742 0 182 17 0
2022-12-02 12:25:46 GMT 28.451960 -13.865729 0 182 18 0
2022-12-02 12:25:45 GMT 28.452072 -13.865723 0 182 18 0
2022-12-02 12:25:43 GMT 28.452215 -13.865715 0 182 18 0
2022-12-02 12:25:42 GMT 28.452309 -13.865715 0 182 18 0
2022-12-02 12:25:40 GMT 28.452450 -13.865710 0 182 18 0
2022-12-02 12:25:39 GMT 28.452530 -13.865715 0 182 18 0
2022-12-02 12:25:37 GMT 28.452805 -13.865697 0 182 18 0
2022-12-02 12:25:35 GMT 28.452873 -13.865697 0 182 18 0
2022-12-02 12:25:33 GMT 28.452999 -13.865697 0 180 18 0
2022-12-02 12:25:32 GMT 28.453077 -13.865689 0 182 18 0
2022-12-02 12:25:30 GMT 28.453239 -13.865689 0 182 18 0
2022-12-02 12:25:29 GMT 28.453310 -13.865689 0 182 18 0
2022-12-02 12:25:27 GMT 28.453514 -13.865684 0 180 18 0
2022-12-02 12:25:26 GMT 28.453583 -13.865684 0 180 18 0
2022-12-02 12:25:24 GMT 28.453743 -13.865684 0 182 18 0
2022-12-02 12:25:23 GMT 28.453846 -13.865684 0 182 18 0
2022-12-02 12:25:21 GMT 28.454018 -13.865670 0 182 19 0
2022-12-02 12:25:20 GMT 28.454102 -13.865675 0 182 18 0
2022-12-02 12:25:19 GMT 28.454247 -13.865670 0 182 18 0
2022-12-02 12:25:17 GMT 28.454323 -13.865662 0 182 18 0
2022-12-02 12:25:16 GMT 28.454510 -13.865657 0 182 18 0
2022-12-02 12:25:14 GMT 28.454567 -13.865657 0 182 18 0
2022-12-02 12:25:12 GMT 28.454739 -13.865644 0 182 18 0
2022-12-02 12:25:11 GMT 28.454811 -13.865648 0 180 18 0
2022-12-02 12:25:09 GMT 28.454973 -13.865648 0 182 18 0
2022-12-02 12:25:08 GMT 28.455067 -13.865635 0 182 18 0
2022-12-02 12:25:07 GMT 28.455336 -13.865635 0 182 18 0
2022-12-02 12:25:05 GMT 28.455336 -13.865635 0 182 18 0
2022-12-02 12:25:04 GMT 28.455393 -13.865635 0 182 18 0
2022-12-02 12:25:02 GMT 28.455557 -13.865621 0 182 18 0
2022-12-02 12:25:00 GMT 28.455742 -13.865621 0 182 17 0
2022-12-02 12:24:58 GMT 28.455940 -13.865618 0 182 17 0
2022-12-02 12:24:57 GMT 28.455940 -13.865618 0 182 16 0
2022-12-02 12:24:56 GMT 28.456102 -13.865608 0 182 15 0
2022-12-02 12:24:54 GMT 28.456148 -13.865608 0 182 15 0
2022-12-02 12:24:51 GMT 28.456429 -13.865567 0 202 13 0
2022-12-02 12:24:49 GMT 28.456478 -13.865538 0 210 13 0
2022-12-02 12:24:47 GMT 28.456570 -13.865472 0 230 12 0
2022-12-02 12:24:44 GMT 28.456627 -13.865380 0 247 12 0
2022-12-02 12:24:43 GMT 28.456650 -13.865325 0 253 12 0
2022-12-02 12:24:42 GMT 28.456661 -13.865261 0 261 12 0
2022-12-02 12:24:41 GMT 28.456673 -13.865155 0 270 11 0
2022-12-02 12:24:38 GMT 28.456673 -13.865037 0 270 11 0
2022-12-02 12:24:37 GMT 28.456673 -13.864988 0 270 11 0
2022-12-02 12:24:36 GMT 28.456673 -13.864854 0 272 11 0
2022-12-02 12:24:34 GMT 28.456673 -13.864825 0 272 11 0
2022-12-02 12:24:33 GMT 28.456661 -13.864706 0 272 10 0
2022-12-02 12:24:31 GMT 28.456661 -13.864667 0 272 10 0
2022-12-02 12:24:30 GMT 28.456661 -13.864611 0 272 10 0
2022-12-02 12:24:27 GMT 28.456650 -13.864423 0 272 9 0
2022-12-02 12:24:25 GMT 28.456650 -13.864369 0 272 9 0
2022-12-02 12:24:24 GMT 28.456638 -13.864329 0 272 9 0
2022-12-02 12:24:23 GMT 28.456638 -13.864208 0 277 9 0
2022-12-02 12:24:21 GMT 28.456638 -13.864208 0 275 10 0
2022-12-02 12:24:20 GMT 28.456627 -13.864099 0 278 10 0
2022-12-02 12:24:18 GMT 28.456627 -13.864046 0 284 11 0
2022-12-02 12:24:17 GMT 28.456615 -13.863980 0 289 11 0
2022-12-02 12:24:16 GMT 28.456602 -13.863925 0 298 11 0
2022-12-02 12:24:14 GMT 28.456556 -13.863831 0 315 12 0
2022-12-02 12:24:12 GMT 28.456497 -13.863763 0 334 13 0
2022-12-02 12:24:11 GMT 28.456421 -13.863716 0 340 13 0
2022-12-02 12:24:10 GMT 28.456369 -13.863696 0 348 13 0
2022-12-02 12:24:09 GMT 28.456266 -13.863669 0 0 17 0
2022-12-02 12:24:07 GMT 28.456203 -13.863663 0 2 22 0
2022-12-02 12:24:06 GMT 28.455906 -13.863682 0 2 37 0
2022-12-02 12:24:04 GMT 28.455906 -13.863682 0 2 41 0
2022-12-02 12:24:03 GMT 28.455276 -13.863690 0 0 58 0
2022-12-02 12:24:01 GMT 28.455276 -13.863690 0 2 70 0
2022-12-02 12:24:00 GMT 28.454987 -13.863696 0 2 78 0
2022-12-02 12:23:57 GMT 28.453810 -13.863750 0 2 98 0
2022-12-02 12:23:56 GMT 28.453011 -13.863769 0 0 110 0
2022-12-02 12:23:53 GMT 28.451786 -13.863809 0 2 120 0
2022-12-02 12:23:52 GMT 28.451239 -13.863817 0 2 125 0
2022-12-02 12:23:50 GMT 28.450109 -13.863857 0 2 135 0
2022-12-02 12:23:49 GMT 28.449633 -13.863871 0 2 140 0
2022-12-02 12:23:48 GMT 28.448250 -13.863927 50 2 145 0
2022-12-02 12:23:46 GMT 28.447723 -13.863954 50 1 145 128
2022-12-02 12:23:45 GMT 28.447048 -13.863992 50 1 147 128
2022-12-02 12:23:44 GMT 28.446350 -13.864007 50 1 149 64
2022-12-02 12:23:43 GMT 28.444153 -13.864059 50 1 151 -256
2022-12-02 12:23:41 GMT 28.444153 -13.864059 75 1 151 -512
2022-12-02 12:23:39 GMT 28.442734 -13.864112 100 1 152 -704
2022-12-02 12:23:37 GMT 28.441315 -13.864165 125 1 152 -704
2022-12-02 12:23:36 GMT 28.440624 -13.864208 125 1 152 -768
2022-12-02 12:23:35 GMT 28.439941 -13.864218 150 1 152 -704
2022-12-02 12:23:33 GMT 28.437103 -13.864324 200 1 153 -704
2022-12-02 12:23:31 GMT 28.436279 -13.864324 200 1 153 -704
2022-12-02 12:23:30 GMT 28.436279 -13.864324 225 1 153 -704
2022-12-02 12:23:29 GMT 28.434711 -13.864369 225 1 153 -640
2022-12-02 12:23:27 GMT 28.434153 -13.864369 250 1 154 -640
2022-12-02 12:23:25 GMT 28.432430 -13.864423 275 2 155 -704
2022-12-02 12:23:23 GMT 28.431702 -13.864482 275 2 156 -768
2022-12-02 12:23:22 GMT 28.430988 -13.864531 300 2 157 -832
2022-12-02 12:23:20 GMT 28.429504 -13.864588 325 2 158 -960
2022-12-02 12:23:19 GMT 28.428801 -13.864585 325 2 158 -1088
2022-12-02 12:23:17 GMT 28.427170 -13.864693 375 2 159 -960
2022-12-02 12:23:16 GMT 28.426426 -13.864692 400 2 159 -960
2022-12-02 12:23:15 GMT 28.425867 -13.864746 400 2 159 -960
2022-12-02 12:23:13 GMT 28.424377 -13.864800 425 1 160 -832
2022-12-02 12:23:11 GMT 28.422888 -13.864854 450 1 160 -768
2022-12-02 12:23:10 GMT 28.422134 -13.864852 475 1 160 -832
2022-12-02 12:23:09 GMT 28.419909 -13.864962 525 1 160 -768
2022-12-02 12:23:07 GMT 28.419909 -13.864962 525 1 160 -704
2022-12-02 12:23:06 GMT 28.419159 -13.864957 525 1 160 -704
2022-12-02 12:23:05 GMT 28.417694 -13.865010 550 1 159 -768
2022-12-02 12:23:03 GMT 28.416977 -13.865015 575 1 158 -704
2022-12-02 12:23:02 GMT 28.415485 -13.865069 600 1 157 -768
2022-12-02 12:23:00 GMT 28.414764 -13.865116 600 1 157 -768
2022-12-02 12:22:59 GMT 28.414169 -13.865116 625 1 156 -768
2022-12-02 12:22:57 GMT 28.412750 -13.865169 650 1 155 -832
2022-12-02 12:22:56 GMT 28.411715 -13.865177 650 1 155 -896
2022-12-02 12:22:55 GMT 28.411011 -13.865169 675 1 155 -896
2022-12-02 12:22:52 GMT 28.409433 -13.865231 700 1 154 -768
2022-12-02 12:22:51 GMT 28.408127 -13.865274 725 0 154 -768
2022-12-02 12:22:50 GMT 28.407433 -13.865285 750 1 153 -768
2022-12-02 12:22:49 GMT 28.406593 -13.865285 750 1 153 -832
2022-12-02 12:22:47 GMT 28.405289 -13.865327 775 1 152 -768
2022-12-02 12:22:46 GMT 28.404739 -13.865327 800 1 152 -768
2022-12-02 12:22:45 GMT 28.402311 -13.865446 825 1 152 -768
2022-12-02 12:22:43 GMT 28.402311 -13.865446 825 1 151 -768
2022-12-02 12:22:42 GMT 28.401627 -13.865433 850 1 151 -704
2022-12-02 12:22:40 GMT 28.400208 -13.865486 875 1 150 -704
2022-12-02 12:22:39 GMT 28.398285 -13.865538 900 1 149 -704
2022-12-02 12:22:36 GMT 28.397186 -13.865591 925 1 148 -768
2022-12-02 12:22:34 GMT 28.395933 -13.865608 950 0 147 -832
2022-12-02 12:22:33 GMT 28.395264 -13.865644 975 0 147 -768
2022-12-02 12:22:30 GMT 28.393513 -13.865662 1,000 1 146 -704
2022-12-02 12:22:29 GMT 28.392838 -13.865697 1,000 1 146 -704
2022-12-02 12:22:28 GMT 28.392288 -13.865697 1,025 1 146 -704
2022-12-02 12:22:25 GMT 28.390091 -13.865750 1,050 1 146 -768
2022-12-02 12:22:24 GMT 28.389418 -13.865769 1,075 1 147 -832
2022-12-02 12:22:23 GMT 28.388067 -13.865823 1,100 1 147 -832
2022-12-02 12:22:20 GMT 28.386436 -13.865877 1,125 1 147 -832
2022-12-02 12:22:18 GMT 28.385086 -13.865931 1,150 1 147 -832
2022-12-02 12:22:17 GMT 28.383865 -13.865961 1,175 1 147 -768
2022-12-02 12:22:15 GMT 28.383179 -13.865985 1,200 1 147 -768
2022-12-02 12:22:14 GMT 28.381550 -13.866092 1,225 1 147 -768
2022-12-02 12:22:12 GMT 28.380295 -13.866119 1,250 1 148 -704
2022-12-02 12:22:10 GMT 28.379595 -13.866146 1,250 1 148 -704
2022-12-02 12:22:09 GMT 28.378922 -13.866172 1,275 1 148 -704
2022-12-02 12:22:07 GMT 28.377548 -13.866172 1,300 1 148 -768
2022-12-02 12:22:06 GMT 28.376568 -13.866200 1,325 1 148 -768
2022-12-02 12:22:04 GMT 28.375351 -13.866278 1,325 1 149 -896
2022-12-02 12:22:03 GMT 28.374660 -13.866308 1,350 1 149 -960
2022-12-02 12:22:01 GMT 28.372704 -13.866362 1,375 1 149 -896
2022-12-02 12:22:00 GMT 28.371914 -13.866416 1,400 1 150 -832
2022-12-02 12:21:58 GMT 28.371185 -13.866436 1,425 1 151 -768
2022-12-02 12:21:57 GMT 28.369537 -13.866489 1,450 1 152 -704
2022-12-02 12:21:55 GMT 28.369120 -13.866523 1,475 1 153 -704
2022-12-02 12:21:54 GMT 28.367397 -13.866577 1,500 1 154 -640
2022-12-02 12:21:52 GMT 28.366653 -13.866595 1,500 1 155 -640
2022-12-02 12:21:51 GMT 28.365953 -13.866631 1,500 1 156 -640
2022-12-02 12:21:49 GMT 28.364639 -13.866648 1,525 1 159 -768
2022-12-02 12:21:47 GMT 28.363300 -13.866685 1,550 1 159 -768
2022-12-02 12:21:46 GMT 28.362415 -13.866739 1,575 1 160 -768
2022-12-02 12:21:45 GMT 28.360928 -13.866793 1,600 1 161 -832
2022-12-02 12:21:43 GMT 28.360199 -13.866806 1,600 1 161 -832
2022-12-02 12:21:40 GMT 28.357946 -13.866900 1,650 1 163 -896
2022-12-02 12:21:37 GMT 28.356459 -13.866954 1,675 1 163 -896
2022-12-02 12:21:36 GMT 28.355852 -13.866954 1,700 1 163 -896
2022-12-02 12:21:34 GMT 28.354036 -13.867008 1,725 1 164 -832
2022-12-02 12:21:33 GMT 28.353241 -13.867017 1,750 1 164 -896
2022-12-02 12:21:31 GMT 28.351730 -13.867070 1,775 1 165 -832
2022-12-02 12:21:30 GMT 28.351135 -13.867070 1,775 1 166 -832
2022-12-02 12:21:28 GMT 28.349258 -13.867123 1,800 1 167 -896
2022-12-02 12:21:27 GMT 28.348497 -13.867116 1,825 1 169 -960
2022-12-02 12:21:26 GMT 28.346914 -13.867170 1,850 1 170 -896
2022-12-02 12:21:24 GMT 28.346310 -13.867170 1,875 1 171 -896
2022-12-02 12:21:22 GMT 28.344223 -13.867229 1,900 1 172 -896
2022-12-02 12:21:13 GMT 28.336761 -13.867545 2,050 1 180 -832
2022-12-02 12:21:04 GMT 28.329226 -13.867816 2,200 1 181 -960
2022-12-02 12:21:02 GMT 28.328018 -13.867862 2,225 1 182 -896
2022-12-02 12:20:52 GMT 28.314236 -13.868300 2,475 1 186 -960
2022-12-02 12:20:42 GMT 28.310789 -13.868354 2,550 1 186 -1024
2022-12-02 12:20:39 GMT 28.308695 -13.868408 2,575 0 186 -1024
2022-12-02 12:20:32 GMT 28.301971 -13.868496 2,700 0 186 -640
2022-12-02 12:20:29 GMT 28.299711 -13.868516 2,725 0 187 -384
2022-12-02 12:20:22 GMT 28.292355 -13.868677 2,750 1 191 64
2022-12-02 12:20:18 GMT 28.290390 -13.868760 2,750 2 192 64
2022-12-02 12:20:11 GMT 28.283661 -13.869183 2,750 4 191 0
2022-12-02 12:20:07 GMT 28.280457 -13.869447 2,750 4 190 0
2022-12-02 12:20:03 GMT 28.274712 -13.870185 2,725 7 188 64
2022-12-02 12:19:53 GMT 28.267776 -13.871155 2,725 7 188 -64
2022-12-02 12:19:48 GMT 28.263586 -13.871747 2,725 8 190 64
2022-12-02 12:19:41 GMT 28.256603 -13.873255 2,725 13 196 -64
2022-12-02 12:19:38 GMT 28.255371 -13.873620 2,725 14 198 -64
2022-12-02 12:19:32 GMT 28.249434 -13.875517 2,725 16 205 -192
2022-12-02 12:19:28 GMT 28.245756 -13.876702 2,750 15 208 -640
2022-12-02 12:19:21 GMT 28.239658 -13.878048 2,850 1 210 -1088
2022-12-02 12:19:18 GMT 28.236168 -13.877940 2,925 353 210 -1216
2022-12-02 12:19:11 GMT 28.229645 -13.875732 3,050 333 212 -896
2022-12-02 12:19:07 GMT 28.226257 -13.873356 3,100 323 216 -192
2022-12-02 12:19:00 GMT 28.221130 -13.867062 3,150 300 227 -896
2022-12-02 12:18:57 GMT 28.219849 -13.864376 3,175 295 229 -896
2022-12-02 12:18:51 GMT 28.217825 -13.857153 3,250 278 237 -896
2022-12-02 12:18:49 GMT 28.217546 -13.854675 3,275 275 239 -896
2022-12-02 12:18:46 GMT 28.217499 -13.852198 3,325 270 242 -896
2022-12-02 12:18:41 GMT 28.218336 -13.844497 3,400 256 249 -896
2022-12-02 12:18:39 GMT 28.218988 -13.842019 3,425 252 252 -960
2022-12-02 12:18:36 GMT 28.219894 -13.839235 3,475 247 255 -960
2022-12-02 12:18:31 GMT 28.223366 -13.832433 3,575 235 262 -1024
2022-12-02 12:18:29 GMT 28.224701 -13.830467 3,600 229 265 -1024
2022-12-02 12:18:26 GMT 28.226810 -13.827748 3,650 225 267 -1088
2022-12-02 12:18:21 GMT 28.234165 -13.820962 3,800 212 274 -1344
2022-12-02 12:18:19 GMT 28.237238 -13.818862 3,800 212 274 -1344
2022-12-02 12:18:16 GMT 28.237238 -13.818862 3,850 209 277 -1536
2022-12-02 12:18:10 GMT 28.243568 -13.814984 4,000 208 277 -1920
2022-12-02 12:18:06 GMT 28.248779 -13.811874 4,150 208 276 -2176
2022-12-02 12:17:59 GMT 28.257019 -13.807068 4,425 207 276 -1664
2022-12-02 12:17:55 GMT 28.260420 -13.805129 4,475 207 276 -1600
2022-12-02 12:17:50 GMT 28.266632 -13.801628 4,625 207 276 -2048
2022-12-02 12:17:48 GMT 28.269638 -13.799905 4,725 207 276 -2048
2022-12-02 12:17:45 GMT 28.272385 -13.798397 4,800 207 276 -2048
2022-12-02 12:17:40 GMT 28.278391 -13.795058 4,975 207 277 -1856
2022-12-02 12:17:38 GMT 28.281183 -13.793497 5,050 207 277 -1856
2022-12-02 12:17:35 GMT 28.283930 -13.791935 5,125 207 277 -1856
2022-12-02 12:17:30 GMT 28.289934 -13.788596 5,275 207 277 -1600
2022-12-02 12:17:28 GMT 28.292496 -13.787208 5,350 207 279 -1472
2022-12-02 12:17:24 GMT 28.296204 -13.785148 5,400 207 279 -1536
2022-12-02 12:17:19 GMT 28.302750 -13.781504 5,575 207 280 -2048
2022-12-02 12:17:16 GMT 28.305542 -13.779919 5,650 207 280 -1984
2022-12-02 12:17:13 GMT 28.308792 -13.778070 5,725 207 280 -1920
2022-12-02 12:17:09 GMT 28.313919 -13.775218 5,875 207 280 -1920
2022-12-02 12:17:07 GMT 28.317820 -13.772924 5,975 208 279 -2112
2022-12-02 12:17:04 GMT 28.320147 -13.771578 6,050 208 279 -1856
2022-12-02 12:16:59 GMT 28.326416 -13.767982 6,175 208 281 -832
2022-12-02 12:16:57 GMT 28.328705 -13.766661 6,225 208 282 -896
2022-12-02 12:16:54 GMT 28.331738 -13.764900 6,250 208 283 -1216
2022-12-02 12:16:49 GMT 28.337585 -13.761485 6,350 208 283 -1536
2022-12-02 12:16:46 GMT 28.341339 -13.759320 6,450 208 283 -1408
2022-12-02 12:16:43 GMT 28.343935 -13.757845 6,500 208 283 -1216
2022-12-02 12:16:38 GMT 28.350723 -13.753879 6,600 207 284 -960
2022-12-02 12:16:36 GMT 28.353104 -13.752559 6,625 208 286 -896
2022-12-02 12:16:33 GMT 28.355942 -13.750921 6,675 207 288 -960
2022-12-02 12:16:28 GMT 28.361904 -13.747451 6,750 208 288 -1216
2022-12-02 12:16:26 GMT 28.365509 -13.745428 6,800 207 289 -1280
2022-12-02 12:16:23 GMT 28.368608 -13.743627 6,875 207 289 -1280
2022-12-02 12:16:17 GMT 28.376755 -13.738942 7,025 207 291 -1536
2022-12-02 12:16:13 GMT 28.380617 -13.736734 7,100 207 291 -1536
2022-12-02 12:16:08 GMT 28.390255 -13.731295 7,300 207 291 -1408
2022-12-02 12:16:05 GMT 28.390255 -13.731295 7,300 207 291 -1408
2022-12-02 12:16:02 GMT 28.393433 -13.729477 7,350 207 292 -1216
2022-12-02 12:15:58 GMT 28.398788 -13.726466 7,425 207 292 -1088
2022-12-02 12:15:56 GMT 28.401672 -13.724829 7,500 207 293 -1344
2022-12-02 12:15:52 GMT 28.406067 -13.722346 7,575 208 294 -1600
2022-12-02 12:15:48 GMT 28.410919 -13.719547 7,650 208 294 -1600
2022-12-02 12:15:45 GMT 28.414810 -13.717276 7,750 208 293 -1600
2022-12-02 12:15:41 GMT 28.418198 -13.715321 7,825 208 294 -1536
2022-12-02 12:15:36 GMT 28.424749 -13.711530 7,950 207 293 -1472
2022-12-02 12:15:34 GMT 28.427683 -13.709860 8,000 207 293 -1536
2022-12-02 12:15:31 GMT 28.430614 -13.708191 8,075 207 293 -1600
2022-12-02 12:15:28 GMT 28.435457 -13.705390 8,175 207 293 -1536
2022-12-02 12:15:24 GMT 28.440079 -13.702751 8,275 208 294 -1344
2022-12-02 12:15:21 GMT 28.443232 -13.700921 8,325 207 295 -1216
2022-12-02 12:15:17 GMT 28.448118 -13.698120 8,400 208 296 -1280
2022-12-02 12:15:15 GMT 28.450586 -13.696666 8,425 208 296 -1408
2022-12-02 12:15:11 GMT 28.455734 -13.693719 8,650 207 296 -1536
2022-12-02 12:15:07 GMT 28.460632 -13.690919 8,650 207 297 -1408
2022-12-02 12:15:03 GMT 28.466034 -13.687803 8,750 207 297 -1408
2022-12-02 12:14:56 GMT 28.473404 -13.683524 8,875 207 298 -1344
2022-12-02 12:14:53 GMT 28.477844 -13.680989 8,950 207 298 -1344
2022-12-02 12:14:50 GMT 28.481077 -13.679109 9,000 207 299 -1408
2022-12-02 12:14:47 GMT 28.485306 -13.676711 9,075 207 299 -1472
2022-12-02 12:14:43 GMT 28.490250 -13.673859 9,175 207 299 -1472
2022-12-02 12:14:40 GMT 28.493973 -13.671678 9,250 207 299 -1408
2022-12-02 12:14:37 GMT 28.497931 -13.669416 9,325 208 300 -1216
2022-12-02 12:14:35 GMT 28.500910 -13.667692 9,375 207 301 -1152
2022-12-02 12:14:30 GMT 28.506401 -13.664515 9,450 208 302 -1216
2022-12-02 12:14:26 GMT 28.510918 -13.661930 9,525 208 303 -1280
2022-12-02 12:14:23 GMT 28.515900 -13.658968 9,600 208 304 -1408
2022-12-02 12:14:17 GMT 28.522463 -13.655198 9,725 208 304 -1344
2022-12-02 12:14:15 GMT 28.523952 -13.654336 9,750 208 305 -1280
2022-12-02 12:14:12 GMT 28.528748 -13.651569 9,825 208 305 -1344
2022-12-02 12:14:08 GMT 28.534332 -13.648347 9,925 207 306 -1408
2022-12-02 12:14:06 GMT 28.536615 -13.647066 9,975 207 307 -1088
2022-12-02 12:14:02 GMT 28.541689 -13.644158 10,025 207 309 -448
2022-12-02 12:13:59 GMT 28.545547 -13.641903 10,050 207 311 -256
2022-12-02 12:13:56 GMT 28.549417 -13.639688 10,075 207 314 -256
2022-12-02 12:13:51 GMT 28.555435 -13.636252 10,075 207 317 -320
2022-12-02 12:13:48 GMT 28.559143 -13.634192 10,100 207 321 -448
2022-12-02 12:13:44 GMT 28.566874 -13.629779 10,150 207 325 -320
2022-12-02 12:13:39 GMT 28.572321 -13.626655 10,175 207 330 -320
2022-12-02 12:13:36 GMT 28.576447 -13.624315 10,175 207 333 -320
2022-12-02 12:13:31 GMT 28.583084 -13.620564 10,200 207 338 -320
2022-12-02 12:13:28 GMT 28.587021 -13.618346 10,225 207 338 -320
2022-12-02 12:13:23 GMT 28.594666 -13.613945 10,250 207 345 -256
2022-12-02 12:13:19 GMT 28.600113 -13.610846 10,275 207 349 -320
2022-12-02 12:13:16 GMT 28.605093 -13.608021 10,275 207 353 -320
2022-12-02 12:13:12 GMT 28.609749 -13.605383 10,325 207 359 -320
2022-12-02 12:13:09 GMT 28.615707 -13.601990 10,325 207 361 -320
2022-12-02 12:13:05 GMT 28.620163 -13.599384 10,350 207 364 -256
2022-12-02 12:13:03 GMT 28.624420 -13.597007 10,350 207 367 -256
2022-12-02 12:12:59 GMT 28.630232 -13.593642 10,375 207 373 -256
2022-12-02 12:12:55 GMT 28.635452 -13.590616 10,375 207 377 -320
2022-12-02 12:12:53 GMT 28.640146 -13.587934 10,400 208 380 -448
2022-12-02 12:12:48 GMT 28.646433 -13.584272 10,425 208 384 -832
2022-12-02 12:12:45 GMT 28.652159 -13.580933 10,500 208 386 -1664
2022-12-02 12:12:42 GMT 28.656967 -13.578151 10,575 208 388 -2112
2022-12-02 12:12:38 GMT 28.662094 -13.575140 10,700 208 389 -2496
2022-12-02 12:12:34 GMT 28.668549 -13.571390 10,850 208 390 -2368
2022-12-02 12:12:32 GMT 28.673340 -13.568546 10,975 208 391 -2176
2022-12-02 12:12:28 GMT 28.678848 -13.565316 11,075 208 393 -2048
2022-12-02 12:12:25 GMT 28.684662 -13.561935 11,200 208 394 -1984
2022-12-02 12:12:22 GMT 28.689539 -13.559014 11,300 208 395 -2048
2022-12-02 12:12:18 GMT 28.695099 -13.555756 11,425 208 397 -2368
2022-12-02 12:12:14 GMT 28.701269 -13.552067 11,575 208 397 -2624
2022-12-02 12:12:11 GMT 28.706177 -13.549153 11,700 208 398 -2752
2022-12-02 12:12:08 GMT 28.711744 -13.545873 11,850 208 398 -2880
2022-12-02 12:12:04 GMT 28.717657 -13.542373 12,025 208 398 -3072
2022-12-02 12:12:02 GMT 28.723206 -13.539118 12,175 208 397 -3008
2022-12-02 12:11:58 GMT 28.727783 -13.536424 12,325 208 398 -2688
2022-12-02 12:11:54 GMT 28.735346 -13.531979 12,500 208 398 -2304
2022-12-02 12:11:51 GMT 28.739956 -13.529286 12,625 208 400 -2304
2022-12-02 12:11:47 GMT 28.745960 -13.525893 12,750 207 401 -2752
2022-12-02 12:11:44 GMT 28.751587 -13.522638 12,925 207 402 -2880
2022-12-02 12:11:41 GMT 28.756620 -13.519862 13,050 206 401 -2816
2022-12-02 12:11:38 GMT 28.761324 -13.517277 13,175 206 402 -2624
2022-12-02 12:11:33 GMT 28.769073 -13.513025 13,375 206 404 -2304
2022-12-02 12:11:28 GMT 28.778221 -13.508067 13,575 206 405 -2496
2022-12-02 12:11:23 GMT 28.786413 -13.503651 13,775 206 406 -2688
2022-12-02 12:11:20 GMT 28.791504 -13.500877 13,900 206 407 -2752
2022-12-02 12:11:17 GMT 28.795958 -13.498481 14,175 206 407 -2688
2022-12-02 12:11:13 GMT 28.803818 -13.494274 14,200 206 408 -2496
2022-12-02 12:11:08 GMT 28.814440 -13.488518 14,450 206 411 -2432
2022-12-02 12:11:03 GMT 28.821327 -13.484802 14,600 206 412 -2432
2022-12-02 12:10:57 GMT 28.831011 -13.479525 14,825 206 415 -2112
2022-12-02 12:10:52 GMT 28.839392 -13.475001 14,975 206 418 -2176
2022-12-02 12:10:49 GMT 28.845337 -13.471826 15,175 206 420 -2496
2022-12-02 12:10:46 GMT 28.849594 -13.469502 15,200 206 420 -2496
2022-12-02 12:10:42 GMT 28.856987 -13.465522 15,375 206 421 -2624
2022-12-02 12:10:38 GMT 28.865459 -13.460945 15,575 206 423 -2688
2022-12-02 12:10:36 GMT 28.867218 -13.459995 15,625 206 423 -2752
2022-12-02 12:10:32 GMT 28.875046 -13.455769 15,800 206 424 -2688
2022-12-02 12:10:30 GMT 28.879990 -13.453023 15,925 206 425 -2624
2022-12-02 12:10:27 GMT 28.885712 -13.449959 16,050 206 425 -2688
2022-12-02 12:10:22 GMT 28.893539 -13.445681 16,250 206 426 -2944
2022-12-02 12:10:19 GMT 28.898884 -13.442742 16,400 206 427 -3072
2022-12-02 12:10:16 GMT 28.903564 -13.440241 16,525 206 427 -3200
2022-12-02 12:10:12 GMT 28.911392 -13.435962 17,000 206 427 -3328
2022-12-02 12:10:09 GMT 28.916759 -13.433048 16,925 206 427 -3136
2022-12-02 12:10:06 GMT 28.921741 -13.430301 17,050 206 427 -2880
2022-12-02 12:10:01 GMT 28.929609 -13.425993 17,250 206 428 -2688
2022-12-02 12:09:59 GMT 28.934637 -13.423246 17,375 206 428 -2880
2022-12-02 12:09:55 GMT 28.940363 -13.420123 17,525 206 429 -3136
2022-12-02 12:09:51 GMT 28.947531 -13.416192 17,725 206 429 -3072
2022-12-02 12:09:48 GMT 28.953257 -13.413068 17,900 206 430 -3008
2022-12-02 12:09:45 GMT 28.959728 -13.409514 18,075 206 430 -2944
2022-12-02 12:09:39 GMT 28.971972 -13.402836 18,375 206 431 -2816
2022-12-02 12:09:35 GMT 28.976669 -13.400257 18,500 206 432 -2880
2022-12-02 12:09:30 GMT 28.985704 -13.395350 18,725 206 432 -2880
2022-12-02 12:09:28 GMT 28.990034 -13.392926 19,175 206 432 -2944
2022-12-02 12:09:25 GMT 28.995806 -13.389749 19,000 206 433 -2944
2022-12-02 12:09:20 GMT 29.004511 -13.385010 19,225 206 434 -2880
2022-12-02 12:09:18 GMT 29.008484 -13.382827 19,400 206 436 -2816
2022-12-02 12:09:15 GMT 29.013962 -13.379840 19,450 206 436 -2816
2022-12-02 12:09:09 GMT 29.024157 -13.374239 19,725 206 436 -2944
2022-12-02 12:09:07 GMT 29.028580 -13.371869 19,825 206 437 -3008
2022-12-02 12:09:05 GMT 29.032955 -13.369446 19,950 206 438 -3008
2022-12-02 12:08:59 GMT 29.042130 -13.364446 20,200 206 439 -2752
2022-12-02 12:08:56 GMT 29.047989 -13.361224 20,325 206 440 -2752
2022-12-02 12:08:54 GMT 29.052040 -13.358998 20,425 206 440 -2816
2022-12-02 12:08:50 GMT 29.060141 -13.354582 20,625 206 441 -3008
2022-12-02 12:08:46 GMT 29.065704 -13.351505 20,775 206 442 -3072
2022-12-02 12:08:43 GMT 29.071220 -13.348496 20,925 206 442 -3072
2022-12-02 12:08:39 GMT 29.078669 -13.344457 21,125 206 443 -2944
2022-12-02 12:08:36 GMT 29.085325 -13.340795 21,300 206 444 -2944
2022-12-02 12:08:33 GMT 29.089417 -13.338564 21,400 206 445 -2944
2022-12-02 12:08:29 GMT 29.097942 -13.333848 21,625 206 445 -3136
2022-12-02 12:08:27 GMT 29.102783 -13.331223 21,750 206 445 -3200
2022-12-02 12:08:24 GMT 29.108370 -13.328139 21,900 206 445 -3136
2022-12-02 12:08:19 GMT 29.116974 -13.323458 22,125 206 448 -2560
2022-12-02 12:08:15 GMT 29.123314 -13.320007 22,275 206 448 -2496
2022-12-02 12:08:13 GMT 29.128189 -13.317331 22,375 206 449 -2560
2022-12-02 12:08:09 GMT 29.136068 -13.312952 22,550 206 450 -3136
2022-12-02 12:08:05 GMT 29.142120 -13.309667 22,725 206 450 -3200
2022-12-02 12:08:03 GMT 29.147381 -13.306759 22,875 206 451 -3200
2022-12-02 12:07:58 GMT 29.155334 -13.302383 23,100 206 452 -3072
2022-12-02 12:07:56 GMT 29.159821 -13.299901 23,200 206 453 -3008
2022-12-02 12:07:52 GMT 29.166641 -13.296151 23,375 206 453 -3072
2022-12-02 12:07:48 GMT 29.174240 -13.291978 23,575 206 453 -3200
2022-12-02 12:07:45 GMT 29.180283 -13.288651 23,750 206 454 -3264
2022-12-02 12:07:43 GMT 29.185972 -13.285487 23,925 206 454 -3200
2022-12-02 12:07:38 GMT 29.193607 -13.281340 24,125 206 455 -2944
2022-12-02 12:07:36 GMT 29.197376 -13.279293 24,225 206 456 -2816
2022-12-02 12:07:32 GMT 29.206146 -13.274389 24,425 207 456 -2944
2022-12-02 12:07:28 GMT 29.212143 -13.270851 24,600 209 456 -3072
2022-12-02 12:07:26 GMT 29.218094 -13.267153 24,750 209 456 -3008
2022-12-02 12:07:21 GMT 29.225510 -13.262452 24,925 210 457 -2816
2022-12-02 12:07:18 GMT 29.231035 -13.258936 25,075 210 459 -2688
2022-12-02 12:07:15 GMT 29.237366 -13.254899 25,200 210 460 -2688
2022-12-02 12:07:11 GMT 29.244095 -13.250621 25,375 210 461 -2880
2022-12-02 12:07:08 GMT 29.250401 -13.246604 25,550 210 462 -2816
2022-12-02 12:07:05 GMT 29.256775 -13.242540 25,700 210 463 -2688
2022-12-02 12:07:02 GMT 29.263157 -13.238472 25,850 210 464 -2624
2022-12-02 12:06:58 GMT 29.269592 -13.234406 26,000 210 466 -2560
2022-12-02 12:06:55 GMT 29.274124 -13.231553 26,075 210 467 -2560
2022-12-02 12:06:51 GMT 29.282455 -13.226271 26,275 210 469 -2688
2022-12-02 12:06:46 GMT 29.291971 -13.220215 26,500 210 471 -2816
2022-12-02 12:06:41 GMT 29.301544 -13.214176 26,725 210 473 -2432
2022-12-02 12:06:37 GMT 29.308079 -13.210036 26,875 210 475 -2432
2022-12-02 12:06:34 GMT 29.314590 -13.205883 27,025 210 476 -2752
2022-12-02 12:06:30 GMT 29.322327 -13.200918 27,200 210 476 -3712
2022-12-02 12:06:26 GMT 29.331215 -13.195280 27,500 210 476 -4160
2022-12-02 12:06:21 GMT 29.341225 -13.188871 27,850 210 476 -3904
2022-12-02 12:06:15 GMT 29.354736 -13.180266 28,300 210 475 -3904
2022-12-02 12:06:09 GMT 29.362034 -13.175623 28,550 210 475 -3968
2022-12-02 12:06:06 GMT 29.370117 -13.170495 28,800 210 475 -3904
2022-12-02 12:06:00 GMT 29.380920 -13.163681 29,175 209 474 -3904
2022-12-02 12:05:56 GMT 29.388987 -13.158551 29,450 210 473 -3712
2022-12-02 12:05:47 GMT 29.405838 -13.147834 29,975 210 473 -3584
2022-12-02 12:05:45 GMT 29.408911 -13.145842 31,050 210 473 -3584
2022-12-02 12:05:40 GMT 29.420792 -13.138222 30,400 210 473 -3456
2022-12-02 12:05:35 GMT 29.427299 -13.134101 30,625 210 473 -3456
2022-12-02 12:05:33 GMT 29.439926 -13.125968 31,050 210 474 -3008
2022-12-02 12:05:29 GMT 29.439926 -13.125968 31,000 210 473 -3200
2022-12-02 12:05:24 GMT 29.448349 -13.120581 31,225 210 475 -3008
2022-12-02 12:05:18 GMT 29.459839 -13.113186 31,525 210 475 -3200
2022-12-02 12:05:14 GMT 29.466751 -13.108697 31,725 210 475 -3328
2022-12-02 12:05:09 GMT 29.478645 -13.101035 32,050 210 475 -3008
2022-12-02 12:05:04 GMT 29.487864 -13.095111 32,300 210 475 -3392
2022-12-02 12:04:59 GMT 29.499023 -13.087992 32,650 210 474 -3776
2022-12-02 12:04:55 GMT 29.504017 -13.084771 32,800 210 474 -3648
2022-12-02 12:04:53 GMT 29.507833 -13.082293 32,925 210 473 -3456
2022-12-02 12:04:48 GMT 29.517796 -13.075939 33,200 210 473 -2816
2022-12-02 12:04:43 GMT 29.527359 -13.069769 33,425 210 474 -2496
2022-12-02 12:04:36 GMT 29.540359 -13.061318 33,725 210 475 -3328
2022-12-02 12:04:34 GMT 29.543427 -13.059364 33,825 210 475 -3328
2022-12-02 12:04:31 GMT 29.550339 -13.054874 34,025 210 474 -3456
2022-12-02 12:04:25 GMT 29.562206 -13.047234 34,375 210 473 -3584
2022-12-02 12:04:22 GMT 29.567917 -13.043518 34,550 210 472 -3648
2022-12-02 12:04:18 GMT 29.577072 -13.037655 34,850 210 471 -3712
2022-12-02 12:04:15 GMT 29.581650 -13.034697 35,000 210 470 -3520
2022-12-02 12:04:12 GMT 29.586601 -13.031509 35,150 210 470 -3072
2022-12-02 12:04:06 GMT 29.598751 -13.023753 35,475 210 470 -2112
2022-12-02 12:04:04 GMT 29.602158 -13.021545 35,500 210 470 -1856
2022-12-02 12:04:01 GMT 29.607130 -13.018368 35,600 210 470 -1152
2022-12-02 12:03:55 GMT 29.620071 -13.010074 35,700 210 471 -704
2022-12-02 12:03:53 GMT 29.621979 -13.008869 35,725 210 471 -704
2022-12-02 12:03:50 GMT 29.627661 -13.005174 35,775 210 471 -768
2022-12-02 12:03:47 GMT 29.635294 -13.000327 35,825 210 469 -832
2022-12-02 12:03:44 GMT 29.641022 -12.996668 35,875 210 469 -832
2022-12-02 12:03:41 GMT 29.644821 -12.994238 35,900 210 468 -832
2022-12-02 12:03:36 GMT 29.656174 -12.986949 35,975 210 467 -832
2022-12-02 12:03:32 GMT 29.663727 -12.982143 36,025 210 467 -832
2022-12-02 12:03:29 GMT 29.669037 -12.978709 36,075 210 467 -832
2022-12-02 12:03:26 GMT 29.674677 -12.975069 36,100 210 467 -832
2022-12-02 12:03:23 GMT 29.678448 -12.972645 36,150 210 467 -768
2022-12-02 12:03:21 GMT 29.683708 -12.969253 36,175 210 467 -768
2022-12-02 12:03:16 GMT 29.698048 -12.959936 36,250 210 468 -768
2022-12-02 12:03:13 GMT 29.698048 -12.959936 36,275 210 468 -704
2022-12-02 12:03:10 GMT 29.704422 -12.955733 36,300 210 468 -704
2022-12-02 12:03:06 GMT 29.723328 -12.943426 36,425 210 469 -768
2022-12-02 12:03:00 GMT 29.723328 -12.943426 36,450 210 469 -768
2022-12-02 12:02:55 GMT 29.733948 -12.936560 36,525 210 469 -768
2022-12-02 12:02:50 GMT 29.742279 -12.931172 36,575 210 469 -768
2022-12-02 12:02:45 GMT 29.752121 -12.924834 36,650 210 468 -832
2022-12-02 12:02:41 GMT 29.758942 -12.920397 36,675 210 468 -832
2022-12-02 12:02:38 GMT 29.764616 -12.916744 36,750 210 468 -832
2022-12-02 12:02:35 GMT 29.771414 -12.912328 36,800 210 469 -896
2022-12-02 12:02:32 GMT 29.776672 -12.908882 36,825 210 468 -896
2022-12-02 12:02:29 GMT 29.782724 -12.904950 36,875 210 468 -896
2022-12-02 12:02:24 GMT 29.789522 -12.900534 36,950 210 468 -768
2022-12-02 12:02:22 GMT 29.795197 -12.896840 36,975 210 468 -512
2022-12-02 12:02:18 GMT 29.802017 -12.892456 37,000 210 468 -256
2022-12-02 12:02:15 GMT 29.810349 -12.887069 37,025 210 468 0
2022-12-02 12:02:09 GMT 29.820190 -12.880783 37,025 210 468 0
2022-12-02 12:02:04 GMT 29.828159 -12.875653 37,025 210 468 0
2022-12-02 12:02:02 GMT 29.833832 -12.872015 37,025 210 468 0
2022-12-02 12:01:57 GMT 29.843674 -12.865677 37,025 210 468 0
2022-12-02 12:01:54 GMT 29.848251 -12.862719 37,025 210 468 64
2022-12-02 12:01:51 GMT 29.853159 -12.859551 37,025 210 468 64
2022-12-02 12:01:47 GMT 29.861492 -12.854219 37,025 210 468 64
2022-12-02 12:01:44 GMT 29.867935 -12.850095 37,025 210 469 0
2022-12-02 12:01:39 GMT 29.876312 -12.844708 37,025 210 469 0
2022-12-02 12:01:34 GMT 29.887327 -12.837632 37,025 210 469 0
2022-12-02 12:01:28 GMT 29.897942 -12.830846 37,025 210 469 0
2022-12-02 12:01:25 GMT 29.904785 -12.826430 37,025 210 469 0
2022-12-02 12:01:17 GMT 29.918472 -12.817639 37,025 210 470 0
2022-12-02 12:01:13 GMT 29.924881 -12.813505 37,025 210 470 0
2022-12-02 12:01:11 GMT 29.930191 -12.810059 37,025 210 470 0
2022-12-02 12:01:07 GMT 29.938164 -12.804950 37,025 210 469 0
2022-12-02 12:01:03 GMT 29.945751 -12.800006 37,025 210 469 0
2022-12-02 12:00:56 GMT 29.957155 -12.792645 37,025 210 470 0
2022-12-02 12:00:53 GMT 29.965488 -12.787262 37,025 210 470 0
2022-12-02 12:00:50 GMT 29.969650 -12.784585 37,025 210 470 0
2022-12-02 12:00:47 GMT 29.975357 -12.780890 37,025 210 470 0
2022-12-02 12:00:44 GMT 29.981457 -12.776990 37,025 210 470 0
2022-12-02 12:00:37 GMT 29.994352 -12.768640 37,025 210 469 0
2022-12-02 12:00:34 GMT 30.000402 -12.764685 37,025 210 469 0
2022-12-02 12:00:29 GMT 30.009888 -12.758574 37,025 210 469 64
2022-12-02 12:00:24 GMT 30.019730 -12.752165 37,025 210 470 64
2022-12-02 12:00:19 GMT 30.028061 -12.746726 37,025 210 470 64
2022-12-02 12:00:14 GMT 30.038635 -12.739832 37,025 210 470 0
2022-12-02 12:00:09 GMT 30.046631 -12.734637 37,025 210 470 0
2022-12-02 12:00:04 GMT 30.058319 -12.726961 37,025 210 470 0
2022-12-02 11:59:59 GMT 30.066650 -12.721522 37,025 210 470 0
2022-12-02 11:59:54 GMT 30.076492 -12.715113 37,025 210 470 64
2022-12-02 11:59:49 GMT 30.085602 -12.709189 37,025 210 470 64
2022-12-02 11:59:44 GMT 30.095091 -12.702997 37,025 210 469 64
2022-12-02 11:59:41 GMT 30.102310 -12.698310 37,025 210 470 0
2022-12-02 11:59:36 GMT 30.109522 -12.693658 37,025 210 470 0
2022-12-02 11:59:33 GMT 30.115574 -12.689703 37,025 210 470 0
2022-12-02 11:59:26 GMT 30.128515 -12.681354 37,025 210 470 0
2022-12-02 11:59:22 GMT 30.136103 -12.676465 37,025 210 470 0
2022-12-02 11:59:16 GMT 30.148636 -12.668313 37,025 210 470 64
2022-12-02 11:59:12 GMT 30.154724 -12.664382 37,025 210 470 64
2022-12-02 11:59:07 GMT 30.166502 -12.656744 37,025 210 470 0
2022-12-02 11:59:02 GMT 30.173346 -12.652350 37,025 210 470 0
2022-12-02 11:58:57 GMT 30.184750 -12.644989 37,025 211 470 0
2022-12-02 11:58:53 GMT 30.191895 -12.640201 37,025 211 470 0
2022-12-02 11:58:46 GMT 30.204437 -12.631154 37,025 214 468 0
2022-12-02 11:58:43 GMT 30.210938 -12.626145 37,025 215 467 64
2022-12-02 11:58:36 GMT 30.221806 -12.617084 37,025 217 466 0
2022-12-02 11:58:32 GMT 30.228424 -12.611443 37,025 217 466 0
2022-12-02 11:58:26 GMT 30.238861 -12.602557 37,025 217 467 0
2022-12-02 11:58:22 GMT 30.246506 -12.596041 37,025 217 467 0
2022-12-02 11:58:17 GMT 30.263517 -12.581433 37,025 217 467 0
2022-12-02 11:58:12 GMT 30.263517 -12.581433 37,025 217 467 0
2022-12-02 11:58:05 GMT 30.275665 -12.571052 37,025 217 467 0
2022-12-02 11:58:02 GMT 30.280563 -12.566851 37,025 217 467 0
2022-12-02 11:57:56 GMT 30.292374 -12.556727 37,025 217 468 0
2022-12-02 11:57:51 GMT 30.300018 -12.550210 37,025 217 467 0
2022-12-02 11:57:46 GMT 30.309418 -12.542157 37,025 217 468 0
2022-12-02 11:57:42 GMT 30.316353 -12.536224 37,025 217 467 64
2022-12-02 11:57:36 GMT 30.326780 -12.527271 37,025 217 468 64
2022-12-02 11:57:31 GMT 30.335114 -12.520074 37,025 217 468 0
2022-12-02 11:57:25 GMT 30.345200 -12.511381 37,025 217 468 0
2022-12-02 11:57:20 GMT 30.353531 -12.504219 37,025 217 468 0
2022-12-02 11:57:15 GMT 30.362906 -12.496124 37,025 217 468 0
2022-12-02 11:57:10 GMT 30.371937 -12.488379 37,025 217 468 0
2022-12-02 11:57:05 GMT 30.379944 -12.481546 37,025 217 468 0
2022-12-02 11:56:57 GMT 30.395966 -12.467867 37,025 217 468 0
2022-12-02 11:56:49 GMT 30.408201 -12.457452 37,025 217 469 64
2022-12-02 11:56:46 GMT 30.413452 -12.453003 37,025 217 468 0
2022-12-02 11:56:39 GMT 30.424959 -12.443170 37,025 217 469 64
2022-12-02 11:56:32 GMT 30.437164 -12.432754 37,025 217 468 64
2022-12-02 11:56:29 GMT 30.443813 -12.427075 37,025 217 468 0
2022-12-02 11:56:25 GMT 30.450796 -12.421143 37,025 217 469 0
2022-12-02 11:56:21 GMT 30.455685 -12.416968 37,025 217 469 0
2022-12-02 11:56:19 GMT 30.460922 -12.412504 37,025 217 468 0
2022-12-02 11:56:12 GMT 30.473095 -12.402026 37,025 217 468 0
2022-12-02 11:56:08 GMT 30.478727 -12.397302 37,025 216 469 0
2022-12-02 11:56:04 GMT 30.486237 -12.391286 37,025 214 470 0
2022-12-02 11:56:01 GMT 30.492414 -12.386591 37,025 213 470 0
2022-12-02 11:55:58 GMT 30.497955 -12.382507 37,025 212 471 0
2022-12-02 11:55:53 GMT 30.506882 -12.376206 37,025 211 472 0
2022-12-02 11:55:48 GMT 30.516769 -12.369636 37,025 209 473 0
2022-12-02 11:55:38 GMT 30.536686 -12.357751 37,025 206 475 0
2022-12-02 11:55:32 GMT 30.548309 -12.351595 37,025 205 476 64
2022-12-02 11:55:23 GMT 30.566071 -12.342440 37,025 204 477 0
2022-12-02 11:55:21 GMT 30.570099 -12.340393 37,025 204 477 0
2022-12-02 11:55:16 GMT 30.580627 -12.334954 37,025 204 477 0
2022-12-02 11:55:12 GMT 30.589104 -12.330615 37,025 205 477 0
2022-12-02 11:55:07 GMT 30.599167 -12.325422 37,025 205 477 0
2022-12-02 11:55:02 GMT 30.609650 -12.319928 37,025 205 477 0
2022-12-02 11:54:55 GMT 30.622559 -12.313250 37,025 205 477 0
2022-12-02 11:54:51 GMT 30.631046 -12.308807 37,025 205 478 0
2022-12-02 11:54:46 GMT 30.641521 -12.303369 37,025 205 477 0
2022-12-02 11:54:42 GMT 30.650412 -12.298810 37,025 204 477 0
2022-12-02 11:54:30 GMT 30.671453 -12.287988 37,025 204 477 0
2022-12-02 11:54:24 GMT 30.685186 -12.280902 37,025 204 477 0
2022-12-02 11:54:18 GMT 30.696899 -12.274852 37,025 204 477 0
2022-12-02 11:54:15 GMT 30.702971 -12.271729 37,025 204 477 0
2022-12-02 11:54:10 GMT 30.712652 -12.266730 37,025 205 477 0
2022-12-02 11:54:01 GMT 30.731644 -12.256919 37,025 205 477 64
2022-12-02 11:53:51 GMT 30.751385 -12.246625 37,025 205 477 64
2022-12-02 11:53:46 GMT 30.761490 -12.241355 37,025 205 478 0
2022-12-02 11:53:44 GMT 30.765518 -12.239254 37,025 205 478 0
2022-12-02 11:53:31 GMT 30.792114 -12.225414 37,025 205 478 0
2022-12-02 11:53:24 GMT 30.806269 -12.218060 37,025 205 477 0
2022-12-02 11:53:19 GMT 30.817978 -12.212004 37,025 205 477 0
2022-12-02 11:53:14 GMT 30.827265 -12.207184 37,025 205 477 0
2022-12-02 11:53:11 GMT 30.833735 -12.203833 37,025 205 477 0
2022-12-02 11:53:01 GMT 30.854370 -12.193101 37,025 205 478 0
2022-12-02 11:52:53 GMT 30.868881 -12.185561 37,025 205 477 0
2022-12-02 11:52:50 GMT 30.876562 -12.181586 37,025 205 477 0
2022-12-02 11:52:40 GMT 30.894346 -12.172357 37,025 204 478 0
2022-12-02 11:52:33 GMT 30.910500 -12.164008 37,025 204 478 64
2022-12-02 11:52:26 GMT 30.922256 -12.157934 37,025 205 478 64
2022-12-02 11:52:20 GMT 30.936010 -12.150824 37,025 204 478 0
2022-12-02 11:52:12 GMT 30.952194 -12.142478 37,025 205 478 0
2022-12-02 11:52:04 GMT 30.968782 -12.133905 37,025 205 478 0
2022-12-02 11:51:59 GMT 30.977674 -12.129291 37,025 205 478 64
2022-12-02 11:51:51 GMT 30.993876 -12.120886 37,025 205 478 0
2022-12-02 11:51:48 GMT 31.001541 -12.116897 37,025 205 478 0
2022-12-02 11:51:41 GMT 31.015709 -12.109515 37,025 205 478 0
2022-12-02 11:51:37 GMT 31.023808 -12.105341 37,025 205 478 0
2022-12-02 11:51:31 GMT 31.035553 -12.099232 37,025 205 478 0
2022-12-02 11:51:17 GMT 31.063471 -12.084686 37,025 205 478 0
2022-12-02 11:50:46 GMT 31.125011 -12.052551 37,025 205 478 0
2022-12-02 11:50:44 GMT 31.130692 -12.049585 37,025 205 478 0
2022-12-02 11:50:39 GMT 31.140375 -12.044531 37,025 205 478 64
2022-12-02 11:50:35 GMT 31.149313 -12.039917 37,025 205 478 64
2022-12-02 11:50:29 GMT 31.160248 -12.034176 37,025 205 479 0
2022-12-02 11:50:19 GMT 31.180481 -12.023567 37,025 205 479 0
2022-12-02 11:50:08 GMT 31.203140 -12.011719 37,025 205 480 0
2022-12-02 11:49:58 GMT 31.223005 -12.001355 37,025 205 480 64
2022-12-02 11:49:48 GMT 31.243698 -11.990500 37,025 205 480 0
2022-12-02 11:49:39 GMT 31.261923 -11.980920 37,025 205 480 0
2022-12-02 11:49:37 GMT 31.266403 -11.978598 37,025 205 480 0
2022-12-02 11:49:29 GMT 31.281830 -11.970520 37,025 205 480 64
2022-12-02 11:48:52 GMT 31.357821 -11.930823 37,025 205 479 64
We lost coverage of the aircraft here for a total of 9 minutes
2022-12-02 11:39:32 GMT 32.496765 -11.324662 37,025 205 479 64
2022-12-02 11:38:31 GMT 32.619919 -11.258185 37,025 205 479 64
2022-12-02 11:38:20 GMT 32.642101 -11.246188 37,025 205 479 0
2022-12-02 11:38:11 GMT 32.660248 -11.236322 37,025 205 478 0
2022-12-02 11:38:00 GMT 32.682037 -11.224567 37,025 205 478 0
2022-12-02 11:37:51 GMT 32.700947 -11.214238 37,025 205 478 64
2022-12-02 11:37:40 GMT 32.722321 -11.202649 37,025 205 478 0
2022-12-02 11:37:31 GMT 32.742050 -11.191985 37,025 205 478 0
2022-12-02 11:37:20 GMT 32.763428 -11.180402 37,025 205 478 0
2022-12-02 11:37:10 GMT 32.783157 -11.169676 37,025 205 478 0
2022-12-02 11:37:00 GMT 32.804489 -11.158044 37,025 205 478 64
2022-12-02 11:36:50 GMT 32.824215 -11.147311 37,025 205 478 64
2022-12-02 11:36:37 GMT 32.850750 -11.132906 37,025 205 478 0
2022-12-02 11:36:27 GMT 32.870499 -11.122174 37,025 205 478 0
2022-12-02 11:36:19 GMT 32.885788 -11.113879 37,025 205 478 64
2022-12-02 11:36:06 GMT 32.911514 -11.099872 37,025 205 477 0
2022-12-02 11:35:59 GMT 32.927189 -11.091315 37,025 205 477 0
2022-12-02 11:35:47 GMT 32.950104 -11.078833 37,025 205 477 0
2022-12-02 11:34:56 GMT 33.053253 -11.022482 37,025 205 476 0
2022-12-02 11:34:24 GMT 33.116226 -10.988031 37,025 205 476 0
2022-12-02 11:34:15 GMT 33.133850 -10.978363 37,025 205 476 0
2022-12-02 11:34:06 GMT 33.153076 -10.967761 37,025 205 476 64
2022-12-02 11:33:56 GMT 33.173126 -10.956775 37,025 205 476 0
2022-12-02 11:33:45 GMT 33.196030 -10.944289 37,025 205 477 0
2022-12-02 11:33:36 GMT 33.214050 -10.934363 37,025 205 476 0
2022-12-02 11:33:23 GMT 33.240162 -10.920074 37,025 205 477 0
2022-12-02 11:33:15 GMT 33.255798 -10.911456 37,025 205 477 0
2022-12-02 11:33:05 GMT 33.275894 -10.900415 37,025 205 477 0
2022-12-02 11:32:54 GMT 33.296394 -10.889133 37,025 205 478 64
2022-12-02 11:32:44 GMT 33.316956 -10.877948 37,025 205 479 0
2022-12-02 11:32:34 GMT 33.337921 -10.866522 37,025 205 479 0
2022-12-02 11:32:23 GMT 33.360962 -10.853988 37,025 205 479 0
2022-12-02 11:32:13 GMT 33.379536 -10.843898 37,025 205 479 0
2022-12-02 11:31:58 GMT 33.410213 -10.827026 37,025 205 480 64
2022-12-02 11:31:49 GMT 33.428421 -10.817029 37,025 205 481 64
2022-12-02 11:31:28 GMT 33.470444 -10.793793 37,025 205 481 0
2022-12-02 11:31:01 GMT 33.526291 -10.762756 37,025 206 482 0
2022-12-02 11:30:51 GMT 33.546940 -10.751266 37,025 205 482 64
2022-12-02 11:30:39 GMT 33.570496 -10.738220 37,025 205 483 0
2022-12-02 11:30:30 GMT 33.589508 -10.727533 37,025 206 483 0
2022-12-02 11:30:17 GMT 33.615417 -10.712959 37,025 206 483 64
2022-12-02 11:30:11 GMT 33.627594 -10.706177 37,025 205 484 0
2022-12-02 11:30:01 GMT 33.647919 -10.694854 37,025 205 484 64
2022-12-02 11:29:50 GMT 33.669113 -10.683139 37,025 205 484 0
2022-12-02 11:29:39 GMT 33.692322 -10.670300 37,025 205 484 64
2022-12-02 11:29:30 GMT 33.710243 -10.660343 37,025 205 484 0
2022-12-02 11:29:19 GMT 33.732605 -10.647938 37,025 205 484 0
2022-12-02 11:29:09 GMT 33.753754 -10.636167 37,025 206 484 64
2022-12-02 11:28:59 GMT 33.773254 -10.625237 37,025 206 484 0
2022-12-02 11:28:49 GMT 33.793945 -10.613594 37,025 206 484 0
2022-12-02 11:28:39 GMT 33.814636 -10.601975 37,025 206 484 64
2022-12-02 11:28:26 GMT 33.840218 -10.587730 37,025 205 484 0
2022-12-02 11:28:18 GMT 33.857258 -10.578175 37,025 206 483 0
2022-12-02 11:28:07 GMT 33.879974 -10.565472 37,025 205 483 0
2022-12-02 11:27:58 GMT 33.897011 -10.555973 37,025 205 483 0
2022-12-02 11:27:44 GMT 33.925003 -10.540373 37,025 205 483 64
2022-12-02 11:27:37 GMT 33.939186 -10.532455 37,025 205 483 0
2022-12-02 11:27:27 GMT 33.960232 -10.520668 37,025 206 482 0
2022-12-02 11:27:15 GMT 33.984486 -10.507107 37,025 205 481 0
2022-12-02 11:27:05 GMT 34.002686 -10.496932 37,025 205 481 0
2022-12-02 11:26:57 GMT 34.021679 -10.486336 37,025 205 481 64
2022-12-02 11:26:46 GMT 34.042282 -10.474903 37,025 205 480 0
2022-12-02 11:26:36 GMT 34.062469 -10.463693 37,025 205 480 0
2022-12-02 11:26:26 GMT 34.083389 -10.451978 37,025 206 480 0
2022-12-02 11:26:16 GMT 34.103889 -10.440445 37,025 206 478 64
2022-12-02 11:26:06 GMT 34.123955 -10.429058 37,025 206 479 64
2022-12-02 11:25:52 GMT 34.151978 -10.413151 37,025 206 478 0
2022-12-02 11:25:44 GMT 34.166840 -10.404781 37,025 206 478 0
2022-12-02 11:25:35 GMT 34.186020 -10.393851 37,025 206 478 0
2022-12-02 11:25:25 GMT 34.206024 -10.382360 37,025 206 478 0
2022-12-02 11:25:17 GMT 34.220829 -10.373898 37,025 206 477 0
2022-12-02 11:25:12 GMT 34.232002 -10.367546 37,025 206 477 0
2022-12-02 11:25:03 GMT 34.250061 -10.357305 37,025 206 478 64
2022-12-02 11:24:53 GMT 34.270111 -10.345982 37,025 206 478 0
2022-12-02 11:24:43 GMT 34.289383 -10.335164 37,025 205 478 0
2022-12-02 11:24:33 GMT 34.309883 -10.323715 37,025 205 478 0
2022-12-02 11:24:23 GMT 34.329948 -10.312500 37,025 205 478 0
2022-12-02 11:24:12 GMT 34.350803 -10.300713 37,025 206 478 0
2022-12-02 11:24:03 GMT 34.370029 -10.289898 37,025 205 477 0
2022-12-02 11:23:53 GMT 34.390457 -10.278439 37,025 205 477 0
2022-12-02 11:23:42 GMT 34.411331 -10.266780 37,025 205 477 0
2022-12-02 11:23:32 GMT 34.431759 -10.255337 37,025 205 476 0
2022-12-02 11:23:22 GMT 34.452118 -10.243854 37,025 206 476 0
2022-12-02 11:23:16 GMT 34.462902 -10.237770 37,025 206 476 0
2022-12-02 11:23:12 GMT 34.472492 -10.232391 37,025 206 475 0
2022-12-02 11:23:08 GMT 34.479706 -10.228329 37,025 206 475 0
2022-12-02 11:23:02 GMT 34.492859 -10.220873 37,025 206 475 0
2022-12-02 11:22:58 GMT 34.499630 -10.217056 37,025 206 475 0
2022-12-02 11:22:49 GMT 34.518402 -10.206467 37,025 206 475 64
2022-12-02 11:22:39 GMT 34.537895 -10.195427 37,025 206 475 64
2022-12-02 11:22:29 GMT 34.558182 -10.183878 37,025 206 475 0
2022-12-02 11:22:18 GMT 34.578873 -10.172107 37,025 206 474 64
2022-12-02 11:22:14 GMT 34.587986 -10.166874 37,025 206 474 0
2022-12-02 11:22:09 GMT 34.598740 -10.160728 37,025 206 474 0
2022-12-02 11:22:03 GMT 34.609447 -10.154629 37,025 206 474 0
2022-12-02 11:21:59 GMT 34.617783 -10.149854 37,025 206 474 0
2022-12-02 11:21:51 GMT 34.632889 -10.141222 37,025 206 474 0
2022-12-02 11:21:48 GMT 34.639252 -10.137578 37,025 206 474 0
2022-12-02 11:21:41 GMT 34.653950 -10.129166 37,025 206 474 0
2022-12-02 11:21:38 GMT 34.658699 -10.126476 37,025 206 474 0
2022-12-02 11:21:31 GMT 34.673401 -10.118072 37,025 206 474 64
2022-12-02 11:21:28 GMT 34.678577 -10.115089 37,025 206 474 0
2022-12-02 11:21:24 GMT 34.687683 -10.109888 37,025 206 474 64
2022-12-02 11:21:19 GMT 34.695648 -10.105348 37,025 206 474 0
2022-12-02 11:21:13 GMT 34.708744 -10.097809 37,025 206 475 0
2022-12-02 11:21:09 GMT 34.716248 -10.093465 37,025 206 475 0
2022-12-02 11:21:03 GMT 34.728577 -10.086422 37,025 206 475 0
2022-12-02 11:20:58 GMT 34.738117 -10.080929 37,025 206 474 0
2022-12-02 11:20:53 GMT 34.749195 -10.074520 37,025 206 474 0
2022-12-02 11:20:48 GMT 34.758362 -10.069306 37,025 206 474 0
2022-12-02 11:20:43 GMT 34.769485 -10.062916 37,025 206 475 0
2022-12-02 11:20:37 GMT 34.779007 -10.057479 37,025 206 475 0
2022-12-02 11:20:28 GMT 34.798096 -10.046549 37,025 206 474 64
2022-12-02 11:20:17 GMT 34.819164 -10.034466 37,025 206 475 64
2022-12-02 11:20:07 GMT 34.839882 -10.022621 37,025 206 475 0
2022-12-02 11:19:58 GMT 34.858223 -10.012150 37,025 206 476 64
2022-12-02 11:19:47 GMT 34.879776 -9.999847 37,025 206 476 0
2022-12-02 11:19:37 GMT 34.900494 -9.987946 37,025 206 476 0
2022-12-02 11:19:32 GMT 34.910084 -9.982452 37,025 206 476 0
2022-12-02 11:19:27 GMT 34.920090 -9.976730 37,025 206 477 0
2022-12-02 11:19:17 GMT 34.940060 -9.965286 37,025 206 477 64
2022-12-02 11:19:06 GMT 34.962502 -9.952469 37,025 206 478 0
2022-12-02 11:18:56 GMT 34.982563 -9.940968 37,025 206 479 0
2022-12-02 11:18:45 GMT 35.003418 -9.929066 37,025 206 479 0
2022-12-02 11:18:36 GMT 35.022308 -9.918244 37,025 206 479 0
2022-12-02 11:18:32 GMT 35.029953 -9.913902 37,025 206 479 0
2022-12-02 11:18:25 GMT 35.060898 -9.896103 37,025 206 480 0
2022-12-02 11:18:17 GMT 35.060898 -9.896103 37,025 206 480 0
2022-12-02 11:18:15 GMT 35.064926 -9.893805 37,025 206 481 0
2022-12-02 11:18:07 GMT 35.080605 -9.884777 37,025 206 481 0
2022-12-02 11:18:05 GMT 35.084652 -9.882431 37,025 206 481 0
2022-12-02 11:18:02 GMT 35.091869 -9.878254 37,025 206 481 0
2022-12-02 11:17:57 GMT 35.100712 -9.873104 37,025 206 481 0
2022-12-02 11:17:54 GMT 35.107590 -9.869142 37,025 206 482 0
2022-12-02 11:17:47 GMT 35.122055 -9.860734 37,025 206 482 0
2022-12-02 11:17:44 GMT 35.143402 -9.848328 37,025 206 482 0
2022-12-02 11:17:36 GMT 35.143402 -9.848328 37,025 206 482 0
2022-12-02 11:17:34 GMT 35.146225 -9.846665 37,025 206 482 0
2022-12-02 11:17:30 GMT 35.156296 -9.840832 37,025 206 483 0
2022-12-02 11:17:27 GMT 35.161930 -9.837513 37,025 206 483 0
2022-12-02 11:17:24 GMT 35.168793 -9.833548 37,025 206 483 0
2022-12-02 11:17:14 GMT 35.188156 -9.822282 37,025 206 483 0
2022-12-02 11:17:11 GMT 35.194611 -9.818526 37,025 206 483 0
2022-12-02 11:17:06 GMT 35.202713 -9.813874 37,025 206 483 0
2022-12-02 11:17:02 GMT 35.210815 -9.809165 37,025 206 483 64
2022-12-02 11:17:00 GMT 35.216068 -9.806156 37,025 206 483 64
2022-12-02 11:16:55 GMT 35.224121 -9.801464 37,025 206 483 64
2022-12-02 11:16:52 GMT 35.230225 -9.797916 37,025 206 483 64
2022-12-02 11:16:46 GMT 35.243584 -9.790162 37,025 206 483 0
2022-12-02 11:16:43 GMT 35.250053 -9.786422 37,025 206 483 0
2022-12-02 11:16:39 GMT 35.264191 -9.778175 37,025 206 484 0
2022-12-02 11:16:36 GMT 35.264191 -9.778175 37,025 206 484 0
2022-12-02 11:16:33 GMT 35.270302 -9.774676 37,025 206 484 0
2022-12-02 11:16:31 GMT 35.273941 -9.772568 37,025 206 484 0
2022-12-02 11:16:26 GMT 35.284874 -9.766203 37,025 206 484 0
2022-12-02 11:16:22 GMT 35.291748 -9.762211 37,025 206 484 0
2022-12-02 11:16:19 GMT 35.298248 -9.758434 37,025 206 484 0
2022-12-02 11:16:16 GMT 35.305527 -9.754200 37,025 206 484 0
2022-12-02 11:16:13 GMT 35.311203 -9.750938 37,025 206 484 0
2022-12-02 11:16:10 GMT 35.318111 -9.746918 37,025 206 484 0
2022-12-02 11:16:05 GMT 35.328232 -9.741039 37,025 206 484 0
2022-12-02 11:16:02 GMT 35.332729 -9.738445 37,025 206 484 64
2022-12-02 11:15:59 GMT 35.338409 -9.735172 37,025 206 485 64
2022-12-02 11:15:56 GMT 35.346909 -9.730225 37,025 206 485 64
2022-12-02 11:15:52 GMT 35.352982 -9.726699 37,025 206 485 0
2022-12-02 11:15:50 GMT 35.357029 -9.724303 37,025 206 485 0
2022-12-02 11:15:44 GMT 35.368011 -9.717922 37,025 206 486 64
2022-12-02 11:15:42 GMT 35.374069 -9.714427 37,025 206 486 0
2022-12-02 11:15:35 GMT 35.387104 -9.706830 37,025 206 486 0
2022-12-02 11:15:33 GMT 35.396439 -9.701385 37,025 206 486 0
2022-12-02 11:15:25 GMT 35.408192 -9.694558 37,025 206 486 0
2022-12-02 11:15:20 GMT 35.420013 -9.687710 37,025 206 487 0
2022-12-02 11:15:14 GMT 35.430588 -9.681587 37,025 206 486 0
2022-12-02 11:15:11 GMT 35.435844 -9.678488 37,025 206 487 0
2022-12-02 11:15:08 GMT 35.443199 -9.674222 37,025 206 487 0
2022-12-02 11:15:05 GMT 35.449265 -9.670658 37,025 206 487 0
2022-12-02 11:15:00 GMT 35.458652 -9.665222 37,025 206 487 0
2022-12-02 11:14:55 GMT 35.469635 -9.658871 37,025 206 487 0
2022-12-02 11:14:50 GMT 35.478607 -9.653664 37,025 206 487 0
2022-12-02 11:14:43 GMT 35.494453 -9.644360 37,025 206 487 64
2022-12-02 11:14:40 GMT 35.500969 -9.640561 37,025 206 486 64
2022-12-02 11:14:35 GMT 35.511154 -9.634609 37,025 206 487 0
2022-12-02 11:14:28 GMT 35.524155 -9.626999 37,025 206 487 0
2022-12-02 11:14:25 GMT 35.531879 -9.622504 37,025 206 487 0
2022-12-02 11:14:20 GMT 35.541275 -9.617043 37,025 206 487 64
2022-12-02 11:14:14 GMT 35.552269 -9.610641 37,025 206 488 64
2022-12-02 11:14:12 GMT 35.557159 -9.607778 37,025 206 488 64
2022-12-02 11:14:07 GMT 35.566544 -9.602337 37,025 206 488 64
2022-12-02 11:14:03 GMT 35.576340 -9.596672 37,025 206 488 0
2022-12-02 11:13:59 GMT 35.582840 -9.592896 37,025 206 488 0
2022-12-02 11:13:53 GMT 35.596756 -9.584827 37,025 206 488 0
2022-12-02 11:13:48 GMT 35.604904 -9.580078 37,025 206 488 0
2022-12-02 11:13:43 GMT 35.617535 -9.572657 37,025 206 488 0
2022-12-02 11:13:39 GMT 35.626522 -9.567456 37,025 206 488 0
2022-12-02 11:13:35 GMT 35.631821 -9.564342 37,025 206 488 0
2022-12-02 11:13:32 GMT 35.638367 -9.560509 37,025 206 488 0
2022-12-02 11:13:27 GMT 35.650215 -9.553547 37,025 206 489 64
2022-12-02 11:13:23 GMT 35.655487 -9.550438 37,025 206 489 64
2022-12-02 11:13:21 GMT 35.661621 -9.546827 37,025 206 488 64
2022-12-02 11:13:17 GMT 35.670181 -9.541798 37,025 206 489 64
2022-12-02 11:13:13 GMT 35.685699 -9.532642 37,025 206 490 64
2022-12-02 11:13:09 GMT 35.685699 -9.532642 37,025 206 490 64
2022-12-02 11:13:03 GMT 35.698399 -9.525205 37,025 206 490 0
2022-12-02 11:12:57 GMT 35.710281 -9.518223 37,025 206 491 0
2022-12-02 11:12:53 GMT 35.720509 -9.512232 37,025 206 491 0
2022-12-02 11:12:48 GMT 35.727863 -9.507907 37,025 206 490 0
2022-12-02 11:12:44 GMT 35.737289 -9.502373 37,025 206 490 0
2022-12-02 11:12:38 GMT 35.748779 -9.495564 37,025 206 490 64
2022-12-02 11:12:34 GMT 35.758575 -9.489784 37,025 206 490 64
2022-12-02 11:12:32 GMT 35.761429 -9.488097 37,025 206 490 64
2022-12-02 11:12:28 GMT 35.769623 -9.483246 37,025 206 491 0
2022-12-02 11:12:23 GMT 35.779907 -9.477139 37,025 206 491 0
2022-12-02 11:12:21 GMT 35.782799 -9.475474 37,025 206 491 0
2022-12-02 11:12:16 GMT 35.795879 -9.467644 37,025 206 491 0
2022-12-02 11:12:11 GMT 35.804070 -9.462793 37,025 206 491 0
2022-12-02 11:12:06 GMT 35.814331 -9.456711 37,025 206 491 0
2022-12-02 11:12:01 GMT 35.826229 -9.449703 37,025 206 492 0
2022-12-02 11:11:55 GMT 35.836487 -9.443607 37,025 206 492 0
2022-12-02 11:11:51 GMT 35.844727 -9.438801 37,025 206 492 64
2022-12-02 11:11:47 GMT 35.853325 -9.433691 37,025 206 493 0
2022-12-02 11:11:43 GMT 35.861984 -9.428616 37,025 206 493 0
2022-12-02 11:11:40 GMT 35.867336 -9.425451 37,025 206 493 0
2022-12-02 11:11:36 GMT 35.876411 -9.420134 37,025 206 493 0
2022-12-02 11:11:33 GMT 35.882584 -9.416542 37,025 206 493 0
2022-12-02 11:11:30 GMT 35.890869 -9.411678 37,025 206 493 0
2022-12-02 11:11:26 GMT 35.895813 -9.408817 37,025 206 493 0
2022-12-02 11:11:23 GMT 35.903229 -9.404469 37,025 206 493 0
2022-12-02 11:11:19 GMT 35.910255 -9.400382 37,025 206 493 0
2022-12-02 11:11:15 GMT 35.918930 -9.395313 37,025 206 494 64
2022-12-02 11:11:12 GMT 35.924744 -9.391880 37,025 206 494 0
2022-12-02 11:11:10 GMT 35.930088 -9.388752 37,025 206 494 0
2022-12-02 11:11:06 GMT 35.938374 -9.383960 37,025 206 494 0
2022-12-02 11:11:02 GMT 35.945824 -9.379636 37,025 206 494 0
2022-12-02 11:10:59 GMT 35.952435 -9.375779 37,025 206 495 64
2022-12-02 11:10:55 GMT 35.962784 -9.369736 37,025 206 495 64
2022-12-02 11:10:52 GMT 35.969006 -9.366137 37,025 206 495 64
2022-12-02 11:10:49 GMT 35.973148 -9.363741 37,025 206 495 0
2022-12-02 11:10:46 GMT 35.979805 -9.359884 37,025 206 495 0
2022-12-02 11:10:42 GMT 35.996380 -9.350242 37,025 206 495 0
2022-12-02 11:10:38 GMT 35.996380 -9.350242 37,025 206 495 64
2022-12-02 11:10:35 GMT 36.008808 -9.342996 37,025 206 495 0
2022-12-02 11:10:32 GMT 36.008808 -9.342996 37,025 206 495 0
2022-12-02 11:10:30 GMT 36.019608 -9.336684 37,025 206 496 0
2022-12-02 11:10:27 GMT 36.019608 -9.336684 37,025 206 496 -64
2022-12-02 11:10:23 GMT 36.028290 -9.331570 37,025 206 495 -64
2022-12-02 11:10:21 GMT 36.030762 -9.330139 37,025 207 495 64
2022-12-02 11:10:18 GMT 36.036972 -9.326458 37,050 207 495 64
2022-12-02 11:10:12 GMT 36.050194 -9.318685 37,050 206 495 0
2022-12-02 11:10:09 GMT 36.058868 -9.313488 37,025 207 495 64
2022-12-02 11:10:05 GMT 36.065044 -9.309803 37,025 207 494 64
2022-12-02 11:10:01 GMT 36.073284 -9.304836 37,025 208 494 0
2022-12-02 11:09:58 GMT 36.079006 -9.301329 37,025 208 494 0
2022-12-02 11:09:52 GMT 36.090462 -9.294141 37,025 208 494 64
2022-12-02 11:09:50 GMT 36.094509 -9.291570 37,025 208 494 0
2022-12-02 11:09:44 GMT 36.107117 -9.283619 37,025 208 494 0
2022-12-02 11:09:41 GMT 36.114853 -9.278714 37,025 208 494 64
2022-12-02 11:09:37 GMT 36.121811 -9.274349 37,025 208 494 64
2022-12-02 11:09:34 GMT 36.128311 -9.270172 37,025 208 494 64
2022-12-02 11:09:31 GMT 36.131985 -9.267903 37,025 208 494 64
2022-12-02 11:09:28 GMT 36.141357 -9.261932 37,025 208 494 64
2022-12-02 11:09:22 GMT 36.152328 -9.254988 37,025 208 495 0
2022-12-02 11:09:20 GMT 36.157265 -9.251891 37,025 208 495 0
2022-12-02 11:09:16 GMT 36.163376 -9.248028 37,025 208 495 0
2022-12-02 11:09:12 GMT 36.173557 -9.241606 37,025 208 495 0
2022-12-02 11:09:09 GMT 36.179718 -9.237728 37,025 208 495 0
2022-12-02 11:09:06 GMT 36.183792 -9.235153 37,025 208 495 0
2022-12-02 11:09:02 GMT 36.193588 -9.228973 37,025 208 495 0
2022-12-02 11:08:56 GMT 36.204208 -9.222279 37,025 208 495 0
2022-12-02 11:08:52 GMT 36.214005 -9.216099 37,025 208 495 0
2022-12-02 11:08:46 GMT 36.225834 -9.208588 37,025 208 496 0
2022-12-02 11:08:42 GMT 36.236069 -9.202137 37,025 208 495 0
2022-12-02 11:08:36 GMT 36.246269 -9.195674 37,025 208 495 64
2022-12-02 11:08:32 GMT 36.264633 -9.183998 37,025 208 496 0
2022-12-02 11:08:24 GMT 36.269577 -9.180851 37,025 208 496 0
2022-12-02 11:08:20 GMT 36.278549 -9.175186 37,025 208 496 0
2022-12-02 11:08:15 GMT 36.287933 -9.169201 37,025 208 496 0
2022-12-02 11:08:11 GMT 36.296127 -9.164000 37,025 208 495 0
2022-12-02 11:08:08 GMT 36.304276 -9.158799 37,025 208 495 0
2022-12-02 11:08:05 GMT 36.308762 -9.155960 37,025 208 495 0
2022-12-02 11:08:01 GMT 36.317356 -9.150501 37,025 208 495 0
2022-12-02 11:07:55 GMT 36.328808 -9.143196 37,025 208 495 64
2022-12-02 11:07:51 GMT 36.340214 -9.135950 37,025 208 495 64
2022-12-02 11:07:48 GMT 36.345146 -9.132794 37,025 208 496 64
2022-12-02 11:07:43 GMT 36.353294 -9.127593 37,025 208 496 64
2022-12-02 11:07:40 GMT 36.360649 -9.122918 37,025 208 496 0
2022-12-02 11:07:38 GMT 36.367214 -9.118769 37,025 208 497 0
2022-12-02 11:07:34 GMT 36.372101 -9.115614 37,025 208 497 0
2022-12-02 11:07:30 GMT 36.380676 -9.110126 37,025 208 497 64
2022-12-02 11:07:24 GMT 36.393330 -9.102056 37,025 208 497 64
2022-12-02 11:07:20 GMT 36.402313 -9.096329 37,025 208 497 0
2022-12-02 11:07:13 GMT 36.415833 -9.087696 37,025 208 497 0
2022-12-02 11:07:10 GMT 36.421120 -9.084291 37,025 208 497 0
2022-12-02 11:07:04 GMT 36.432999 -9.076710 37,025 208 497 0
2022-12-02 11:07:00 GMT 36.441559 -9.071201 37,025 208 497 0
2022-12-02 11:06:56 GMT 36.452217 -9.064422 37,025 208 497 0
2022-12-02 11:06:53 GMT 36.455887 -9.062061 37,025 208 497 0
2022-12-02 11:06:48 GMT 36.469395 -9.053436 37,025 208 497 0
2022-12-02 11:06:44 GMT 36.475121 -9.049754 37,025 208 497 0
2022-12-02 11:06:39 GMT 36.484543 -9.043751 37,025 208 497 0
2022-12-02 11:06:36 GMT 36.493931 -9.037716 37,025 208 497 64
2022-12-02 11:06:33 GMT 36.496811 -9.035854 37,025 208 497 64
2022-12-02 11:06:29 GMT 36.505379 -9.030353 37,025 208 497 0
2022-12-02 11:06:23 GMT 36.519745 -9.021149 37,025 208 499 0
2022-12-02 11:06:19 GMT 36.525864 -9.017204 37,025 208 499 0
2022-12-02 11:06:16 GMT 36.532837 -9.012680 37,025 208 499 0
2022-12-02 11:06:13 GMT 36.538155 -9.009257 37,025 208 499 64
2022-12-02 11:06:09 GMT 36.552521 -9.000092 37,025 208 498 0
2022-12-02 11:06:06 GMT 36.552521 -9.000092 37,025 208 498 0
2022-12-02 11:06:03 GMT 36.559067 -8.995857 37,025 208 498 64
2022-12-02 11:05:58 GMT 36.569298 -8.989329 37,025 208 498 0
2022-12-02 11:05:54 GMT 36.579575 -8.982754 37,025 208 499 64
2022-12-02 11:05:48 GMT 36.587769 -8.977489 37,025 208 499 64
2022-12-02 11:05:43 GMT 36.600128 -8.969593 37,025 208 500 0
2022-12-02 11:05:39 GMT 36.609970 -8.963242 37,025 208 500 0
2022-12-02 11:05:36 GMT 36.615337 -8.959818 37,025 208 500 0
2022-12-02 11:05:32 GMT 36.621063 -8.956137 37,025 208 500 0
2022-12-02 11:05:28 GMT 36.630524 -8.950081 37,025 208 500 0
2022-12-02 11:05:25 GMT 36.640411 -8.943787 37,025 208 500 64
2022-12-02 11:05:22 GMT 36.642883 -8.942184 37,025 208 500 64
2022-12-02 11:05:18 GMT 36.652817 -8.935890 37,025 208 501 0
2022-12-02 11:05:14 GMT 36.661057 -8.930626 37,025 208 501 0
2022-12-02 11:05:11 GMT 36.665565 -8.927677 37,025 208 501 0
2022-12-02 11:05:08 GMT 36.672592 -8.923244 37,025 208 501 64
2022-12-02 11:05:05 GMT 36.679626 -8.918736 37,025 208 501 64
2022-12-02 11:05:01 GMT 36.686600 -8.914261 37,025 208 501 64
2022-12-02 11:04:58 GMT 36.694061 -8.909512 37,025 208 501 64
2022-12-02 11:04:52 GMT 36.706860 -8.901322 37,025 208 502 0
2022-12-02 11:04:47 GMT 36.715935 -8.895478 37,025 208 502 64
2022-12-02 11:04:41 GMT 36.727528 -8.888115 37,025 208 503 0
2022-12-02 11:04:38 GMT 36.736221 -8.882561 37,025 208 503 0
2022-12-02 11:04:30 GMT 36.749920 -8.873856 37,025 208 503 0
2022-12-02 11:04:27 GMT 36.756958 -8.869343 37,025 208 503 0
2022-12-02 11:04:21 GMT 36.771473 -8.860065 37,025 208 504 64
2022-12-02 11:04:15 GMT 36.784740 -8.851591 37,025 208 504 0
2022-12-02 11:04:11 GMT 36.790146 -8.848114 37,025 208 504 0
2022-12-02 11:04:08 GMT 36.797169 -8.843585 37,025 208 504 0
2022-12-02 11:04:04 GMT 36.806717 -8.837471 37,025 208 504 0
2022-12-02 11:04:00 GMT 36.812950 -8.833417 37,025 208 504 0
2022-12-02 11:03:56 GMT 36.821236 -8.828099 37,025 208 504 0
2022-12-02 11:03:52 GMT 36.829102 -8.822994 37,025 208 504 0
2022-12-02 11:03:48 GMT 36.841114 -8.815184 37,025 208 504 64
2022-12-02 11:03:40 GMT 36.856895 -8.805005 37,025 208 505 0
2022-12-02 11:03:34 GMT 36.871841 -8.795332 37,025 208 505 64
2022-12-02 11:03:28 GMT 36.880127 -8.789958 37,025 208 506 64
2022-12-02 11:03:24 GMT 36.890087 -8.783510 37,025 208 506 64
2022-12-02 11:03:21 GMT 36.900467 -8.776732 37,025 208 506 0
2022-12-02 11:03:18 GMT 36.900467 -8.776732 37,025 208 506 0
2022-12-02 11:03:16 GMT 36.904633 -8.774044 37,025 208 506 0
2022-12-02 11:03:11 GMT 36.914993 -8.767269 37,025 208 506 0
2022-12-02 11:03:08 GMT 36.920815 -8.763507 37,025 208 506 0
2022-12-02 11:03:06 GMT 36.923325 -8.761895 37,025 208 506 0
2022-12-02 11:03:03 GMT 36.932053 -8.756220 37,025 208 507 0
2022-12-02 11:03:00 GMT 36.937431 -8.752700 37,025 208 507 0
2022-12-02 11:02:57 GMT 36.945374 -8.747572 37,025 208 507 0
2022-12-02 11:02:50 GMT 36.957451 -8.739803 37,025 208 506 0
2022-12-02 11:02:47 GMT 36.964508 -8.735183 37,025 208 506 0
2022-12-02 11:02:45 GMT 36.968250 -8.732758 37,025 208 506 0
2022-12-02 11:02:42 GMT 36.976582 -8.727384 37,025 208 506 0
2022-12-02 11:02:38 GMT 36.983238 -8.723085 37,025 208 506 64
2022-12-02 11:02:33 GMT 36.992409 -8.717174 37,025 208 507 64
2022-12-02 11:02:30 GMT 36.999905 -8.712337 37,025 208 508 0
2022-12-02 11:02:26 GMT 37.006989 -8.707775 37,025 208 507 64
2022-12-02 11:02:24 GMT 37.012428 -8.704277 37,025 208 507 64
2022-12-02 11:02:19 GMT 37.022434 -8.697828 37,025 208 507 0
2022-12-02 11:02:16 GMT 37.031204 -8.692172 37,025 208 507 0
2022-12-02 11:02:09 GMT 37.043701 -8.684108 37,025 208 507 64
2022-12-02 11:02:06 GMT 37.048321 -8.681170 37,025 208 507 64
2022-12-02 11:02:04 GMT 37.052509 -8.678483 37,025 208 507 0
2022-12-02 11:02:00 GMT 37.062927 -8.671719 37,025 208 508 0
2022-12-02 11:01:57 GMT 37.068741 -8.667921 37,025 208 508 0
2022-12-02 11:01:54 GMT 37.075039 -8.663854 37,025 208 508 0
2022-12-02 11:01:50 GMT 37.083374 -8.658480 37,025 208 508 0
2022-12-02 11:01:45 GMT 37.094219 -8.651435 37,025 208 508 0
2022-12-02 11:01:42 GMT 37.100464 -8.647351 37,025 208 508 0
2022-12-02 11:01:37 GMT 37.111313 -8.640280 37,025 208 508 0
2022-12-02 11:01:34 GMT 37.116302 -8.637007 37,025 208 508 0
2022-12-02 11:01:31 GMT 37.124245 -8.631851 37,025 208 508 0
2022-12-02 11:01:28 GMT 37.129227 -8.628626 37,025 208 508 0
2022-12-02 11:01:25 GMT 37.135094 -8.624805 37,025 208 508 0
2022-12-02 11:01:23 GMT 37.138870 -8.622339 37,025 208 509 0
2022-12-02 11:01:18 GMT 37.159698 -8.608723 37,025 208 509 0
2022-12-02 11:01:14 GMT 37.159698 -8.608723 37,025 208 509 64
2022-12-02 11:01:09 GMT 37.168854 -8.602704 37,025 208 508 64
2022-12-02 11:01:06 GMT 37.181786 -8.594234 37,025 208 508 64
2022-12-02 11:01:03 GMT 37.181786 -8.594234 37,025 208 509 64
2022-12-02 11:00:59 GMT 37.189728 -8.589030 37,025 208 508 0
2022-12-02 11:00:56 GMT 37.197613 -8.583845 37,025 208 509 0
2022-12-02 11:00:53 GMT 37.201801 -8.581098 37,025 208 509 0
2022-12-02 11:00:50 GMT 37.208908 -8.576465 37,025 208 509 0
2022-12-02 11:00:47 GMT 37.214722 -8.572667 37,025 208 509 0
2022-12-02 11:00:45 GMT 37.218468 -8.570172 37,025 208 508 0
2022-12-02 11:00:43 GMT 37.224335 -8.566410 37,025 208 508 0
2022-12-02 11:00:40 GMT 37.230991 -8.562052 37,025 208 508 64
2022-12-02 11:00:37 GMT 37.235180 -8.559305 37,025 208 508 0
2022-12-02 11:00:34 GMT 37.241047 -8.555484 37,025 208 508 64
2022-12-02 11:00:31 GMT 37.247704 -8.551185 37,025 208 508 64
2022-12-02 11:00:28 GMT 37.256081 -8.545751 37,025 208 508 0
2022-12-02 11:00:25 GMT 37.266975 -8.538706 37,025 208 508 0
2022-12-02 11:00:22 GMT 37.266975 -8.538706 37,025 208 508 0
2022-12-02 11:00:19 GMT 37.276146 -8.532794 37,025 208 508 0
2022-12-02 11:00:15 GMT 37.289555 -8.524077 37,025 208 508 0
2022-12-02 11:00:12 GMT 37.289555 -8.524077 37,025 208 508 0
2022-12-02 11:00:07 GMT 37.298355 -8.518437 37,025 208 508 0
2022-12-02 11:00:04 GMT 37.306267 -8.513270 37,025 208 508 0
2022-12-02 11:00:01 GMT 37.310455 -8.510583 37,025 208 508 0
2022-12-02 10:59:58 GMT 37.317158 -8.506224 37,025 208 508 0
2022-12-02 10:59:55 GMT 37.322571 -8.502717 37,025 208 508 0
2022-12-02 10:59:52 GMT 37.329254 -8.498392 37,025 208 508 64
2022-12-02 10:59:47 GMT 37.338852 -8.492133 37,025 208 508 0
2022-12-02 10:59:42 GMT 37.350536 -8.484490 37,025 208 508 0
2022-12-02 10:59:39 GMT 37.358032 -8.479594 37,025 208 508 64
2022-12-02 10:59:35 GMT 37.365143 -8.474900 37,025 208 508 64
2022-12-02 10:59:32 GMT 37.371346 -8.470817 37,025 208 508 0
2022-12-02 10:59:29 GMT 37.377594 -8.466719 37,025 208 508 0
2022-12-02 10:59:26 GMT 37.382629 -8.463446 37,025 208 508 0
2022-12-02 10:59:23 GMT 37.390915 -8.457953 37,025 208 508 0
2022-12-02 10:59:20 GMT 37.399246 -8.452460 37,025 208 508 0
2022-12-02 10:59:15 GMT 37.406708 -8.447551 37,025 208 507 0
2022-12-02 10:59:13 GMT 37.412567 -8.443694 37,025 208 507 64
2022-12-02 10:59:10 GMT 37.422546 -8.437091 37,025 208 507 64
2022-12-02 10:59:07 GMT 37.422546 -8.437091 37,025 208 507 64
2022-12-02 10:59:04 GMT 37.428791 -8.433022 37,025 208 507 64
2022-12-02 10:59:01 GMT 37.434608 -8.429141 37,025 208 507 64
2022-12-02 10:58:58 GMT 37.442898 -8.423648 37,025 208 507 64
2022-12-02 10:58:55 GMT 37.449142 -8.419560 37,025 208 507 0
2022-12-02 10:58:51 GMT 37.456604 -8.414592 37,025 208 506 64
2022-12-02 10:58:48 GMT 37.464890 -8.409099 37,025 208 506 64
2022-12-02 10:58:45 GMT 37.470268 -8.405496 37,025 208 506 64
2022-12-02 10:58:41 GMT 37.477764 -8.400541 37,025 208 507 64
2022-12-02 10:58:38 GMT 37.485626 -8.395366 37,025 208 507 0
2022-12-02 10:58:34 GMT 37.491032 -8.391763 37,025 208 507 0
2022-12-02 10:58:32 GMT 37.503067 -8.383796 37,025 208 507 0
2022-12-02 10:58:29 GMT 37.503067 -8.383796 37,025 208 507 0
2022-12-02 10:58:26 GMT 37.508881 -8.379997 37,025 208 507 0
2022-12-02 10:58:23 GMT 37.512222 -8.377776 37,025 208 506 0
2022-12-02 10:58:20 GMT 37.528412 -8.367164 37,025 208 506 64
2022-12-02 10:58:17 GMT 37.528412 -8.367164 37,025 208 506 64
2022-12-02 10:58:14 GMT 37.532959 -8.364160 37,025 208 506 64
2022-12-02 10:58:10 GMT 37.541679 -8.358386 37,025 208 506 0
2022-12-02 10:58:07 GMT 37.547058 -8.354810 37,025 208 506 0
2022-12-02 10:58:04 GMT 37.553272 -8.350744 37,025 208 506 0
2022-12-02 10:58:01 GMT 37.560719 -8.345788 37,025 208 506 64
2022-12-02 10:57:58 GMT 37.566971 -8.341662 37,025 208 505 64
2022-12-02 10:57:54 GMT 37.573986 -8.337011 37,025 208 505 64
2022-12-02 10:57:51 GMT 37.581024 -8.332370 37,025 208 505 64
2022-12-02 10:57:48 GMT 37.588047 -8.327696 37,025 208 505 0
2022-12-02 10:57:44 GMT 37.595078 -8.323020 37,025 208 505 0
2022-12-02 10:57:40 GMT 37.612858 -8.311217 37,025 208 505 0
2022-12-02 10:57:37 GMT 37.612858 -8.311217 37,025 208 505 0
2022-12-02 10:57:34 GMT 37.616161 -8.309067 37,025 208 505 0
2022-12-02 10:57:29 GMT 37.626080 -8.302500 37,025 208 505 0
2022-12-02 10:57:24 GMT 37.637283 -8.295145 37,025 208 505 0
2022-12-02 10:57:21 GMT 37.644279 -8.290498 37,025 208 504 0
2022-12-02 10:57:17 GMT 37.652939 -8.284743 37,025 208 504 0
2022-12-02 10:57:14 GMT 37.658340 -8.281184 37,025 208 504 0
2022-12-02 10:57:11 GMT 37.664951 -8.276825 37,025 208 504 0
2022-12-02 10:57:07 GMT 37.672760 -8.271595 37,025 208 504 0
2022-12-02 10:57:03 GMT 37.678963 -8.267510 37,025 208 503 64
2022-12-02 10:56:59 GMT 37.688877 -8.260943 37,025 208 504 64
2022-12-02 10:56:56 GMT 37.694649 -8.257121 37,025 208 504 64
2022-12-02 10:56:53 GMT 37.699585 -8.253837 37,025 208 504 0
2022-12-02 10:56:49 GMT 37.707458 -8.248687 37,025 208 504 0
2022-12-02 10:56:46 GMT 37.715698 -8.243194 37,025 208 504 64
2022-12-02 10:56:43 GMT 37.720207 -8.240164 37,025 208 504 64
2022-12-02 10:56:38 GMT 37.731754 -8.232521 37,025 208 504 0
2022-12-02 10:56:33 GMT 37.741241 -8.226188 37,025 208 503 0
2022-12-02 10:56:29 GMT 37.751537 -8.219326 37,025 209 504 0
2022-12-02 10:56:26 GMT 37.757721 -8.215202 37,025 209 504 0
2022-12-02 10:56:23 GMT 37.762665 -8.211871 37,025 209 504 64
2022-12-02 10:56:19 GMT 37.770485 -8.206608 37,025 209 504 0
2022-12-02 10:56:16 GMT 37.778320 -8.201352 37,025 209 504 0
2022-12-02 10:56:13 GMT 37.783264 -8.198080 37,025 209 504 0
2022-12-02 10:56:10 GMT 37.790680 -8.193113 37,025 208 504 0
2022-12-02 10:56:06 GMT 37.800976 -8.186247 37,025 208 505 0
2022-12-02 10:56:03 GMT 37.803864 -8.184347 37,025 208 505 64
2022-12-02 10:56:00 GMT 37.815445 -8.176692 37,025 208 504 64
2022-12-02 10:55:57 GMT 37.815445 -8.176692 37,025 208 504 64
2022-12-02 10:55:53 GMT 37.824112 -8.170902 37,025 208 504 64
2022-12-02 10:55:48 GMT 37.834488 -8.164069 37,025 208 504 0
2022-12-02 10:55:45 GMT 37.840256 -8.160271 37,025 208 504 0
2022-12-02 10:55:43 GMT 37.845245 -8.156998 37,025 208 504 0
2022-12-02 10:55:37 GMT 37.857212 -8.149109 37,025 208 505 0
2022-12-02 10:55:33 GMT 37.866337 -8.143078 37,025 208 505 0
2022-12-02 10:55:29 GMT 37.875458 -8.137048 37,025 208 505 0
2022-12-02 10:55:26 GMT 37.879601 -8.134361 37,025 208 505 64
2022-12-02 10:55:23 GMT 37.887051 -8.129465 37,025 208 505 64
2022-12-02 10:55:16 GMT 37.899479 -8.121225 37,025 208 505 64
2022-12-02 10:55:12 GMT 37.909012 -8.114923 37,025 208 505 64
2022-12-02 10:55:09 GMT 37.918121 -8.108904 37,025 208 505 0
2022-12-02 10:55:05 GMT 37.925179 -8.104268 37,025 208 505 0
2022-12-02 10:55:02 GMT 37.930111 -8.100924 37,025 208 505 0
2022-12-02 10:54:58 GMT 37.939636 -8.094586 37,025 208 505 0
2022-12-02 10:54:55 GMT 37.947475 -8.089341 37,025 208 505 -64
2022-12-02 10:54:52 GMT 37.950394 -8.087398 37,025 208 505 -64
2022-12-02 10:54:47 GMT 37.961929 -8.079685 37,025 208 504 0
2022-12-02 10:54:44 GMT 37.967308 -8.076086 37,025 208 504 0
2022-12-02 10:54:42 GMT 37.971863 -8.073081 37,025 208 504 0
2022-12-02 10:54:35 GMT 37.985870 -8.063673 37,025 208 504 64
2022-12-02 10:54:32 GMT 37.992912 -8.059009 37,025 208 504 64
2022-12-02 10:54:24 GMT 38.008598 -8.048500 37,025 208 505 0
2022-12-02 10:54:22 GMT 38.013153 -8.045498 37,025 208 505 0
2022-12-02 10:54:15 GMT 38.027206 -8.036148 37,025 208 505 0
2022-12-02 10:54:11 GMT 38.035042 -8.030886 37,025 208 505 0
2022-12-02 10:54:05 GMT 38.048309 -8.022109 37,025 208 505 64
2022-12-02 10:54:01 GMT 38.056961 -8.016280 37,025 208 505 0
2022-12-02 10:53:57 GMT 38.063995 -8.011601 37,025 208 505 0
2022-12-02 10:53:54 GMT 38.070606 -8.007182 37,025 208 505 0
2022-12-02 10:53:51 GMT 38.077217 -8.002764 37,025 208 505 -64
2022-12-02 10:53:47 GMT 38.085503 -7.997211 37,025 208 505 0
2022-12-02 10:53:44 GMT 38.090836 -7.993606 37,025 208 505 0
2022-12-02 10:53:41 GMT 38.098679 -7.988374 37,025 208 505 0
2022-12-02 10:53:36 GMT 38.110268 -7.980612 37,025 208 505 0
2022-12-02 10:53:32 GMT 38.123062 -7.972042 37,025 208 505 0
2022-12-02 10:53:29 GMT 38.123062 -7.972042 37,025 208 505 64
2022-12-02 10:53:26 GMT 38.128876 -7.968127 37,025 208 505 64
2022-12-02 10:53:23 GMT 38.135468 -7.963685 37,025 209 505 64
2022-12-02 10:53:20 GMT 38.141235 -7.959828 37,025 209 505 64
2022-12-02 10:53:17 GMT 38.149521 -7.954218 37,025 209 506 0
2022-12-02 10:53:13 GMT 38.153641 -7.951413 37,025 209 505 0
2022-12-02 10:53:10 GMT 38.162704 -7.945219 37,025 209 505 0
2022-12-02 10:53:04 GMT 38.173813 -7.937622 37,025 209 506 0
2022-12-02 10:53:01 GMT 38.179184 -7.933940 37,025 209 506 0
2022-12-02 10:52:59 GMT 38.184521 -7.930278 37,025 209 506 0
2022-12-02 10:52:54 GMT 38.196064 -7.922396 37,025 209 506 0
2022-12-02 10:52:51 GMT 38.200607 -7.919273 37,025 209 506 0
2022-12-02 10:52:49 GMT 38.204727 -7.916468 37,025 209 506 0
2022-12-02 10:52:44 GMT 38.215057 -7.909440 37,025 209 506 -64
2022-12-02 10:52:41 GMT 38.221668 -7.904902 37,025 209 506 -64
2022-12-02 10:52:38 GMT 38.226196 -7.901800 37,025 209 507 -64
2022-12-02 10:52:34 GMT 38.236130 -7.895079 37,025 209 506 0
2022-12-02 10:52:31 GMT 38.242336 -7.890870 37,025 208 507 64
2022-12-02 10:52:28 GMT 38.248947 -7.886392 37,025 208 507 64
2022-12-02 10:52:23 GMT 38.257233 -7.880839 37,025 208 507 64
2022-12-02 10:52:20 GMT 38.264282 -7.876087 37,025 208 507 0
2022-12-02 10:52:17 GMT 38.270500 -7.871883 37,025 208 507 0
2022-12-02 10:52:14 GMT 38.277557 -7.867088 37,025 209 507 0
2022-12-02 10:52:11 GMT 38.284195 -7.862646 37,025 209 507 0
2022-12-02 10:52:07 GMT 38.290833 -7.858147 37,025 208 507 0
2022-12-02 10:52:02 GMT 38.302017 -7.850627 37,025 208 508 0
2022-12-02 10:51:58 GMT 38.311569 -7.844180 37,025 208 508 64
2022-12-02 10:51:53 GMT 38.320724 -7.838044 37,025 208 508 64
2022-12-02 10:51:50 GMT 38.326084 -7.834386 37,025 209 508 64
2022-12-02 10:51:46 GMT 38.334419 -7.828774 37,025 208 508 0
2022-12-02 10:51:43 GMT 38.343540 -7.822624 37,025 208 508 64
2022-12-02 10:51:40 GMT 38.347687 -7.819818 37,025 208 508 64
2022-12-02 10:51:37 GMT 38.353912 -7.815662 37,025 208 508 64
2022-12-02 10:51:34 GMT 38.358486 -7.812593 37,025 208 508 64
2022-12-02 10:51:30 GMT 38.368446 -7.805846 37,025 208 507 64
2022-12-02 10:51:27 GMT 38.375103 -7.801427 37,025 208 506 64
2022-12-02 10:51:23 GMT 38.383804 -7.795559 37,025 208 506 64
2022-12-02 10:51:20 GMT 38.389618 -7.791644 37,025 208 506 64
2022-12-02 10:51:15 GMT 38.400757 -7.784112 37,025 208 505 0
2022-12-02 10:51:10 GMT 38.410717 -7.777484 37,025 208 505 0
2022-12-02 10:51:07 GMT 38.415699 -7.774170 37,025 208 505 64
2022-12-02 10:51:04 GMT 38.422310 -7.769714 37,025 208 505 64
2022-12-02 10:51:00 GMT 38.431435 -7.763672 37,025 208 505 64
2022-12-02 10:50:56 GMT 38.439285 -7.758378 37,025 208 505 64
2022-12-02 10:50:52 GMT 38.447571 -7.752885 37,025 208 504 0
2022-12-02 10:50:49 GMT 38.452515 -7.749541 37,025 208 504 0
2022-12-02 10:50:46 GMT 38.459930 -7.744585 37,025 208 504 0
2022-12-02 10:50:42 GMT 38.470211 -7.737671 37,025 208 502 0
2022-12-02 10:50:39 GMT 38.473114 -7.735748 37,025 208 503 0
2022-12-02 10:50:36 GMT 38.480919 -7.730469 37,025 208 502 64
2022-12-02 10:50:31 GMT 38.491150 -7.723508 37,025 209 501 0
2022-12-02 10:50:28 GMT 38.495674 -7.720459 37,025 209 501 0
2022-12-02 10:50:24 GMT 38.505497 -7.713806 37,025 209 501 -64
2022-12-02 10:50:19 GMT 38.514481 -7.707642 37,025 209 501 0
2022-12-02 10:50:13 GMT 38.527561 -7.698792 37,025 209 501 0
2022-12-02 10:50:09 GMT 38.535755 -7.693176 37,025 209 501 0
2022-12-02 10:50:04 GMT 38.544342 -7.687325 37,025 209 501 0
2022-12-02 10:49:59 GMT 38.555786 -7.679563 37,025 209 501 0
2022-12-02 10:49:54 GMT 38.566013 -7.672607 37,025 209 501 0
2022-12-02 10:49:51 GMT 38.572998 -7.667860 37,025 209 501 0
2022-12-02 10:49:48 GMT 38.577469 -7.664795 37,025 209 501 0
2022-12-02 10:49:42 GMT 38.590595 -7.655884 37,025 209 501 0
2022-12-02 10:49:38 GMT 38.598358 -7.650604 37,025 209 502 0
2022-12-02 10:49:31 GMT 38.612705 -7.640808 37,025 209 502 64
2022-12-02 10:49:28 GMT 38.620064 -7.635803 37,025 209 502 0
2022-12-02 10:49:23 GMT 38.629093 -7.629639 37,025 209 502 0
2022-12-02 10:49:18 GMT 38.640152 -7.622064 37,025 209 503 0
2022-12-02 10:49:13 GMT 38.651253 -7.614502 37,025 209 503 0
2022-12-02 10:49:08 GMT 38.660706 -7.608032 37,025 209 503 0
2022-12-02 10:49:05 GMT 38.666428 -7.604091 37,025 209 503 -64
2022-12-02 10:49:02 GMT 38.672195 -7.600210 37,025 209 503 0
2022-12-02 10:48:57 GMT 38.682442 -7.593140 37,025 209 503 0
2022-12-02 10:48:53 GMT 38.698086 -7.582520 37,025 209 504 0
2022-12-02 10:48:47 GMT 38.703018 -7.579102 37,025 209 504 0
2022-12-02 10:48:41 GMT 38.714905 -7.570953 37,025 209 504 0
2022-12-02 10:48:37 GMT 38.724384 -7.564514 37,025 209 504 64
2022-12-02 10:48:29 GMT 38.740448 -7.553519 37,025 209 506 0
2022-12-02 10:48:26 GMT 38.746262 -7.549578 37,025 209 506 0
2022-12-02 10:48:21 GMT 38.757393 -7.541931 37,025 209 506 64
2022-12-02 10:48:16 GMT 38.766468 -7.535767 37,025 209 506 64
2022-12-02 10:48:10 GMT 38.778900 -7.527283 37,025 209 506 0
2022-12-02 10:48:06 GMT 38.788376 -7.520798 37,025 209 506 0
2022-12-02 10:48:00 GMT 38.800827 -7.512320 37,025 209 507 64
2022-12-02 10:47:57 GMT 38.806595 -7.508379 37,025 209 508 64
2022-12-02 10:47:55 GMT 38.810322 -7.505798 37,025 209 508 64
2022-12-02 10:47:51 GMT 38.819447 -7.499573 37,025 209 508 0
2022-12-02 10:47:48 GMT 38.824429 -7.496155 37,025 209 508 0
2022-12-02 10:47:45 GMT 38.830627 -7.491900 37,025 209 508 0
2022-12-02 10:47:40 GMT 38.841431 -7.484555 37,025 209 508 0
2022-12-02 10:47:36 GMT 38.853058 -7.476614 37,025 209 509 0
2022-12-02 10:47:30 GMT 38.862644 -7.470093 37,025 209 509 -64
2022-12-02 10:47:26 GMT 38.870094 -7.464966 37,025 209 509 0
2022-12-02 10:47:24 GMT 38.873840 -7.462404 37,025 209 509 0
2022-12-02 10:47:20 GMT 38.882172 -7.456672 37,025 209 509 0
2022-12-02 10:47:17 GMT 38.889633 -7.451537 37,025 209 510 64
2022-12-02 10:47:14 GMT 38.894623 -7.448133 37,025 209 510 64
2022-12-02 10:47:10 GMT 38.902908 -7.442401 37,025 209 510 0
2022-12-02 10:47:07 GMT 38.909153 -7.438110 37,025 209 510 0
2022-12-02 10:47:04 GMT 38.916229 -7.433266 37,025 209 510 0
2022-12-02 10:47:00 GMT 38.924141 -7.427795 37,025 209 510 0
2022-12-02 10:46:57 GMT 38.937454 -7.418640 37,025 209 510 0
2022-12-02 10:46:54 GMT 38.937454 -7.418640 37,025 209 511 64
2022-12-02 10:46:50 GMT 38.945789 -7.412903 37,025 209 512 128
2022-12-02 10:46:47 GMT 38.951248 -7.409144 37,025 209 512 64
2022-12-02 10:46:44 GMT 38.966644 -7.398499 37,025 209 512 64
2022-12-02 10:46:40 GMT 38.966644 -7.398499 37,025 209 512 0
2022-12-02 10:46:37 GMT 38.980049 -7.389282 37,025 209 512 0
2022-12-02 10:46:33 GMT 38.980049 -7.389282 37,025 209 513 0
2022-12-02 10:46:30 GMT 38.988384 -7.383484 37,025 209 514 0
2022-12-02 10:46:26 GMT 38.997555 -7.377075 37,025 209 514 0
2022-12-02 10:46:23 GMT 39.001328 -7.374513 37,025 209 514 0
2022-12-02 10:46:18 GMT 39.010914 -7.367798 37,025 209 514 64
2022-12-02 10:46:15 GMT 39.019684 -7.361676 37,025 209 514 64
2022-12-02 10:46:12 GMT 39.024323 -7.358521 37,025 209 514 64
2022-12-02 10:46:09 GMT 39.030579 -7.354153 37,025 209 514 64
2022-12-02 10:46:06 GMT 39.037262 -7.349495 37,025 209 514 64
2022-12-02 10:46:03 GMT 39.043945 -7.344838 37,025 209 514 64
2022-12-02 10:45:57 GMT 39.057747 -7.335205 37,025 209 515 0
2022-12-02 10:45:53 GMT 39.065289 -7.329956 37,025 209 515 0
2022-12-02 10:45:48 GMT 39.074066 -7.323821 37,025 209 515 0
2022-12-02 10:45:45 GMT 39.082047 -7.318237 37,025 209 515 0
2022-12-02 10:45:42 GMT 39.087074 -7.314758 37,025 209 515 0
2022-12-02 10:45:39 GMT 39.094570 -7.309448 37,025 209 515 0
2022-12-02 10:45:35 GMT 39.103786 -7.303040 37,025 209 515 0
2022-12-02 10:45:32 GMT 39.108398 -7.299818 37,025 209 515 0
2022-12-02 10:45:28 GMT 39.116356 -7.294250 37,025 209 515 -64
2022-12-02 10:45:24 GMT 39.124329 -7.288653 37,025 209 515 0
2022-12-02 10:45:21 GMT 39.130600 -7.284241 37,025 209 516 64
2022-12-02 10:45:18 GMT 39.137302 -7.279602 37,025 209 516 64
2022-12-02 10:45:14 GMT 39.145294 -7.274024 37,025 209 516 0
2022-12-02 10:45:11 GMT 39.152847 -7.268829 37,025 209 516 0
2022-12-02 10:45:08 GMT 39.159184 -7.264465 37,025 209 516 -64
2022-12-02 10:45:04 GMT 39.166725 -7.259094 37,025 212 514 0
2022-12-02 10:45:01 GMT 39.172852 -7.254440 37,025 213 514 0
2022-12-02 10:44:58 GMT 39.180038 -7.248469 37,025 215 513 0
2022-12-02 10:44:54 GMT 39.186996 -7.242140 37,025 222 509 0
2022-12-02 10:44:51 GMT 39.192654 -7.236572 37,025 220 510 0
2022-12-02 10:44:47 GMT 39.206497 -7.221122 37,025 225 507 0
2022-12-02 10:44:44 GMT 39.206497 -7.221122 37,025 225 507 0
2022-12-02 10:44:40 GMT 39.211555 -7.214783 37,025 226 506 0
2022-12-02 10:44:37 GMT 39.216385 -7.208285 37,025 228 504 -64
2022-12-02 10:44:33 GMT 39.223114 -7.198374 37,025 231 502 -64
2022-12-02 10:44:30 GMT 39.226639 -7.192821 37,025 233 501 -64
2022-12-02 10:44:26 GMT 39.233322 -7.181357 37,050 237 498 0
2022-12-02 10:44:23 GMT 39.236435 -7.175505 37,050 238 496 64
2022-12-02 10:44:20 GMT 39.240372 -7.167504 37,050 240 495 128
2022-12-02 10:44:17 GMT 39.244373 -7.158875 37,025 242 493 128
2022-12-02 10:44:14 GMT 39.247818 -7.150635 37,025 243 492 64
2022-12-02 10:44:10 GMT 39.251312 -7.141710 37,025 244 492 0
2022-12-02 10:44:07 GMT 39.254562 -7.133351 37,025 244 493 64
2022-12-02 10:44:03 GMT 39.259689 -7.120239 37,025 244 493 128
2022-12-02 10:43:59 GMT 39.261932 -7.114483 37,025 244 493 128
2022-12-02 10:43:52 GMT 39.269932 -7.093994 37,025 244 493 0
2022-12-02 10:43:49 GMT 39.272598 -7.087137 37,025 244 494 0
2022-12-02 10:43:44 GMT 39.278320 -7.072449 37,025 244 494 0
2022-12-02 10:43:41 GMT 39.282028 -7.063015 37,025 244 494 0
2022-12-02 10:43:32 GMT 39.290417 -7.041443 37,025 244 494 0
2022-12-02 10:43:27 GMT 39.295769 -7.027771 37,025 244 494 -64
2022-12-02 10:43:24 GMT 39.298874 -7.019846 37,025 244 494 -64
2022-12-02 10:43:21 GMT 39.301960 -7.011963 37,025 244 494 0
2022-12-02 10:43:18 GMT 39.304008 -7.006714 37,025 244 494 0
2022-12-02 10:43:14 GMT 39.308895 -6.994080 37,025 244 494 0
2022-12-02 10:43:11 GMT 39.312012 -6.986170 37,025 244 494 0
2022-12-02 10:43:08 GMT 39.314484 -6.979901 37,025 244 494 0
2022-12-02 10:43:03 GMT 39.320206 -6.965153 37,025 244 494 64
2022-12-02 10:43:00 GMT 39.324738 -6.953569 37,025 244 494 64
2022-12-02 10:42:56 GMT 39.331474 -6.936157 37,025 244 494 64
2022-12-02 10:42:52 GMT 39.331474 -6.936157 37,025 244 494 64
2022-12-02 10:42:48 GMT 39.335770 -6.925089 37,025 244 494 64
2022-12-02 10:42:44 GMT 39.339066 -6.916670 37,025 244 494 64
2022-12-02 10:42:40 GMT 39.344181 -6.903503 37,025 244 495 64
2022-12-02 10:42:37 GMT 39.346024 -6.898757 37,025 244 495 64
2022-12-02 10:42:34 GMT 39.349731 -6.889264 37,025 244 495 64
2022-12-02 10:42:30 GMT 39.354004 -6.878174 37,025 244 495 0
2022-12-02 10:42:27 GMT 39.356472 -6.871826 37,025 244 496 0
2022-12-02 10:42:22 GMT 39.362000 -6.857559 37,025 244 496 -64
2022-12-02 10:42:19 GMT 39.365501 -6.848572 37,025 244 496 -64
2022-12-02 10:42:15 GMT 39.369598 -6.838013 37,025 244 496 0
2022-12-02 10:42:11 GMT 39.377563 -6.817375 37,025 244 496 64
2022-12-02 10:42:07 GMT 39.377563 -6.817375 37,025 244 496 0
2022-12-02 10:42:02 GMT 39.383099 -6.803101 37,025 244 495 0
2022-12-02 10:41:59 GMT 39.385757 -6.796238 37,025 244 495 0
2022-12-02 10:41:54 GMT 39.390453 -6.784058 37,025 244 495 0
2022-12-02 10:41:50 GMT 39.396011 -6.769787 37,025 244 495 0
2022-12-02 10:41:47 GMT 39.398026 -6.764473 37,025 244 495 64
2022-12-02 10:41:44 GMT 39.400909 -6.757069 37,025 244 495 64
2022-12-02 10:41:41 GMT 39.403954 -6.749146 37,025 244 495 128
2022-12-02 10:41:38 GMT 39.408051 -6.738586 37,025 244 495 128
2022-12-02 10:41:34 GMT 39.411118 -6.730619 37,025 244 495 64
2022-12-02 10:41:31 GMT 39.414570 -6.721619 37,025 244 495 64
2022-12-02 10:41:28 GMT 39.417252 -6.714736 37,025 244 495 0
2022-12-02 10:41:24 GMT 39.421738 -6.703093 37,025 244 496 64
2022-12-02 10:41:21 GMT 39.424763 -6.695129 37,025 244 496 0
2022-12-02 10:41:18 GMT 39.428238 -6.686076 37,025 244 496 64
2022-12-02 10:41:15 GMT 39.430298 -6.680762 37,025 244 496 64
2022-12-02 10:41:11 GMT 39.435005 -6.668579 37,025 244 496 64
2022-12-02 10:41:08 GMT 39.437428 -6.662231 37,025 244 496 0
2022-12-02 10:41:05 GMT 39.441105 -6.652649 37,025 244 496 0
2022-12-02 10:41:01 GMT 39.445992 -6.639954 37,025 244 496 -64
2022-12-02 10:40:57 GMT 39.449890 -6.629891 37,025 244 495 0
2022-12-02 10:40:53 GMT 39.453140 -6.621352 37,025 244 495 0
2022-12-02 10:40:49 GMT 39.459229 -6.605470 37,025 244 495 0
2022-12-02 10:40:45 GMT 39.461288 -6.600156 37,025 244 495 64
2022-12-02 10:40:42 GMT 39.463917 -6.593262 37,025 244 495 64
2022-12-02 10:40:37 GMT 39.468803 -6.580566 37,025 244 495 64
2022-12-02 10:40:34 GMT 39.472900 -6.569946 37,025 244 495 0
2022-12-02 10:40:29 GMT 39.476948 -6.559326 37,025 244 495 -64
2022-12-02 10:40:25 GMT 39.481838 -6.546631 37,050 244 495 -192
2022-12-02 10:40:22 GMT 39.484451 -6.539731 37,050 244 494 0
2022-12-02 10:40:19 GMT 39.487701 -6.531253 37,050 244 494 448
2022-12-02 10:40:16 GMT 39.491776 -6.520684 37,000 244 494 832
2022-12-02 10:40:13 GMT 39.497246 -6.506409 36,925 244 494 832
2022-12-02 10:40:09 GMT 39.497246 -6.506409 36,925 244 494 832
2022-12-02 10:40:06 GMT 39.500290 -6.498533 36,800 244 494 832
2022-12-02 10:40:02 GMT 39.504974 -6.486328 36,825 244 495 832
2022-12-02 10:39:59 GMT 39.508232 -6.477844 36,800 244 494 768
2022-12-02 10:39:56 GMT 39.511024 -6.470398 36,725 244 495 768
2022-12-02 10:39:52 GMT 39.514656 -6.460876 36,700 244 495 768
2022-12-02 10:39:46 GMT 39.521667 -6.443541 36,625 242 497 704
2022-12-02 10:39:43 GMT 39.524990 -6.435730 36,575 237 501 896
2022-12-02 10:39:39 GMT 39.529133 -6.426453 36,575 239 498 448
2022-12-02 10:39:36 GMT 39.532951 -6.418274 36,500 238 500 832
2022-12-02 10:39:33 GMT 39.537643 -6.408731 36,500 238 500 832
2022-12-02 10:39:28 GMT 39.542221 -6.399715 36,450 237 500 768
2022-12-02 10:39:25 GMT 39.546497 -6.391174 36,400 237 500 640
2022-12-02 10:39:22 GMT 39.550827 -6.382698 35,175 237 501 896
2022-12-02 10:39:18 GMT 39.555622 -6.373169 36,350 237 500 640
2022-12-02 10:39:15 GMT 39.558647 -6.367188 36,300 237 499 832
2022-12-02 10:39:12 GMT 39.563461 -6.357681 36,275 237 499 768
2022-12-02 10:39:08 GMT 39.567490 -6.349680 36,225 237 499 768
2022-12-02 10:39:05 GMT 39.571312 -6.342163 36,175 237 499 704
2022-12-02 10:39:02 GMT 39.575874 -6.333191 36,125 237 499 768
2022-12-02 10:38:59 GMT 39.579922 -6.325195 36,075 237 499 896
2022-12-02 10:38:55 GMT 39.584995 -6.315186 36,050 237 499 896
2022-12-02 10:38:52 GMT 39.588272 -6.308720 36,000 237 499 960
2022-12-02 10:38:49 GMT 39.593353 -6.298689 35,925 237 500 960
2022-12-02 10:38:45 GMT 39.597149 -6.291199 35,775 237 501 1088
2022-12-02 10:38:41 GMT 39.601959 -6.281672 35,850 237 500 896
2022-12-02 10:38:35 GMT 39.610832 -6.264160 35,750 237 501 1088
2022-12-02 10:38:32 GMT 39.614639 -6.256654 35,700 237 501 1024
2022-12-02 10:38:27 GMT 39.623543 -6.239075 35,575 237 502 960
2022-12-02 10:38:24 GMT 39.623543 -6.239075 35,575 237 502 960
2022-12-02 10:38:21 GMT 39.627869 -6.230562 35,525 237 502 896
2022-12-02 10:38:18 GMT 39.631687 -6.223022 35,475 237 502 1024
2022-12-02 10:38:15 GMT 39.636017 -6.214500 35,425 237 502 1152
2022-12-02 10:38:11 GMT 39.640594 -6.205424 35,350 237 502 1152
2022-12-02 10:38:06 GMT 39.646179 -6.194378 35,275 237 502 896
2022-12-02 10:38:02 GMT 39.652031 -6.182800 35,225 237 502 832
2022-12-02 10:37:58 GMT 39.657349 -6.172167 35,175 237 502 896
2022-12-02 10:37:54 GMT 39.661926 -6.163091 35,100 237 502 960
2022-12-02 10:37:50 GMT 39.666229 -6.154541 35,050 237 502 896
2022-12-02 10:37:47 GMT 39.671352 -6.144470 34,950 237 502 960
2022-12-02 10:37:44 GMT 39.675156 -6.136879 34,975 237 502 1024
2022-12-02 10:37:40 GMT 39.679451 -6.128357 34,900 237 502 1152
2022-12-02 10:37:37 GMT 39.683502 -6.120239 34,800 238 503 1216
2022-12-02 10:37:33 GMT 39.688576 -6.110168 34,725 237 503 1152
2022-12-02 10:37:30 GMT 39.692627 -6.102051 34,700 237 503 1152
2022-12-02 10:37:26 GMT 39.697235 -6.092957 34,650 237 504 1216
2022-12-02 10:37:23 GMT 39.701019 -6.085351 34,575 237 504 1216
2022-12-02 10:37:20 GMT 39.705643 -6.076275 34,500 237 505 1088
2022-12-02 10:37:16 GMT 39.710220 -6.067140 34,450 237 505 960
2022-12-02 10:37:13 GMT 39.714294 -6.059020 34,400 237 505 960
2022-12-02 10:37:09 GMT 39.718872 -6.049884 34,350 237 505 832
2022-12-02 10:37:05 GMT 39.724503 -6.038719 34,275 237 505 768
2022-12-02 10:37:02 GMT 39.727818 -6.032166 34,250 237 504 768
2022-12-02 10:36:59 GMT 39.731869 -6.024048 34,225 237 504 704
2022-12-02 10:36:55 GMT 39.736477 -6.014954 34,150 237 503 896
2022-12-02 10:36:52 GMT 39.740528 -6.006897 34,100 237 502 896
2022-12-02 10:36:49 GMT 39.744873 -5.998296 34,075 237 502 896
2022-12-02 10:36:46 GMT 39.748947 -5.990236 34,025 237 502 768
2022-12-02 10:36:43 GMT 39.753479 -5.981160 34,000 237 502 832
2022-12-02 10:36:39 GMT 39.758312 -5.971558 33,950 237 502 896
2022-12-02 10:36:34 GMT 39.766457 -5.955444 33,825 237 501 1088
2022-12-02 10:36:29 GMT 39.770233 -5.947843 33,750 237 502 1088
2022-12-02 10:36:25 GMT 39.775070 -5.938293 33,700 237 502 1088
2022-12-02 10:36:22 GMT 39.779121 -5.930237 33,650 237 502 1280
2022-12-02 10:36:18 GMT 39.784424 -5.919601 33,550 237 502 1472
2022-12-02 10:36:15 GMT 39.787994 -5.912555 33,500 238 503 1408
2022-12-02 10:36:11 GMT 39.792294 -5.903992 33,425 237 503 1280
2022-12-02 10:36:08 GMT 39.796856 -5.894836 33,350 237 503 1472
2022-12-02 10:36:04 GMT 39.801178 -5.886224 33,250 237 504 1536
2022-12-02 10:36:01 GMT 39.805515 -5.877625 33,175 238 505 1408
2022-12-02 10:35:58 GMT 39.809326 -5.869983 33,100 237 505 1088
2022-12-02 10:35:55 GMT 39.818024 -5.852668 33,050 238 506 576
2022-12-02 10:35:52 GMT 39.818024 -5.852668 33,025 238 506 192
2022-12-02 10:35:47 GMT 39.822834 -5.842957 33,025 238 506 0
2022-12-02 10:35:44 GMT 39.827442 -5.833801 33,025 238 506 0
2022-12-02 10:35:40 GMT 39.836334 -5.815947 33,025 238 506 0
2022-12-02 10:35:37 GMT 39.836334 -5.815947 33,025 238 507 0
2022-12-02 10:35:34 GMT 39.840149 -5.808289 33,025 238 507 0
2022-12-02 10:35:30 GMT 39.845993 -5.796542 33,025 238 507 0
2022-12-02 10:35:27 GMT 39.849060 -5.790392 33,025 238 507 -64
2022-12-02 10:35:22 GMT 39.855698 -5.777077 33,025 238 507 -64
2022-12-02 10:35:19 GMT 39.858494 -5.771423 33,025 238 509 -64
2022-12-02 10:35:16 GMT 39.863098 -5.762207 33,025 238 509 -64
2022-12-02 10:35:13 GMT 39.865906 -5.756537 33,025 238 510 -64
2022-12-02 10:35:10 GMT 39.870483 -5.747283 33,050 238 511 -128
2022-12-02 10:35:07 GMT 39.874603 -5.739043 33,050 238 511 -128
2022-12-02 10:35:04 GMT 39.877670 -5.732833 33,050 238 511 192
2022-12-02 10:35:00 GMT 39.883301 -5.721489 33,050 238 512 768
2022-12-02 10:34:56 GMT 39.888702 -5.710632 33,000 238 512 1472
2022-12-02 10:34:53 GMT 39.892548 -5.702919 32,950 238 512 1472
2022-12-02 10:34:48 GMT 39.900017 -5.687866 32,825 238 512 896
2022-12-02 10:34:43 GMT 39.905411 -5.677006 32,775 238 512 832
2022-12-02 10:34:40 GMT 39.910816 -5.666138 32,700 238 512 896
2022-12-02 10:34:36 GMT 39.914658 -5.658377 32,675 238 512 768
2022-12-02 10:34:33 GMT 39.918545 -5.650635 32,625 238 512 512
2022-12-02 10:34:28 GMT 39.924690 -5.638234 32,575 238 510 448
2022-12-02 10:34:25 GMT 39.927761 -5.632054 31,650 238 517 1472
2022-12-02 10:34:22 GMT 39.931858 -5.623814 32,525 238 509 1472
2022-12-02 10:34:18 GMT 39.937729 -5.612000 32,325 238 510 2048
2022-12-02 10:34:15 GMT 39.941074 -5.605275 32,300 238 511 2048
2022-12-02 10:34:12 GMT 39.944916 -5.597534 32,200 238 512 1920
2022-12-02 10:34:07 GMT 39.952389 -5.582490 32,025 238 515 1728
2022-12-02 10:34:02 GMT 39.957554 -5.572128 31,900 238 515 1664
2022-12-02 10:33:59 GMT 39.962952 -5.561157 31,800 238 515 1664
2022-12-02 10:33:56 GMT 39.965794 -5.555399 31,675 238 517 1536
2022-12-02 10:33:52 GMT 39.970963 -5.544975 31,625 238 517 1472
2022-12-02 10:33:47 GMT 39.977417 -5.531860 31,500 238 518 1280
2022-12-02 10:33:42 GMT 39.983902 -5.518757 31,425 238 516 1024
2022-12-02 10:33:37 GMT 39.990372 -5.505676 31,325 238 516 1152
2022-12-02 10:33:34 GMT 39.993988 -5.498352 31,275 238 516 1216
2022-12-02 10:33:29 GMT 39.999664 -5.486816 31,175 238 516 1344
2022-12-02 10:33:24 GMT 40.008717 -5.468507 31,050 238 516 1344
2022-12-02 10:33:15 GMT 40.018250 -5.449097 30,875 238 517 1344
2022-12-02 10:33:11 GMT 40.024475 -5.436523 30,775 238 517 1280
2022-12-02 10:33:07 GMT 40.029385 -5.426559 30,700 238 517 1344
2022-12-02 10:33:03 GMT 40.034271 -5.416626 30,600 238 517 1408
2022-12-02 10:32:58 GMT 40.041256 -5.402464 30,475 238 517 1280
2022-12-02 10:32:55 GMT 40.045624 -5.393494 30,400 238 517 1280
2022-12-02 10:32:51 GMT 40.048985 -5.386672 30,350 238 517 1280
2022-12-02 10:32:47 GMT 40.055176 -5.374125 30,250 238 517 1344
2022-12-02 10:32:43 GMT 40.061646 -5.360962 30,150 238 517 1408
2022-12-02 10:32:37 GMT 40.067825 -5.348389 29,975 238 517 1216
2022-12-02 10:32:34 GMT 40.071701 -5.340479 29,975 238 517 1024
2022-12-02 10:32:27 GMT 40.080734 -5.322144 29,875 238 515 448
2022-12-02 10:32:24 GMT 40.084854 -5.313782 29,875 238 514 384
2022-12-02 10:32:19 GMT 40.090485 -5.302307 29,850 238 511 640
2022-12-02 10:32:15 GMT 40.095612 -5.291870 29,825 238 510 640
2022-12-02 10:32:12 GMT 40.099957 -5.283051 29,775 238 508 384
2022-12-02 10:32:08 GMT 40.105270 -5.272217 29,750 238 509 384
2022-12-02 10:32:05 GMT 40.110352 -5.261902 29,725 238 507 320
2022-12-02 10:32:02 GMT 40.112621 -5.257270 29,700 238 506 256
2022-12-02 10:31:59 GMT 40.115891 -5.250549 29,700 238 504 192
2022-12-02 10:31:56 GMT 40.120163 -5.241852 29,700 238 502 320
2022-12-02 10:31:51 GMT 40.126167 -5.229617 29,675 238 500 320
2022-12-02 10:31:48 GMT 40.129395 -5.222961 29,650 238 500 320
2022-12-02 10:31:45 GMT 40.133881 -5.213867 29,650 238 496 192
2022-12-02 10:31:42 GMT 40.138084 -5.205272 29,625 238 490 256
2022-12-02 10:31:37 GMT 40.143768 -5.193665 29,600 238 493 384
2022-12-02 10:31:33 GMT 40.148418 -5.184174 29,600 238 493 384
2022-12-02 10:31:26 GMT 40.156998 -5.166687 29,550 238 487 320
2022-12-02 10:31:23 GMT 40.160385 -5.159790 29,550 238 486 320
2022-12-02 10:31:16 GMT 40.169586 -5.140991 29,500 238 482 256
2022-12-02 10:31:14 GMT 40.172672 -5.134610 29,500 238 481 256
2022-12-02 10:31:06 GMT 40.181488 -5.116577 29,475 238 476 320
2022-12-02 10:31:03 GMT 40.184326 -5.110718 29,450 238 476 320
2022-12-02 10:30:59 GMT 40.188583 -5.102051 29,450 238 473 256
2022-12-02 10:30:56 GMT 40.193062 -5.092850 29,425 238 471 256
2022-12-02 10:30:53 GMT 40.196789 -5.085172 29,400 238 470 320
2022-12-02 10:30:45 GMT 40.205120 -5.068006 29,375 238 465 256
2022-12-02 10:30:36 GMT 40.216106 -5.045409 29,325 238 457 384
2022-12-02 10:30:33 GMT 40.218853 -5.039791 29,275 238 457 384
2022-12-02 10:30:28 GMT 40.226536 -5.023935 29,275 238 457 384
2022-12-02 10:30:25 GMT 40.227882 -5.021126 29,275 238 453 256
2022-12-02 10:30:22 GMT 40.231888 -5.012824 29,275 238 450 320
2022-12-02 10:30:16 GMT 40.238590 -4.999091 29,225 238 447 384
2022-12-02 10:30:11 GMT 40.243652 -4.988586 29,200 238 442 192
2022-12-02 10:30:08 GMT 40.247177 -4.981384 29,200 238 442 192
2022-12-02 10:30:02 GMT 40.257156 -4.960693 29,150 238 436 448
2022-12-02 10:29:56 GMT 40.260590 -4.953552 29,125 238 434 320
2022-12-02 10:29:49 GMT 40.269150 -4.935913 29,100 238 427 384
2022-12-02 10:29:45 GMT 40.271667 -4.930664 29,100 238 427 320
2022-12-02 10:29:41 GMT 40.276531 -4.920627 29,050 238 425 576
2022-12-02 10:29:38 GMT 40.279465 -4.914509 29,025 238 423 320
2022-12-02 10:29:35 GMT 40.282394 -4.908454 29,025 238 421 64
2022-12-02 10:29:25 GMT 40.293941 -4.884546 28,950 238 415 1024
2022-12-02 10:29:15 GMT 40.303162 -4.865540 28,800 238 412 1152
2022-12-02 10:29:06 GMT 40.312283 -4.846656 28,600 238 410 1216
2022-12-02 10:28:58 GMT 40.319965 -4.830738 28,500 238 408 1216
2022-12-02 10:28:55 GMT 40.323593 -4.823248 28,400 238 408 1216
2022-12-02 10:28:52 GMT 40.327225 -4.815757 28,300 238 404 1472
2022-12-02 10:28:45 GMT 40.333233 -4.803273 28,175 238 405 1344
2022-12-02 10:28:39 GMT 40.339050 -4.791321 28,050 238 404 1472
2022-12-02 10:28:35 GMT 40.343445 -4.782227 27,950 238 403 1472
2022-12-02 10:28:27 GMT 40.354202 -4.759949 27,700 238 402 1536
2022-12-02 10:28:24 GMT 40.354202 -4.759949 27,675 238 401 1600
2022-12-02 10:28:16 GMT 40.362698 -4.742286 27,450 238 400 1664
2022-12-02 10:28:10 GMT 40.367867 -4.731612 27,300 238 400 1728
2022-12-02 10:28:05 GMT 40.373978 -4.718933 27,125 238 400 1728
2022-12-02 10:28:00 GMT 40.377914 -4.710754 27,000 238 399 1728
2022-12-02 10:27:56 GMT 40.382439 -4.701337 26,875 238 398 1792
2022-12-02 10:27:50 GMT 40.387711 -4.690308 26,725 238 398 1792
2022-12-02 10:27:46 GMT 40.393795 -4.677616 26,525 238 397 1408
2022-12-02 10:27:39 GMT 40.398869 -4.667067 26,400 238 396 1344
2022-12-02 10:27:36 GMT 40.402176 -4.660156 26,325 238 395 1344
2022-12-02 10:27:33 GMT 40.403942 -4.656455 26,300 238 394 1344
2022-12-02 10:27:28 GMT 40.409592 -4.644775 26,150 238 393 1344
2022-12-02 10:27:25 GMT 40.412659 -4.638306 26,100 238 392 1344
2022-12-02 10:27:23 GMT 40.421127 -4.620728 25,550 238 382 1600
2022-12-02 10:27:16 GMT 40.421127 -4.620728 25,900 238 388 1408
2022-12-02 10:27:13 GMT 40.423264 -4.616318 25,825 238 387 1408
2022-12-02 10:27:09 GMT 40.427082 -4.608390 25,750 238 386 1344
2022-12-02 10:27:06 GMT 40.431061 -4.600037 25,650 238 385 1344
2022-12-02 10:27:02 GMT 40.434128 -4.593750 25,575 238 384 1408
2022-12-02 10:26:58 GMT 40.437695 -4.586293 25,475 238 382 1600
2022-12-02 10:26:53 GMT 40.449753 -4.561199 25,275 238 378 1728
2022-12-02 10:26:46 GMT 40.449753 -4.561199 25,075 238 380 1600
2022-12-02 10:26:43 GMT 40.451984 -4.556517 24,950 238 378 1728
2022-12-02 10:26:39 GMT 40.456081 -4.547965 24,950 238 378 1664
2022-12-02 10:26:35 GMT 40.459061 -4.541786 24,800 238 377 1792
2022-12-02 10:26:33 GMT 40.461670 -4.536355 24,750 238 377 1792
2022-12-02 10:26:25 GMT 40.469070 -4.520874 24,525 238 375 1856
2022-12-02 10:26:22 GMT 40.471306 -4.516255 24,450 238 375 1856
2022-12-02 10:26:15 GMT 40.477386 -4.503540 24,200 238 374 1792
2022-12-02 10:26:13 GMT 40.480362 -4.497375 24,150 238 374 1792
2022-12-02 10:26:03 GMT 40.490250 -4.476746 23,825 238 371 1856
2022-12-02 10:25:55 GMT 40.497162 -4.462280 23,450 238 369 1920
2022-12-02 10:25:52 GMT 40.498993 -4.458435 23,500 238 370 1984
2022-12-02 10:25:44 GMT 40.506081 -4.443658 23,250 238 369 1856
2022-12-02 10:25:41 GMT 40.508595 -4.438352 23,175 238 367 2048
2022-12-02 10:25:38 GMT 40.511673 -4.431885 23,050 238 367 2176
2022-12-02 10:25:35 GMT 40.514366 -4.426242 22,925 238 367 2176
2022-12-02 10:25:32 GMT 40.517075 -4.420593 22,100 238 367 2112
2022-12-02 10:25:25 GMT 40.523209 -4.407776 22,575 239 366 2048
2022-12-02 10:25:22 GMT 40.526237 -4.401335 22,475 238 365 2048
2022-12-02 10:25:14 GMT 40.532501 -4.388184 22,225 239 364 1984
2022-12-02 10:25:12 GMT 40.535175 -4.382609 22,125 239 362 1984
2022-12-02 10:25:09 GMT 40.537857 -4.376953 22,025 239 361 2048
2022-12-02 10:25:04 GMT 40.542995 -4.366129 21,850 239 361 2048
2022-12-02 10:25:00 GMT 40.545834 -4.360199 21,725 239 359 1920
2022-12-02 10:24:54 GMT 40.551792 -4.347590 21,500 239 359 1984
2022-12-02 10:24:51 GMT 40.554062 -4.342773 21,425 239 357 2048
2022-12-02 10:24:44 GMT 40.560379 -4.329529 21,175 239 356 2112
2022-12-02 10:24:40 GMT 40.563339 -4.323245 21,050 239 355 2112
2022-12-02 10:24:35 GMT 40.567337 -4.314819 20,900 239 354 2176
2022-12-02 10:24:32 GMT 40.569950 -4.309387 20,700 239 354 2176
2022-12-02 10:24:29 GMT 40.572369 -4.304269 20,675 238 354 2240
2022-12-02 10:24:23 GMT 40.578327 -4.291909 20,400 238 353 2304
2022-12-02 10:24:20 GMT 40.580750 -4.286790 20,300 239 352 2304
2022-12-02 10:24:15 GMT 40.584595 -4.278381 20,125 241 352 2304
2022-12-02 10:24:13 GMT 40.586884 -4.273193 20,025 242 351 2368
2022-12-02 10:24:09 GMT 40.589176 -4.267564 19,900 244 351 2368
2022-12-02 10:24:05 GMT 40.592342 -4.259137 19,725 245 350 2432
2022-12-02 10:24:03 GMT 40.594250 -4.253769 19,625 247 349 2432
2022-12-02 10:23:59 GMT 40.596176 -4.247925 19,500 248 348 2368
2022-12-02 10:23:55 GMT 40.598740 -4.239258 19,325 251 347 2304
2022-12-02 10:23:52 GMT 40.600349 -4.233294 19,150 253 346 2496
2022-12-02 10:23:49 GMT 40.601559 -4.228488 19,100 253 346 2496
2022-12-02 10:23:45 GMT 40.603699 -4.219686 18,925 252 345 2624
2022-12-02 10:23:42 GMT 40.605282 -4.213257 18,775 253 345 2624
2022-12-02 10:23:39 GMT 40.606678 -4.207639 18,650 253 345 2560
2022-12-02 10:23:35 GMT 40.608635 -4.199711 18,500 253 345 2368
2022-12-02 10:23:33 GMT 40.610031 -4.194093 18,375 253 344 2240
2022-12-02 10:23:29 GMT 40.611801 -4.186915 18,175 253 342 2496
2022-12-02 10:23:25 GMT 40.613567 -4.179798 18,125 253 342 2496
2022-12-02 10:23:22 GMT 40.615105 -4.173431 17,925 253 342 2496
2022-12-02 10:23:19 GMT 40.616547 -4.167542 17,850 253 341 2432
2022-12-02 10:23:15 GMT 40.618515 -4.159607 17,700 253 340 2368
2022-12-02 10:23:12 GMT 40.620365 -4.152145 17,550 252 339 2432
2022-12-02 10:23:09 GMT 40.621342 -4.148213 17,450 252 338 2496
2022-12-02 10:23:05 GMT 40.623299 -4.140410 17,300 252 339 2496
2022-12-02 10:23:01 GMT 40.625381 -4.132202 17,125 253 337 2432
2022-12-02 10:22:58 GMT 40.626526 -4.127502 17,025 254 336 2432
2022-12-02 10:22:55 GMT 40.628082 -4.120422 16,875 255 335 2432
2022-12-02 10:22:52 GMT 40.629070 -4.115316 16,725 258 334 2624
2022-12-02 10:22:49 GMT 40.630375 -4.108200 16,625 259 333 2624
2022-12-02 10:22:45 GMT 40.631516 -4.100647 16,450 260 333 2624
2022-12-02 10:22:41 GMT 40.632610 -4.092220 16,275 263 331 2624
2022-12-02 10:22:38 GMT 40.633308 -4.085041 16,125 264 331 2624
2022-12-02 10:22:35 GMT 40.633678 -4.080235 16,000 266 330 2624
2022-12-02 10:22:31 GMT 40.634007 -4.073868 15,875 268 329 2688
2022-12-02 10:22:28 GMT 40.634216 -4.067078 15,725 269 328 2688
2022-12-02 10:22:24 GMT 40.634331 -4.060260 15,550 269 328 2688
2022-12-02 10:22:21 GMT 40.634445 -4.051941 15,325 269 326 2624
2022-12-02 10:22:18 GMT 40.634563 -4.046777 15,275 269 326 2688
2022-12-02 10:22:15 GMT 40.634659 -4.041221 15,150 269 325 2816
2022-12-02 10:22:11 GMT 40.634796 -4.032544 14,925 269 325 2816
2022-12-02 10:22:08 GMT 40.634892 -4.026989 14,800 269 325 2752
2022-12-02 10:22:05 GMT 40.634983 -4.021495 14,675 269 324 2624
2022-12-02 10:22:01 GMT 40.635086 -4.013245 14,450 269 323 2432
2022-12-02 10:21:58 GMT 40.635216 -4.007326 14,375 269 322 2432
2022-12-02 10:21:55 GMT 40.635315 -4.001465 14,250 269 321 2432
2022-12-02 10:21:49 GMT 40.635540 -3.989410 14,000 269 319 2752
2022-12-02 10:21:45 GMT 40.635681 -3.982056 13,800 269 319 2688
2022-12-02 10:21:39 GMT 40.635868 -3.970059 13,550 269 317 2432
2022-12-02 10:21:35 GMT 40.635960 -3.963131 13,400 269 315 2624
2022-12-02 10:21:31 GMT 40.636101 -3.954704 13,200 269 314 2688
2022-12-02 10:21:28 GMT 40.636230 -3.947449 13,025 269 314 2624
2022-12-02 10:21:25 GMT 40.636276 -3.943665 12,950 269 313 2560
2022-12-02 10:21:21 GMT 40.636414 -3.936035 12,625 269 311 2624
2022-12-02 10:21:18 GMT 40.636475 -3.930359 12,625 269 311 2624
2022-12-02 10:21:15 GMT 40.636551 -3.924683 12,525 269 310 2624
2022-12-02 10:21:09 GMT 40.636780 -3.912659 12,250 269 309 2368
2022-12-02 10:21:05 GMT 40.636871 -3.905151 12,100 269 307 2240
2022-12-02 10:21:01 GMT 40.637009 -3.897705 11,950 269 306 2304
2022-12-02 10:20:58 GMT 40.637123 -3.892905 11,800 269 303 2496
2022-12-02 10:20:55 GMT 40.637192 -3.887329 11,725 269 303 2560
2022-12-02 10:20:51 GMT 40.637356 -3.879610 11,525 269 302 2944
2022-12-02 10:20:48 GMT 40.637451 -3.874491 11,350 269 302 2880
2022-12-02 10:20:45 GMT 40.637558 -3.869019 11,250 269 302 2880
2022-12-02 10:20:38 GMT 40.637833 -3.856506 10,950 269 301 2432
2022-12-02 10:20:35 GMT 40.637962 -3.850333 10,800 269 300 2304
2022-12-02 10:20:28 GMT 40.638336 -3.832520 10,475 269 297 2560
2022-12-02 10:20:25 GMT 40.638336 -3.832520 10,425 269 297 2624
2022-12-02 10:20:21 GMT 40.638474 -3.823914 10,200 269 296 2752
2022-12-02 10:20:18 GMT 40.638565 -3.819580 10,100 269 296 2560
2022-12-02 10:20:15 GMT 40.638657 -3.813843 9,975 269 295 2304
2022-12-02 10:20:09 GMT 40.638840 -3.803101 9,700 269 292 2304
2022-12-02 10:20:05 GMT 40.638977 -3.795959 9,575 269 291 2496
2022-12-02 10:19:58 GMT 40.639172 -3.783604 9,275 269 290 2880
2022-12-02 10:19:54 GMT 40.639267 -3.777986 9,100 269 289 2944
2022-12-02 10:19:48 GMT 40.639454 -3.767437 8,775 269 289 2880
2022-12-02 10:19:45 GMT 40.639526 -3.761475 8,650 269 289 2752
2022-12-02 10:19:38 GMT 40.639732 -3.749209 8,325 269 287 2240
2022-12-02 10:19:35 GMT 40.639801 -3.743286 8,225 269 285 2240
2022-12-02 10:19:29 GMT 40.640011 -3.733229 8,000 269 282 2240
2022-12-02 10:19:25 GMT 40.640121 -3.726074 7,850 269 280 2496
2022-12-02 10:19:20 GMT 40.640305 -3.716553 7,575 268 278 2176
2022-12-02 10:19:15 GMT 40.640533 -3.709106 7,450 268 276 2176
2022-12-02 10:19:12 GMT 40.640617 -3.706075 7,375 268 275 1792
2022-12-02 10:19:09 GMT 40.640755 -3.700083 7,275 271 273 1408
2022-12-02 10:19:05 GMT 40.640335 -3.692904 7,200 281 267 1280
2022-12-02 10:18:58 GMT 40.638107 -3.682068 7,050 297 258 1280
2022-12-02 10:18:55 GMT 40.636459 -3.677551 6,975 302 255 1216
2022-12-02 10:18:51 GMT 40.634079 -3.672913 6,900 308 253 1216
2022-12-02 10:18:48 GMT 40.632141 -3.669871 6,750 318 247 1216
2022-12-02 10:18:45 GMT 40.628998 -3.665833 6,750 320 245 1216
2022-12-02 10:18:42 GMT 40.626892 -3.663574 6,700 321 243 1216
2022-12-02 10:18:37 GMT 40.622040 -3.658386 6,575 322 237 1728
2022-12-02 10:18:34 GMT 40.619480 -3.655701 6,500 322 235 2176
2022-12-02 10:18:31 GMT 40.617599 -3.653748 6,400 322 235 2368
2022-12-02 10:18:25 GMT 40.611752 -3.647399 6,150 321 232 1920
2022-12-02 10:18:18 GMT 40.606819 -3.641968 5,950 320 228 1664
2022-12-02 10:18:15 GMT 40.603775 -3.638550 5,850 320 225 1536
2022-12-02 10:18:09 GMT 40.599060 -3.633301 5,700 319 219 1408
2022-12-02 10:18:05 GMT 40.596039 -3.629761 5,600 318 215 1664
2022-12-02 10:18:02 GMT 40.593704 -3.626953 5,500 318 213 1728
2022-12-02 10:17:58 GMT 40.591503 -3.624302 5,400 317 209 2048
2022-12-02 10:17:54 GMT 40.588852 -3.620972 5,275 315 207 2496
2022-12-02 10:17:51 GMT 40.586426 -3.617737 5,125 313 207 2432
2022-12-02 10:17:47 GMT 40.584137 -3.614319 4,975 311 206 2432
2022-12-02 10:17:43 GMT 40.581985 -3.610840 4,825 309 206 2496
2022-12-02 10:17:41 GMT 40.580338 -3.608032 4,700 309 206 2240
2022-12-02 10:17:34 GMT 40.576374 -3.601643 4,200 311 202 2368
2022-12-02 10:17:30 GMT 40.573952 -3.597835 4,300 311 202 2880
2022-12-02 10:17:27 GMT 40.572144 -3.595093 4,050 312 203 2432
2022-12-02 10:17:24 GMT 40.570274 -3.592342 4,025 312 203 2240
2022-12-02 10:17:21 GMT 40.567993 -3.589034 3,900 315 199 1600
2022-12-02 10:17:18 GMT 40.565945 -3.586162 3,825 317 198 1664
2022-12-02 10:17:14 GMT 40.563805 -3.583540 3,725 323 196 2112
2022-12-02 10:17:05 GMT 40.556355 -3.577735 3,175 350 196 2176
2022-12-02 10:16:55 GMT 40.547836 -3.575488 2,875 0 193 1856
2022-12-02 10:16:51 GMT 40.544769 -3.575378 2,875 0 193 1856
2022-12-02 10:16:48 GMT 40.540512 -3.575317 2,700 0 190 1792
We lost coverage of the aircraft here for a total of 84 minutes
2022-12-02 08:52:25 GMT 40.453537 -3.544189 2,150 322 158 -704
2022-12-02 08:52:22 GMT 40.451569 -3.542154 2,200 322 158 -704
2022-12-02 08:52:11 GMT 40.445282 -3.535787 2,350 323 159 -960
2022-12-02 08:52:02 GMT 40.439651 -3.530169 2,500 323 164 -832
2022-12-02 08:51:58 GMT 40.437462 -3.527985 2,575 323 167 -1024
2022-12-02 08:51:54 GMT 40.434994 -3.525488 2,625 323 168 -1024
2022-12-02 08:51:49 GMT 40.431427 -3.521851 2,725 322 171 -832
2022-12-02 08:51:44 GMT 40.428757 -3.519121 2,775 322 176 -896
2022-12-02 08:51:38 GMT 40.424847 -3.515126 2,875 323 181 -960
2022-12-02 08:51:34 GMT 40.422146 -3.512441 2,950 323 185 -1280
2022-12-02 08:51:30 GMT 40.419445 -3.509695 3,125 323 188 -1088
2022-12-02 08:51:24 GMT 40.415405 -3.505615 3,125 323 193 -704
2022-12-02 08:51:14 GMT 40.407993 -3.498084 3,275 323 204 -1088
2022-12-02 08:51:07 GMT 40.402550 -3.492591 3,425 323 210 -1216
2022-12-02 08:51:03 GMT 40.400208 -3.490234 3,475 323 213 -1408
2022-12-02 08:50:54 GMT 40.392540 -3.482416 3,700 322 218 -1088
2022-12-02 08:50:51 GMT 40.390629 -3.480481 3,950 325 228 -704
2022-12-02 08:50:48 GMT 40.387299 -3.476929 3,825 322 225 -1280
2022-12-02 08:50:44 GMT 40.384857 -3.474364 3,900 323 225 -1216
2022-12-02 08:50:42 GMT 40.382401 -3.471863 3,950 323 225 -1216
2022-12-02 08:50:34 GMT 40.376476 -3.466124 4,075 326 229 -640
2022-12-02 08:50:27 GMT 40.369904 -3.460327 4,325 322 233 -1152
2022-12-02 08:50:24 GMT 40.367340 -3.458252 4,200 327 234 -1536
2022-12-02 08:50:19 GMT 40.363037 -3.454407 4,325 324 233 -1408
2022-12-02 08:50:16 GMT 40.359970 -3.451294 4,425 317 234 -704
2022-12-02 08:50:13 GMT 40.358047 -3.449036 4,425 317 234 -704
2022-12-02 08:50:12 GMT 40.357250 -3.448022 4,450 315 235 -832
2022-12-02 08:50:11 GMT 40.356647 -3.447210 4,475 286 237 -960
2022-12-02 08:50:08 GMT 40.354568 -3.443909 4,600 286 237 -960
2022-12-02 08:50:06 GMT 40.353058 -3.441040 4,575 297 237 -768
2022-12-02 08:50:02 GMT 40.351227 -3.436523 4,575 295 237 -768
2022-12-02 08:49:59 GMT 40.349899 -3.432251 4,625 288 237 -896
2022-12-02 08:49:54 GMT 40.348221 -3.424801 4,725 282 236 -896
2022-12-02 08:49:50 GMT 40.347569 -3.419744 4,775 275 236 -832
2022-12-02 08:49:49 GMT 40.347473 -3.418274 4,825 273 236 -832
2022-12-02 08:49:44 GMT 40.347427 -3.410339 4,875 267 234 -768
2022-12-02 08:49:38 GMT 40.347885 -3.402405 4,950 266 234 -64
2022-12-02 08:49:34 GMT 40.348221 -3.396461 4,950 266 234 64
2022-12-02 08:49:28 GMT 40.348686 -3.388533 4,950 266 235 -64
2022-12-02 08:49:24 GMT 40.349617 -3.372491 4,925 266 240 -64
2022-12-02 08:49:18 GMT 40.349617 -3.372491 4,925 266 240 -64
2022-12-02 08:49:13 GMT 40.349895 -3.367310 4,925 266 241 -64
2022-12-02 08:49:09 GMT 40.350449 -3.358215 4,925 266 246 -64
2022-12-02 08:49:03 GMT 40.350861 -3.351624 4,925 266 251 -64
2022-12-02 08:49:02 GMT 40.350967 -3.350081 4,925 266 252 -64
2022-12-02 08:49:00 GMT 40.351181 -3.346741 4,950 266 252 -64
2022-12-02 08:48:58 GMT 40.351341 -3.343964 4,950 266 254 -256
2022-12-02 08:48:57 GMT 40.351410 -3.343079 4,950 265 257 -512
2022-12-02 08:48:55 GMT 40.351639 -3.339355 4,950 265 257 -512
2022-12-02 08:48:53 GMT 40.351868 -3.336243 4,950 265 258 -640
2022-12-02 08:48:50 GMT 40.352142 -3.331909 5,025 265 259 -1088
2022-12-02 08:48:46 GMT 40.352600 -3.325684 5,075 265 260 -1024
2022-12-02 08:48:44 GMT 40.352783 -3.322865 5,125 265 260 -1024
2022-12-02 08:48:43 GMT 40.352966 -3.320679 5,150 265 260 -1024
2022-12-02 08:48:42 GMT 40.353062 -3.319057 5,150 265 260 -1024
2022-12-02 08:48:41 GMT 40.353390 -3.314688 5,200 265 261 -1024
2022-12-02 08:48:39 GMT 40.353390 -3.314688 5,200 265 261 -1024
2022-12-02 08:48:38 GMT 40.353481 -3.313439 5,225 265 261 -1024
2022-12-02 08:48:36 GMT 40.353760 -3.309631 5,275 265 262 -1024
2022-12-02 08:48:34 GMT 40.353992 -3.306510 5,300 265 262 -1024
2022-12-02 08:48:30 GMT 40.354412 -3.300830 5,350 265 263 -1024
2022-12-02 08:48:29 GMT 40.354568 -3.298584 5,375 265 263 -1024
2022-12-02 08:48:27 GMT 40.354736 -3.296335 5,425 265 263 -1024
2022-12-02 08:48:26 GMT 40.355251 -3.290031 5,475 265 264 -1024
2022-12-02 08:48:23 GMT 40.355251 -3.290031 5,475 265 264 -1024
2022-12-02 08:48:20 GMT 40.355667 -3.284607 5,550 265 265 -1024
2022-12-02 08:48:17 GMT 40.356041 -3.279793 5,600 265 266 -1024
2022-12-02 08:48:16 GMT 40.356400 -3.274963 5,650 265 266 -1024
2022-12-02 08:48:14 GMT 40.356400 -3.274963 5,675 265 267 -1024
2022-12-02 08:48:12 GMT 40.356583 -3.272400 5,675 265 268 -1024
2022-12-02 08:48:10 GMT 40.356834 -3.268870 5,725 265 268 -1024
2022-12-02 08:48:09 GMT 40.357018 -3.266310 5,750 265 268 -1024
2022-12-02 08:48:07 GMT 40.357635 -3.258179 5,800 265 269 -1088
2022-12-02 08:48:04 GMT 40.358231 -3.250080 5,900 265 269 -1024
2022-12-02 08:47:59 GMT 40.358231 -3.250080 5,925 265 270 -1024
2022-12-02 08:47:57 GMT 40.358597 -3.245178 5,975 264 271 -1024
2022-12-02 08:47:55 GMT 40.358734 -3.243896 6,000 264 271 -1024
2022-12-02 08:47:54 GMT 40.358883 -3.242215 6,025 263 272 -1024
2022-12-02 08:47:53 GMT 40.359161 -3.238969 6,050 262 272 -1024
2022-12-02 08:47:51 GMT 40.359394 -3.237034 6,050 261 272 -1024
2022-12-02 08:47:50 GMT 40.359604 -3.235413 6,075 257 273 -896
2022-12-02 08:47:47 GMT 40.360371 -3.230542 6,125 255 273 -832
2022-12-02 08:47:44 GMT 40.361435 -3.225769 6,175 252 274 -832
2022-12-02 08:47:43 GMT 40.361862 -3.224175 6,175 251 274 -832
2022-12-02 08:47:42 GMT 40.362762 -3.220764 6,225 250 275 -768
2022-12-02 08:47:40 GMT 40.362946 -3.220154 6,225 250 276 -768
2022-12-02 08:47:38 GMT 40.364044 -3.216370 6,250 250 276 -704
2022-12-02 08:47:36 GMT 40.365398 -3.211691 6,300 250 279 -896
2022-12-02 08:47:34 GMT 40.365875 -3.210083 6,300 250 279 -960
2022-12-02 08:47:33 GMT 40.366703 -3.207259 6,325 250 280 -896
2022-12-02 08:47:28 GMT 40.368668 -3.200562 6,400 249 283 -896
2022-12-02 08:47:27 GMT 40.369122 -3.198957 6,400 249 283 -896
2022-12-02 08:47:26 GMT 40.370052 -3.195773 6,450 249 284 -1088
2022-12-02 08:47:24 GMT 40.370544 -3.194153 6,450 249 284 -1088
2022-12-02 08:47:22 GMT 40.371403 -3.191279 6,500 249 286 -1152
2022-12-02 08:47:21 GMT 40.371918 -3.189636 6,500 249 286 -1152
2022-12-02 08:47:20 GMT 40.372383 -3.188033 6,525 249 287 -1088
2022-12-02 08:47:17 GMT 40.373840 -3.183167 6,575 249 289 -1152
2022-12-02 08:47:16 GMT 40.374943 -3.179606 6,625 249 290 -1152
2022-12-02 08:47:14 GMT 40.375443 -3.177979 6,650 249 291 -1216
2022-12-02 08:47:13 GMT 40.375809 -3.176636 6,675 249 292 -1216
2022-12-02 08:47:12 GMT 40.376945 -3.173051 6,700 249 294 -1152
2022-12-02 08:47:10 GMT 40.377457 -3.171387 6,725 249 294 -1152
2022-12-02 08:47:08 GMT 40.378464 -3.168091 6,775 248 295 -1216
2022-12-02 08:47:07 GMT 40.379364 -3.165124 6,800 248 296 -1216
2022-12-02 08:47:06 GMT 40.380016 -3.163126 6,825 248 296 -1216
2022-12-02 08:47:04 GMT 40.380524 -3.161438 6,850 248 298 -1280
2022-12-02 08:47:03 GMT 40.381039 -3.159755 6,875 248 298 -1344
2022-12-02 08:47:01 GMT 40.382111 -3.156447 6,925 248 299 -1472
2022-12-02 08:46:59 GMT 40.383183 -3.153076 6,950 247 300 -1536
2022-12-02 08:46:58 GMT 40.383835 -3.151079 7,000 247 300 -1536
2022-12-02 08:46:57 GMT 40.384254 -3.149768 7,025 246 300 -1536
2022-12-02 08:46:56 GMT 40.385559 -3.146118 7,075 245 301 -1600
2022-12-02 08:46:54 GMT 40.386162 -3.144462 7,125 244 302 -1600
2022-12-02 08:46:52 GMT 40.387253 -3.141479 7,150 242 303 -1600
2022-12-02 08:46:51 GMT 40.387932 -3.139843 7,175 240 304 -1536
2022-12-02 08:46:50 GMT 40.389496 -3.136414 7,250 238 304 -1536
2022-12-02 08:46:48 GMT 40.390305 -3.134849 7,275 236 305 -1536
2022-12-02 08:46:46 GMT 40.392105 -3.131531 7,325 232 306 -1536
2022-12-02 08:46:45 GMT 40.392792 -3.130310 7,350 232 306 -1536
2022-12-02 08:46:44 GMT 40.393658 -3.128856 7,375 229 308 -1536
2022-12-02 08:46:43 GMT 40.395565 -3.126047 7,425 227 308 -1536
2022-12-02 08:46:41 GMT 40.396545 -3.124695 7,450 224 309 -1600
2022-12-02 08:46:39 GMT 40.398605 -3.122131 7,500 223 310 -1600
2022-12-02 08:46:37 GMT 40.400547 -3.119867 7,550 220 311 -1600
2022-12-02 08:46:36 GMT 40.403046 -3.117310 7,600 218 311 -1664
2022-12-02 08:46:35 GMT 40.403046 -3.117310 7,600 217 312 -1664
2022-12-02 08:46:34 GMT 40.405426 -3.115173 7,625 215 312 -1728
2022-12-02 08:46:32 GMT 40.406387 -3.114319 7,700 212 313 -1792
2022-12-02 08:46:31 GMT 40.407898 -3.113159 7,725 210 313 -1856
2022-12-02 08:46:29 GMT 40.410694 -3.111191 7,800 205 315 -1984
2022-12-02 08:46:28 GMT 40.411766 -3.110504 7,825 205 315 -1984
2022-12-02 08:46:27 GMT 40.416046 -3.108132 7,900 201 316 -1920
2022-12-02 08:46:25 GMT 40.416046 -3.108132 7,925 201 316 -1920
2022-12-02 08:46:24 GMT 40.417419 -3.107422 7,950 200 316 -1920
2022-12-02 08:46:21 GMT 40.424103 -3.104492 8,100 198 317 -1856
2022-12-02 08:46:19 GMT 40.424103 -3.104492 8,125 198 317 -1920
2022-12-02 08:46:18 GMT 40.425751 -3.103760 8,150 198 317 -1920
2022-12-02 08:46:16 GMT 40.431084 -3.101515 8,225 199 317 -1728
2022-12-02 08:46:14 GMT 40.431084 -3.101515 8,250 199 317 -1728
2022-12-02 08:46:12 GMT 40.434174 -3.100159 8,325 199 317 -1600
2022-12-02 08:46:10 GMT 40.436417 -3.099243 8,375 199 318 -1536
2022-12-02 08:46:09 GMT 40.439758 -3.097778 8,450 199 318 -1536
2022-12-02 08:46:06 GMT 40.442863 -3.096459 8,500 199 318 -1536
2022-12-02 08:46:04 GMT 40.445389 -3.095398 8,550 199 319 -1536
2022-12-02 08:45:59 GMT 40.452713 -3.092285 8,675 198 320 -1536
2022-12-02 08:45:58 GMT 40.453262 -3.092041 8,675 198 320 -1536
2022-12-02 08:45:56 GMT 40.456100 -3.090820 8,725 198 320 -1536
2022-12-02 08:45:54 GMT 40.458038 -3.089967 8,800 199 320 -1472
2022-12-02 08:45:52 GMT 40.461994 -3.088282 8,850 199 321 -1472
2022-12-02 08:45:50 GMT 40.464020 -3.087463 8,875 199 321 -1472
2022-12-02 08:45:48 GMT 40.466557 -3.086347 8,925 199 321 -1472
2022-12-02 08:45:47 GMT 40.467957 -3.085754 8,950 199 322 -1472
2022-12-02 08:45:46 GMT 40.473083 -3.083557 9,000 199 322 -1472
2022-12-02 08:45:44 GMT 40.476192 -3.082227 9,100 198 323 -1472
2022-12-02 08:45:40 GMT 40.477615 -3.081604 9,125 198 323 -1408
2022-12-02 08:45:39 GMT 40.480755 -3.080292 9,175 198 324 -1408
2022-12-02 08:45:37 GMT 40.482193 -3.079651 9,175 198 324 -1344
2022-12-02 08:45:36 GMT 40.484760 -3.078544 9,225 199 325 -1280
2022-12-02 08:45:34 GMT 40.486771 -3.077698 9,250 199 326 -1216
2022-12-02 08:45:33 GMT 40.490204 -3.076233 9,300 199 326 -1216
2022-12-02 08:45:30 GMT 40.492538 -3.075256 9,350 198 326 -1216
2022-12-02 08:45:28 GMT 40.494827 -3.074280 9,375 198 327 -1216
2022-12-02 08:45:27 GMT 40.496861 -3.073425 9,400 199 328 -1216
2022-12-02 08:45:26 GMT 40.498306 -3.072815 9,425 199 329 -1216
2022-12-02 08:45:24 GMT 40.500595 -3.071838 9,450 199 329 -1216
2022-12-02 08:45:23 GMT 40.502075 -3.071178 9,475 198 330 -1216
2022-12-02 08:45:22 GMT 40.504963 -3.069992 9,525 198 330 -1216
2022-12-02 08:45:19 GMT 40.507290 -3.068993 9,550 198 331 -1216
2022-12-02 08:45:18 GMT 40.508453 -3.068494 9,575 198 331 -1216
2022-12-02 08:45:17 GMT 40.510780 -3.067495 9,600 199 332 -1216
2022-12-02 08:45:14 GMT 40.515484 -3.065498 9,675 199 333 -1216
2022-12-02 08:45:13 GMT 40.518723 -3.064087 9,700 198 335 -1216
2022-12-02 08:45:11 GMT 40.520184 -3.063500 9,725 198 335 -1152
2022-12-02 08:45:10 GMT 40.521351 -3.063001 9,750 199 335 -1152
2022-12-02 08:45:08 GMT 40.524326 -3.061752 9,775 199 336 -1152
2022-12-02 08:45:07 GMT 40.526096 -3.061003 9,800 198 337 -1216
2022-12-02 08:45:06 GMT 40.528793 -3.059814 9,850 198 338 -1216
2022-12-02 08:45:04 GMT 40.530239 -3.059193 9,850 198 338 -1216
2022-12-02 08:45:03 GMT 40.531769 -3.058594 9,875 198 339 -1216
2022-12-02 08:45:01 GMT 40.535034 -3.057195 9,925 198 340 -1216
2022-12-02 08:44:59 GMT 40.538013 -3.055947 9,975 198 340 -1216
2022-12-02 08:44:58 GMT 40.539551 -3.055298 9,975 198 341 -1152
2022-12-02 08:44:56 GMT 40.542854 -3.053887 10,025 198 342 -1152
2022-12-02 08:44:54 GMT 40.544952 -3.053040 10,050 198 343 -1216
2022-12-02 08:44:52 GMT 40.547974 -3.051758 10,100 198 343 -1216
2022-12-02 08:44:51 GMT 40.550117 -3.050828 10,125 198 344 -1216
2022-12-02 08:44:50 GMT 40.551636 -3.050171 10,150 198 345 -1216
2022-12-02 08:44:49 GMT 40.556171 -3.048269 10,200 198 345 -1216
2022-12-02 08:44:47 GMT 40.556171 -3.048269 10,200 198 346 -1216
2022-12-02 08:44:46 GMT 40.558033 -3.047458 10,225 198 346 -1216
2022-12-02 08:44:42 GMT 40.563526 -3.045148 10,325 199 349 -1216
2022-12-02 08:44:40 GMT 40.567204 -3.043587 10,350 199 350 -1216
2022-12-02 08:44:39 GMT 40.569672 -3.042526 10,400 199 351 -1216
2022-12-02 08:44:37 GMT 40.571228 -3.041809 10,400 199 352 -1216
2022-12-02 08:44:36 GMT 40.572788 -3.041153 10,425 199 352 -1216
2022-12-02 08:44:35 GMT 40.579586 -3.038219 10,475 199 353 -1216
2022-12-02 08:44:32 GMT 40.582706 -3.036846 10,550 199 355 -1216
2022-12-02 08:44:30 GMT 40.582706 -3.036846 10,550 199 355 -1216
2022-12-02 08:44:29 GMT 40.584274 -3.036194 10,575 199 356 -1216
2022-12-02 08:44:27 GMT 40.588383 -3.034411 10,625 199 357 -1216
2022-12-02 08:44:24 GMT 40.592155 -3.032788 10,675 199 359 -1216
2022-12-02 08:44:22 GMT 40.595322 -3.031415 10,725 199 360 -1216
2022-12-02 08:44:21 GMT 40.596909 -3.030762 10,750 199 361 -1216
2022-12-02 08:44:18 GMT 40.601700 -3.028731 10,800 199 363 -1216
2022-12-02 08:44:17 GMT 40.602955 -3.028169 10,825 199 363 -1280
2022-12-02 08:44:15 GMT 40.606476 -3.026672 10,875 199 364 -1280
2022-12-02 08:44:13 GMT 40.611336 -3.024611 10,925 199 367 -1408
2022-12-02 08:44:11 GMT 40.613243 -3.023737 10,950 199 367 -1472
2022-12-02 08:44:10 GMT 40.614548 -3.023238 10,975 199 368 -1472
2022-12-02 08:44:08 GMT 40.617760 -3.021802 11,025 198 369 -1472
2022-12-02 08:44:07 GMT 40.619061 -3.021303 11,050 198 369 -1472
2022-12-02 08:44:06 GMT 40.622971 -3.019617 11,100 199 371 -1472
2022-12-02 08:44:04 GMT 40.624275 -3.019055 11,125 199 371 -1472
2022-12-02 08:44:03 GMT 40.626232 -3.018244 11,150 199 371 -1472
2022-12-02 08:44:01 GMT 40.629181 -3.016968 11,200 198 372 -1472
2022-12-02 08:43:59 GMT 40.634750 -3.014561 11,275 199 373 -1472
2022-12-02 08:43:57 GMT 40.635403 -3.014311 11,300 199 374 -1472
2022-12-02 08:43:56 GMT 40.637695 -3.013306 11,325 199 374 -1472
2022-12-02 08:43:54 GMT 40.640991 -3.011902 11,375 199 376 -1536
2022-12-02 08:43:53 GMT 40.642014 -3.011440 11,400 199 376 -1536
2022-12-02 08:43:43 GMT 40.659283 -3.004012 11,675 199 381 -1792
2022-12-02 08:43:42 GMT 40.660995 -3.003296 11,700 199 382 -1856
2022-12-02 08:43:40 GMT 40.664337 -3.001831 11,750 199 382 -1984
2022-12-02 08:43:39 GMT 40.665665 -3.001221 11,775 199 382 -2048
2022-12-02 08:43:38 GMT 40.667679 -3.000366 11,825 199 382 -2048
2022-12-02 08:43:36 GMT 40.671387 -2.998768 11,900 199 383 -2048
2022-12-02 08:43:35 GMT 40.672737 -2.998206 11,925 199 383 -2048
2022-12-02 08:43:34 GMT 40.676136 -2.996708 12,000 199 385 -2048
2022-12-02 08:43:32 GMT 40.677486 -2.996146 12,025 199 385 -2048
2022-12-02 08:43:31 GMT 40.679531 -2.995273 12,050 199 385 -2048
2022-12-02 08:43:30 GMT 40.683243 -2.993652 12,125 199 386 -2048
2022-12-02 08:43:28 GMT 40.684616 -2.993103 12,175 199 386 -2048
2022-12-02 08:43:27 GMT 40.685989 -2.992493 12,200 199 386 -2048
2022-12-02 08:43:26 GMT 40.689377 -2.991028 12,250 199 387 -2048
2022-12-02 08:43:24 GMT 40.691730 -2.990029 12,300 199 387 -2048
2022-12-02 08:43:22 GMT 40.694824 -2.988708 12,375 199 388 -2048
2022-12-02 08:43:21 GMT 40.698257 -2.987244 12,425 199 389 -2048
2022-12-02 08:43:19 GMT 40.699970 -2.986533 12,475 199 389 -2048
2022-12-02 08:43:18 GMT 40.702019 -2.985597 12,500 199 389 -2048
2022-12-02 08:43:14 GMT 40.714005 -2.980408 12,725 199 391 -1984
2022-12-02 08:43:11 GMT 40.714005 -2.980408 12,750 199 393 -2048
2022-12-02 08:43:07 GMT 40.722687 -2.976733 12,925 199 394 -2048
2022-12-02 08:43:05 GMT 40.724735 -2.975797 12,950 199 394 -2048
2022-12-02 08:43:02 GMT 40.728924 -2.974049 13,025 199 395 -2048
2022-12-02 08:42:59 GMT 40.734833 -2.971497 13,150 199 396 -2048
2022-12-02 08:42:57 GMT 40.737259 -2.970428 13,200 198 398 -2048
2022-12-02 08:42:53 GMT 40.744629 -2.967285 13,350 198 398 -2048
2022-12-02 08:42:42 GMT 40.762939 -2.959412 13,725 199 402 -2112
2022-12-02 08:42:32 GMT 40.781109 -2.951639 14,075 199 406 -2112
2022-12-02 08:42:29 GMT 40.788280 -2.948581 14,200 199 411 -1728
2022-12-02 08:42:26 GMT 40.791862 -2.947020 14,275 199 411 -1728
2022-12-02 08:42:23 GMT 40.796539 -2.945007 14,375 199 411 -1728
2022-12-02 08:42:21 GMT 40.800156 -2.943481 14,425 199 411 -1728
2022-12-02 08:42:20 GMT 40.807087 -2.940466 14,525 199 413 -1152
2022-12-02 08:42:17 GMT 40.807087 -2.940466 14,525 199 417 -1024
2022-12-02 08:42:12 GMT 40.817329 -2.936096 14,600 199 417 -1024
2022-12-02 08:42:03 GMT 40.834274 -2.928855 14,825 199 418 -1792
2022-12-02 08:42:01 GMT 40.837208 -2.927544 14,875 199 418 -1856
2022-12-02 08:41:52 GMT 40.854584 -2.920044 15,125 199 423 -1856
2022-12-02 08:41:43 GMT 40.871330 -2.912813 15,425 199 425 -1856
2022-12-02 08:41:38 GMT 40.881058 -2.908630 15,600 199 425 -1856
2022-12-02 08:41:33 GMT 40.890427 -2.904602 15,750 199 427 -1792
2022-12-02 08:41:31 GMT 40.893448 -2.903259 15,800 199 428 -1792
2022-12-02 08:41:28 GMT 40.899490 -2.900696 15,900 199 429 -1792
2022-12-02 08:41:24 GMT 40.908150 -2.896895 16,050 199 430 -1792
2022-12-02 08:41:21 GMT 40.913460 -2.894585 16,125 199 430 -1792
2022-12-02 08:41:18 GMT 40.918018 -2.892588 16,300 199 431 -1792
2022-12-02 08:41:14 GMT 40.925217 -2.889465 16,300 199 432 -1728
2022-12-02 08:41:11 GMT 40.937393 -2.884155 16,375 199 433 -1792
2022-12-02 08:41:09 GMT 40.937393 -2.884155 16,500 199 433 -1792
2022-12-02 08:41:01 GMT 40.951492 -2.878043 16,725 199 433 -1792
2022-12-02 08:40:52 GMT 40.967148 -2.871277 16,975 199 433 -1792
2022-12-02 08:40:50 GMT 40.971371 -2.869429 17,025 199 434 -1792
2022-12-02 08:40:41 GMT 40.989304 -2.861633 17,300 199 434 -1792
2022-12-02 08:40:33 GMT 41.004593 -2.854980 17,550 199 436 -1792
2022-12-02 08:40:29 GMT 41.011124 -2.852138 17,650 199 436 -1792
2022-12-02 08:40:23 GMT 41.023773 -2.846619 17,850 199 436 -1792
2022-12-02 08:40:20 GMT 41.028767 -2.844460 17,925 199 436 -1792
2022-12-02 08:40:13 GMT 41.043339 -2.838156 18,150 199 435 -1792
2022-12-02 08:40:09 GMT 41.051765 -2.834473 18,275 199 435 -1792
2022-12-02 08:40:03 GMT 41.062473 -2.829853 18,450 199 434 -1664
2022-12-02 08:40:00 GMT 41.067036 -2.827856 18,525 199 435 -1600
2022-12-02 08:39:52 GMT 41.082779 -2.820984 18,725 199 437 -1600
2022-12-02 08:39:50 GMT 41.087006 -2.819179 18,800 199 437 -1600
2022-12-02 08:39:39 GMT 41.106976 -2.810440 19,075 199 438 -1600
2022-12-02 08:39:33 GMT 41.120499 -2.804565 19,250 199 439 -1600
2022-12-02 08:39:30 GMT 41.125900 -2.802246 19,350 199 439 -1600
2022-12-02 08:39:22 GMT 41.141418 -2.795532 19,550 199 442 -1600
2022-12-02 08:39:20 GMT 41.145309 -2.793823 19,600 199 442 -1600
2022-12-02 08:39:10 GMT 41.165165 -2.785159 19,875 199 444 -1600
2022-12-02 08:39:03 GMT 41.178478 -2.779354 20,075 199 446 -1664
2022-12-02 08:38:59 GMT 41.185509 -2.776295 20,175 199 447 -1664
2022-12-02 08:38:53 GMT 41.197723 -2.770996 20,350 199 448 -1664
2022-12-02 08:38:49 GMT 41.219398 -2.761501 21,100 199 453 -1792
2022-12-02 08:38:42 GMT 41.219398 -2.761501 20,650 199 450 -1792
2022-12-02 08:38:38 GMT 41.227314 -2.758068 21,100 199 453 -1792
2022-12-02 08:38:32 GMT 41.238831 -2.753052 20,950 199 454 -1792
2022-12-02 08:38:29 GMT 41.243637 -2.750916 21,025 199 454 -1792
2022-12-02 08:38:28 GMT 41.246449 -2.749703 21,075 199 454 -1792
2022-12-02 08:38:25 GMT 41.251240 -2.747643 21,150 199 455 -1792
2022-12-02 08:38:24 GMT 41.254406 -2.746207 21,200 199 455 -1792
2022-12-02 08:38:23 GMT 41.258411 -2.744460 21,300 199 456 -1792
2022-12-02 08:38:18 GMT 41.272888 -2.738217 21,475 199 457 -1792
2022-12-02 08:38:15 GMT 41.272888 -2.738217 21,475 199 458 -1792
2022-12-02 08:38:14 GMT 41.274902 -2.737305 21,525 199 458 -1792
2022-12-02 08:38:12 GMT 41.279358 -2.735408 21,600 199 458 -1792
2022-12-02 08:38:09 GMT 41.287811 -2.731689 21,800 199 459 -1792
2022-12-02 08:38:05 GMT 41.293884 -2.729104 21,800 199 460 -1792
2022-12-02 08:38:03 GMT 41.301983 -2.725546 21,925 199 460 -1856
2022-12-02 08:38:01 GMT 41.301983 -2.725546 21,925 199 460 -1856
2022-12-02 08:38:00 GMT 41.304016 -2.724670 21,975 199 460 -1856
2022-12-02 08:37:57 GMT 41.309292 -2.722425 22,050 199 461 -1856
2022-12-02 08:37:55 GMT 41.314972 -2.719928 22,125 199 462 -1856
2022-12-02 08:37:53 GMT 41.317390 -2.718867 22,175 199 463 -1856
2022-12-02 08:37:52 GMT 41.320652 -2.717431 22,225 199 463 -1856
2022-12-02 08:37:51 GMT 41.324699 -2.715683 22,275 199 463 -1856
2022-12-02 08:37:48 GMT 41.331219 -2.712812 22,375 199 464 -1856
2022-12-02 08:37:42 GMT 41.339813 -2.709106 22,575 199 465 -1856
2022-12-02 08:37:40 GMT 41.343510 -2.707506 22,575 199 466 -1856
2022-12-02 08:37:35 GMT 41.354168 -2.702824 22,700 199 467 -1856
2022-12-02 08:37:33 GMT 41.358265 -2.701014 22,800 199 468 -1856
2022-12-02 08:37:30 GMT 41.362793 -2.699036 22,875 199 470 -1856
2022-12-02 08:37:29 GMT 41.366089 -2.697571 22,900 199 470 -1856
2022-12-02 08:37:28 GMT 41.368973 -2.696270 22,950 199 470 -1856
2022-12-02 08:37:25 GMT 41.374744 -2.693773 23,075 199 471 -1856
2022-12-02 08:37:22 GMT 41.381790 -2.690674 23,150 199 473 -1856
2022-12-02 08:37:19 GMT 41.387650 -2.688092 23,225 199 474 -1856
2022-12-02 08:37:18 GMT 41.393463 -2.685533 23,300 199 474 -1856
2022-12-02 08:37:16 GMT 41.393463 -2.685533 23,325 199 475 -1856
2022-12-02 08:37:15 GMT 41.395981 -2.684409 23,350 199 475 -1856
2022-12-02 08:37:12 GMT 41.402256 -2.681686 23,450 199 477 -1984
2022-12-02 08:37:10 GMT 41.406448 -2.679834 23,525 199 478 -2112
2022-12-02 08:37:09 GMT 41.408524 -2.678916 23,550 199 480 -2176
2022-12-02 08:37:08 GMT 41.414429 -2.676295 23,650 199 480 -2176
2022-12-02 08:37:06 GMT 41.414429 -2.676295 23,650 199 480 -2240
2022-12-02 08:37:04 GMT 41.419899 -2.673893 23,750 199 481 -2240
2022-12-02 08:37:02 GMT 41.429626 -2.669615 23,925 199 482 -2240
2022-12-02 08:36:59 GMT 41.433449 -2.667953 24,000 199 483 -2240
2022-12-02 08:36:56 GMT 41.436447 -2.666619 24,050 199 483 -2176
2022-12-02 08:36:54 GMT 41.444527 -2.663099 24,200 199 484 -2176
2022-12-02 08:36:52 GMT 41.444527 -2.663099 24,200 199 486 -2176
2022-12-02 08:36:51 GMT 41.447041 -2.661949 24,225 199 486 -2176
2022-12-02 08:36:49 GMT 41.451324 -2.660033 24,300 199 486 -2176
2022-12-02 08:36:48 GMT 41.453476 -2.659128 24,350 199 486 -2176
2022-12-02 08:36:46 GMT 41.457733 -2.657193 24,425 199 487 -2176
2022-12-02 08:36:45 GMT 41.460728 -2.655881 24,475 199 487 -2176
2022-12-02 08:36:43 GMT 41.462860 -2.654946 24,500 199 487 -2176
2022-12-02 08:36:42 GMT 41.466293 -2.653386 24,575 199 488 -2176
2022-12-02 08:36:41 GMT 41.468452 -2.652496 24,600 199 488 -2176
2022-12-02 08:36:40 GMT 41.477905 -2.648280 24,750 199 489 -2176
2022-12-02 08:36:37 GMT 41.477905 -2.648280 24,775 199 489 -2176
2022-12-02 08:36:35 GMT 41.482185 -2.646428 24,850 199 491 -2176
2022-12-02 08:36:34 GMT 41.484329 -2.645458 24,875 199 491 -2176
2022-12-02 08:36:32 GMT 41.488632 -2.643523 24,950 199 491 -2176
2022-12-02 08:36:29 GMT 41.492523 -2.641829 25,025 199 491 -2176
2022-12-02 08:36:27 GMT 41.497284 -2.639715 25,100 199 491 -2176
2022-12-02 08:36:25 GMT 41.500717 -2.638217 25,175 199 492 -2176
2022-12-02 08:36:24 GMT 41.504623 -2.636463 25,225 199 492 -2176
2022-12-02 08:36:21 GMT 41.510239 -2.633972 25,325 199 492 -2176
2022-12-02 08:36:19 GMT 41.513672 -2.632474 25,400 199 492 -2176
2022-12-02 08:36:18 GMT 41.515842 -2.631481 25,425 199 492 -2112
2022-12-02 08:36:16 GMT 41.521011 -2.629182 25,525 199 492 -2112
2022-12-02 08:36:15 GMT 41.523193 -2.628229 25,550 199 492 -2112
2022-12-02 08:36:12 GMT 41.530556 -2.624966 25,675 199 493 -2112
2022-12-02 08:36:11 GMT 41.532276 -2.624199 25,700 199 493 -2112
2022-12-02 08:36:10 GMT 41.534885 -2.623050 25,750 199 493 -2112
2022-12-02 08:36:09 GMT 41.536606 -2.622283 25,775 199 493 -2112
2022-12-02 08:36:05 GMT 41.547409 -2.617493 25,950 199 494 -2048
2022-12-02 08:36:03 GMT 41.549595 -2.616535 25,975 199 494 -2048
2022-12-02 08:36:02 GMT 41.554367 -2.614434 26,050 199 494 -2048
2022-12-02 08:35:59 GMT 41.558670 -2.612499 26,125 199 495 -2048
2022-12-02 08:35:56 GMT 41.564758 -2.609815 26,225 199 495 -2048
2022-12-02 08:35:55 GMT 41.567799 -2.608486 26,275 199 495 -2048
2022-12-02 08:35:53 GMT 41.572174 -2.606570 26,350 199 495 -2048
2022-12-02 08:35:52 GMT 41.574326 -2.605632 26,375 199 495 -2112
2022-12-02 08:35:51 GMT 41.576065 -2.604821 26,425 199 495 -2112
2022-12-02 08:35:49 GMT 41.580879 -2.602738 26,500 199 496 -2112
2022-12-02 08:35:48 GMT 41.583023 -2.601762 26,525 199 496 -2176
2022-12-02 08:35:45 GMT 41.587814 -2.599608 26,600 199 496 -2112
2022-12-02 08:35:43 GMT 41.592190 -2.597692 26,675 199 497 -2048
2022-12-02 08:35:42 GMT 41.595680 -2.596159 26,725 199 497 -2048
2022-12-02 08:35:41 GMT 41.597450 -2.595392 26,775 199 497 -2112
2022-12-02 08:35:40 GMT 41.600464 -2.594022 26,800 199 497 -2112
2022-12-02 08:35:36 GMT 41.609207 -2.590152 26,950 199 498 -2112
2022-12-02 08:35:34 GMT 41.613136 -2.588366 27,025 199 498 -2048
2022-12-02 08:35:31 GMT 41.620605 -2.585033 27,150 199 498 -2112
2022-12-02 08:35:29 GMT 41.625381 -2.582937 27,225 199 498 -2112
2022-12-02 08:35:27 GMT 41.627563 -2.581912 27,275 199 499 -2112
2022-12-02 08:35:25 GMT 41.634132 -2.578977 27,375 199 499 -2112
2022-12-02 08:35:24 GMT 41.636307 -2.578042 27,400 199 499 -2112
2022-12-02 08:35:20 GMT 41.651638 -2.571120 27,650 199 499 -2048
2022-12-02 08:35:16 GMT 41.651638 -2.571120 27,650 199 499 -2048
2022-12-02 08:35:13 GMT 41.656898 -2.568821 27,725 199 499 -2112
2022-12-02 08:35:12 GMT 41.659973 -2.567430 27,775 199 499 -2112
2022-12-02 08:35:10 GMT 41.664368 -2.565432 27,850 199 500 -2112
2022-12-02 08:35:08 GMT 41.667419 -2.564094 27,900 199 500 -2112
2022-12-02 08:35:06 GMT 41.673561 -2.561347 28,000 199 500 -2112
2022-12-02 08:35:05 GMT 41.675766 -2.560376 28,050 199 501 -2112
2022-12-02 08:35:02 GMT 41.682362 -2.557451 28,150 199 501 -2112
2022-12-02 08:35:00 GMT 41.686783 -2.555471 28,200 199 501 -2112
2022-12-02 08:34:58 GMT 41.690277 -2.553938 28,275 199 502 -2112
2022-12-02 08:34:55 GMT 41.696915 -2.550950 28,375 199 502 -2112
2022-12-02 08:34:54 GMT 41.700005 -2.549595 28,450 199 503 -2112
2022-12-02 08:34:53 GMT 41.701775 -2.548828 28,475 199 503 -2112
2022-12-02 08:34:50 GMT 41.709736 -2.545251 28,600 199 505 -2112
2022-12-02 08:34:47 GMT 41.715927 -2.542505 28,700 199 506 -2112
2022-12-02 08:34:45 GMT 41.720348 -2.540525 28,750 199 506 -2112
2022-12-02 08:34:43 GMT 41.724380 -2.538716 28,825 199 507 -2112
2022-12-02 08:34:40 GMT 41.731941 -2.535351 28,925 199 508 -2112
2022-12-02 08:34:39 GMT 41.733261 -2.534783 28,975 199 509 -2048
2022-12-02 08:34:36 GMT 41.740879 -2.531391 29,100 199 510 -2048
2022-12-02 08:34:35 GMT 41.743103 -2.530414 29,125 199 510 -2048
2022-12-02 08:34:34 GMT 41.744888 -2.529602 29,150 199 510 -2048
2022-12-02 08:34:32 GMT 41.750290 -2.527168 29,200 199 511 -2048
2022-12-02 08:34:31 GMT 41.752518 -2.526217 29,275 199 511 -2048
2022-12-02 08:34:30 GMT 41.754730 -2.525170 29,300 199 512 -2048
2022-12-02 08:34:29 GMT 41.756561 -2.524421 29,350 199 512 -2048
2022-12-02 08:34:27 GMT 41.761047 -2.522361 29,400 199 513 -1984
2022-12-02 08:34:26 GMT 41.763317 -2.521362 29,450 199 513 -1984
2022-12-02 08:34:23 GMT 41.770065 -2.518366 29,550 199 514 -1984
2022-12-02 08:34:21 GMT 41.774551 -2.516306 29,625 199 515 -1984
2022-12-02 08:34:18 GMT 41.786777 -2.510887 29,775 199 516 -2048
2022-12-02 08:34:16 GMT 41.786777 -2.510887 29,800 199 516 -2048
2022-12-02 08:34:14 GMT 41.790848 -2.509065 29,875 199 516 -2048
2022-12-02 08:34:13 GMT 41.793594 -2.507817 29,900 199 517 -2112
2022-12-02 08:34:11 GMT 41.801743 -2.504196 30,025 199 517 -2112
2022-12-02 08:34:08 GMT 41.803574 -2.503385 30,075 199 517 -2112
2022-12-02 08:34:07 GMT 41.805866 -2.502392 30,100 199 517 -2048
2022-12-02 08:34:05 GMT 41.810379 -2.500348 30,175 199 517 -2048
2022-12-02 08:34:02 GMT 41.818130 -2.496893 30,300 199 517 -2048
2022-12-02 08:33:59 GMT 41.823578 -2.494458 30,350 199 517 -2048
2022-12-02 08:33:54 GMT 41.834911 -2.489425 30,725 199 517 -2048
2022-12-02 08:33:50 GMT 41.847622 -2.483804 30,725 199 517 -2048
2022-12-02 08:33:43 GMT 41.859447 -2.478503 30,925 199 517 -2048
2022-12-02 08:33:41 GMT 41.863541 -2.476668 31,000 199 517 -2048
2022-12-02 08:33:40 GMT 41.865826 -2.475692 31,025 199 517 -2048
2022-12-02 08:33:38 GMT 41.878052 -2.470176 31,200 199 516 -2048
2022-12-02 08:33:35 GMT 41.883499 -2.467742 31,300 199 516 -2048
2022-12-02 08:33:33 GMT 41.883499 -2.467742 31,300 199 516 -2048
2022-12-02 08:33:32 GMT 41.885750 -2.466750 31,325 199 516 -2048
2022-12-02 08:33:29 GMT 41.894348 -2.462873 31,450 199 515 -2048
2022-12-02 08:33:27 GMT 41.896641 -2.461832 31,500 199 515 -2048
2022-12-02 08:33:25 GMT 41.901157 -2.459852 31,575 199 515 -2048
2022-12-02 08:33:24 GMT 41.903412 -2.458815 31,600 199 515 -2048
2022-12-02 08:33:23 GMT 41.906555 -2.457361 31,650 199 515 -2048
2022-12-02 08:33:20 GMT 41.912003 -2.454933 31,725 199 515 -2048
2022-12-02 08:33:19 GMT 41.917877 -2.452323 31,825 199 515 -2048
2022-12-02 08:33:17 GMT 41.920151 -2.451293 31,850 199 515 -2048
2022-12-02 08:33:14 GMT 41.926895 -2.448266 31,950 199 515 -2048
2022-12-02 08:33:12 GMT 41.931881 -2.446055 32,025 199 516 -2048
2022-12-02 08:33:11 GMT 41.933697 -2.445224 32,050 199 516 -2048
2022-12-02 08:33:10 GMT 41.935959 -2.444208 32,100 199 516 -2048
2022-12-02 08:33:07 GMT 41.943192 -2.441025 32,200 199 516 -2048
2022-12-02 08:33:06 GMT 41.947769 -2.438965 32,275 199 516 -2048
2022-12-02 08:33:02 GMT 41.953171 -2.436593 32,350 199 516 -2048
2022-12-02 08:33:01 GMT 41.956367 -2.435132 32,400 199 516 -2048
2022-12-02 08:32:59 GMT 41.960449 -2.433347 32,475 199 516 -2048
2022-12-02 08:32:58 GMT 41.963150 -2.432098 32,500 199 516 -2048
2022-12-02 08:32:57 GMT 41.965897 -2.430912 32,575 199 516 -2048
2022-12-02 08:32:56 GMT 41.968597 -2.429664 32,600 199 516 -2048
2022-12-02 08:32:52 GMT 41.980362 -2.424420 32,775 199 515 -2112
2022-12-02 08:32:50 GMT 41.980362 -2.424420 32,775 199 515 -2112
2022-12-02 08:32:48 GMT 41.988071 -2.420952 32,900 199 514 -2112
2022-12-02 08:32:45 GMT 41.996170 -2.417312 33,025 199 513 -2112
2022-12-02 08:32:43 GMT 41.996170 -2.417312 33,025 199 513 -2176
2022-12-02 08:32:42 GMT 41.998444 -2.416306 33,075 199 513 -2176
2022-12-02 08:32:39 GMT 42.004715 -2.413497 33,175 199 513 -2176
2022-12-02 08:32:38 GMT 42.009247 -2.411437 33,250 198 512 -2176
2022-12-02 08:32:36 GMT 42.011486 -2.410477 33,275 198 512 -2176
2022-12-02 08:32:35 GMT 42.013733 -2.409502 33,325 198 512 -2176
2022-12-02 08:32:34 GMT 42.020050 -2.406817 33,425 197 510 -2176
2022-12-02 08:32:31 GMT 42.022331 -2.405878 33,450 197 510 -2176
2022-12-02 08:32:29 GMT 42.026848 -2.404090 33,550 196 510 -2176
2022-12-02 08:32:27 GMT 42.032776 -2.401886 33,625 195 509 -2176
2022-12-02 08:32:26 GMT 42.035042 -2.401088 33,675 195 509 -2176
2022-12-02 08:32:23 GMT 42.041016 -2.399077 33,750 194 508 -2240
2022-12-02 08:32:22 GMT 42.048775 -2.396616 33,875 194 508 -2240
2022-12-02 08:32:20 GMT 42.048775 -2.396616 33,900 194 509 -2240
2022-12-02 08:32:18 GMT 42.053383 -2.395147 33,950 194 509 -2112
2022-12-02 08:32:15 GMT 42.060692 -2.392848 34,075 194 509 -1984
2022-12-02 08:32:14 GMT 42.062073 -2.392398 34,100 194 509 -1792
2022-12-02 08:32:11 GMT 42.070312 -2.389838 34,200 194 509 -1536
2022-12-02 08:32:10 GMT 42.072144 -2.389214 34,225 194 510 -1408
2022-12-02 08:32:09 GMT 42.074471 -2.388504 34,250 194 510 -1216
2022-12-02 08:32:06 GMT 42.081345 -2.386343 34,325 194 510 -896
2022-12-02 08:32:04 GMT 42.085503 -2.385055 34,350 194 511 -960
2022-12-02 08:32:03 GMT 42.088715 -2.384033 34,375 194 511 -960
2022-12-02 08:32:02 GMT 42.090546 -2.383409 34,400 194 510 -960
2022-12-02 08:32:01 GMT 42.092857 -2.382692 34,400 194 510 -960
2022-12-02 08:32:00 GMT 42.095608 -2.381798 34,425 194 510 -960
2022-12-02 08:31:58 GMT 42.100216 -2.380329 34,475 194 511 -1024
2022-12-02 08:31:54 GMT 42.108948 -2.377541 34,525 194 511 -1024
2022-12-02 08:31:52 GMT 42.114441 -2.375731 34,575 194 511 -1024
2022-12-02 08:31:51 GMT 42.115856 -2.375282 34,575 194 511 -1024
2022-12-02 08:31:49 GMT 42.120895 -2.373671 34,600 194 511 -1024
2022-12-02 08:31:46 GMT 42.126842 -2.371706 34,650 195 512 -1024
2022-12-02 08:31:45 GMT 42.129181 -2.370925 34,675 195 512 -1024
2022-12-02 08:31:42 GMT 42.133312 -2.369534 34,700 195 512 -1024
2022-12-02 08:31:40 GMT 42.138805 -2.367618 34,750 195 512 -1024
2022-12-02 08:31:37 GMT 42.145706 -2.365244 34,800 195 512 -1024
2022-12-02 08:31:36 GMT 42.151199 -2.363309 34,850 196 512 -960
2022-12-02 08:31:34 GMT 42.153946 -2.362310 34,850 196 513 -768
2022-12-02 08:31:33 GMT 42.156216 -2.361486 34,875 196 513 -768
2022-12-02 08:31:32 GMT 42.163101 -2.358877 34,900 196 513 -640
2022-12-02 08:31:30 GMT 42.163101 -2.358877 34,925 196 513 -640
2022-12-02 08:31:26 GMT 42.172695 -2.355226 34,975 197 514 -320
2022-12-02 08:31:23 GMT 42.179958 -2.352416 34,975 197 514 -256
2022-12-02 08:31:20 GMT 42.186813 -2.349763 35,000 197 514 0
2022-12-02 08:31:17 GMT 42.193691 -2.347050 35,000 197 514 0
2022-12-02 08:31:12 GMT 42.203747 -2.343154 35,000 197 514 64
2022-12-02 08:31:03 GMT 42.223858 -2.335297 35,000 197 514 0
2022-12-02 08:31:02 GMT 42.226135 -2.334407 35,000 197 514 0
2022-12-02 08:30:59 GMT 42.233913 -2.331401 35,000 197 514 0
2022-12-02 08:30:57 GMT 42.238907 -2.329414 35,000 197 514 0
2022-12-02 08:30:54 GMT 42.245785 -2.326738 35,000 197 514 0
2022-12-02 08:30:53 GMT 42.248062 -2.325793 35,000 197 514 0
2022-12-02 08:30:51 GMT 42.250347 -2.324950 35,000 197 514 0
2022-12-02 08:30:44 GMT 42.267712 -2.318051 35,000 197 514 -64
2022-12-02 08:30:41 GMT 42.274136 -2.315560 35,000 197 514 0
2022-12-02 08:30:35 GMT 42.288300 -2.309938 35,000 197 514 0
2022-12-02 08:30:32 GMT 42.294662 -2.307441 35,000 197 514 64
2022-12-02 08:30:29 GMT 42.303368 -2.303999 35,000 197 515 64
2022-12-02 08:30:27 GMT 42.306114 -2.302913 35,000 197 515 64
2022-12-02 08:30:25 GMT 42.310677 -2.301061 35,000 197 515 0
2022-12-02 08:30:24 GMT 42.312927 -2.300138 35,000 197 515 0
2022-12-02 08:30:23 GMT 42.315239 -2.299272 35,000 197 515 0
2022-12-02 08:30:22 GMT 42.317986 -2.298187 35,000 197 515 0
2022-12-02 08:30:20 GMT 42.324364 -2.295632 35,000 197 515 0
2022-12-02 08:30:17 GMT 42.331673 -2.292693 35,000 197 515 0
2022-12-02 08:30:16 GMT 42.333488 -2.291991 35,000 197 515 0
2022-12-02 08:30:15 GMT 42.336235 -2.290841 35,000 197 515 0
2022-12-02 08:30:13 GMT 42.340797 -2.289053 35,000 197 515 0
2022-12-02 08:30:10 GMT 42.345840 -2.287029 35,000 197 515 0
2022-12-02 08:30:08 GMT 42.350418 -2.285219 35,000 197 515 0
2022-12-02 08:30:07 GMT 42.352669 -2.284262 35,000 197 515 0
2022-12-02 08:30:05 GMT 42.363655 -2.279919 35,000 197 515 0
2022-12-02 08:30:03 GMT 42.363655 -2.279919 35,000 197 515 0
2022-12-02 08:30:01 GMT 42.368683 -2.277915 35,000 197 515 0
2022-12-02 08:29:59 GMT 42.371845 -2.276597 35,000 197 515 0
2022-12-02 08:29:55 GMT 42.380089 -2.273276 35,000 197 515 0
2022-12-02 08:29:54 GMT 42.385532 -2.271104 35,000 197 515 0
2022-12-02 08:29:42 GMT 42.409744 -2.261311 35,000 197 515 0
2022-12-02 08:29:32 GMT 42.433949 -2.251559 35,000 197 515 0
2022-12-02 08:29:24 GMT 42.450806 -2.244769 35,000 197 515 64
2022-12-02 08:29:22 GMT 42.455826 -2.242744 35,000 197 515 0
2022-12-02 08:29:20 GMT 42.482315 -2.232077 35,000 197 515 0
2022-12-02 08:29:12 GMT 42.482315 -2.232077 35,000 197 515 0
2022-12-02 08:29:05 GMT 42.495071 -2.226903 35,000 197 514 0
2022-12-02 08:29:04 GMT 42.499634 -2.225051 35,000 197 514 0
2022-12-02 08:29:01 GMT 42.502380 -2.223901 35,000 197 514 0
2022-12-02 08:28:59 GMT 42.509216 -2.221173 35,000 197 514 0
2022-12-02 08:28:57 GMT 42.513794 -2.219301 35,000 197 514 64
2022-12-02 08:28:55 GMT 42.516068 -2.218344 35,000 197 514 64
2022-12-02 08:28:54 GMT 42.518326 -2.217428 35,000 197 515 64
2022-12-02 08:28:51 GMT 42.527004 -2.213937 35,000 197 515 0
2022-12-02 08:28:50 GMT 42.529266 -2.212996 35,000 197 515 0
2022-12-02 08:28:47 GMT 42.536129 -2.210168 35,000 197 515 0
2022-12-02 08:28:45 GMT 42.540646 -2.208316 35,000 197 515 0
2022-12-02 08:28:43 GMT 42.544785 -2.206629 35,000 197 515 0
2022-12-02 08:28:41 GMT 42.549770 -2.204611 35,000 197 515 0
2022-12-02 08:28:39 GMT 42.553448 -2.203078 35,000 197 515 0
2022-12-02 08:28:38 GMT 42.556595 -2.201760 35,000 197 515 0
2022-12-02 08:28:36 GMT 42.558895 -2.200843 35,000 197 515 0
2022-12-02 08:28:35 GMT 42.562088 -2.199513 35,000 197 515 0
2022-12-02 08:28:32 GMT 42.568901 -2.196755 35,000 197 515 0
2022-12-02 08:28:31 GMT 42.573463 -2.194902 35,000 197 515 0
2022-12-02 08:28:27 GMT 42.580307 -2.192085 35,000 197 515 64
2022-12-02 08:28:25 GMT 42.584839 -2.190212 35,000 197 515 64
2022-12-02 08:28:24 GMT 42.587151 -2.189281 35,000 197 515 0
2022-12-02 08:28:23 GMT 42.591713 -2.187365 35,000 197 515 0
2022-12-02 08:28:21 GMT 42.594414 -2.186279 35,000 197 515 0
2022-12-02 08:28:20 GMT 42.596230 -2.185513 35,000 197 515 0
2022-12-02 08:28:18 GMT 42.600792 -2.183660 35,000 197 515 0
2022-12-02 08:28:16 GMT 42.605354 -2.181808 35,000 197 515 0
2022-12-02 08:28:15 GMT 42.608101 -2.180658 35,000 197 515 0
2022-12-02 08:28:12 GMT 42.614914 -2.177852 35,000 197 515 0
2022-12-02 08:28:10 GMT 42.622238 -2.174856 35,000 197 515 0
2022-12-02 08:28:08 GMT 42.624485 -2.173952 35,000 197 515 0
2022-12-02 08:28:07 GMT 42.626301 -2.173185 35,000 197 515 0
2022-12-02 08:28:04 GMT 42.634495 -2.169800 35,000 197 515 0
2022-12-02 08:28:03 GMT 42.636356 -2.169033 35,000 197 515 0
2022-12-02 08:28:01 GMT 42.639542 -2.167740 35,000 197 515 0
2022-12-02 08:28:00 GMT 42.642242 -2.166616 35,000 197 515 0
2022-12-02 08:27:58 GMT 42.646820 -2.164744 35,000 197 515 0
2022-12-02 08:27:57 GMT 42.649998 -2.163412 35,000 197 515 0
2022-12-02 08:27:54 GMT 42.656845 -2.160624 35,000 197 515 0
2022-12-02 08:27:53 GMT 42.659122 -2.159708 35,000 197 515 0
2022-12-02 08:27:52 GMT 42.660934 -2.158941 35,000 197 515 0
2022-12-02 08:27:50 GMT 42.666382 -2.156706 35,000 197 515 0
2022-12-02 08:27:48 GMT 42.670013 -2.155173 35,000 197 515 0
2022-12-02 08:27:47 GMT 42.678680 -2.151635 35,000 197 515 0
2022-12-02 08:27:45 GMT 42.678680 -2.151635 35,000 197 514 0
2022-12-02 08:27:44 GMT 42.680511 -2.150886 35,000 197 514 0
2022-12-02 08:27:42 GMT 42.684128 -2.149388 35,000 197 514 0
2022-12-02 08:27:40 GMT 42.694153 -2.145205 35,000 198 514 0
2022-12-02 08:27:38 GMT 42.694153 -2.145205 35,000 198 514 0
2022-12-02 08:27:37 GMT 42.696457 -2.144250 35,000 198 514 0
2022-12-02 08:27:35 GMT 42.699646 -2.142958 35,000 198 514 0
2022-12-02 08:27:33 GMT 42.702785 -2.141631 35,000 198 514 0
2022-12-02 08:27:31 GMT 42.713726 -2.137096 35,000 198 514 0
2022-12-02 08:27:29 GMT 42.713726 -2.137096 35,000 198 514 0
2022-12-02 08:27:27 GMT 42.718735 -2.135031 35,000 198 514 0
2022-12-02 08:27:25 GMT 42.727367 -2.131412 35,000 198 514 0
2022-12-02 08:27:23 GMT 42.727367 -2.131412 35,000 198 514 0
2022-12-02 08:27:21 GMT 42.731930 -2.129495 35,000 198 515 0
2022-12-02 08:27:19 GMT 42.736908 -2.127353 35,000 198 515 0
2022-12-02 08:27:17 GMT 42.744637 -2.124130 35,000 198 515 -64
2022-12-02 08:27:15 GMT 42.747849 -2.122796 35,000 198 515 0
2022-12-02 08:27:14 GMT 42.747849 -2.122796 35,000 198 515 0
2022-12-02 08:27:12 GMT 42.752380 -2.120861 35,000 198 515 0
2022-12-02 08:27:10 GMT 42.757828 -2.118551 35,000 198 515 0
2022-12-02 08:27:08 GMT 42.761024 -2.117168 35,000 198 515 0
2022-12-02 08:27:05 GMT 42.767853 -2.114306 35,000 198 515 0
2022-12-02 08:27:03 GMT 42.772385 -2.112371 35,000 198 515 0
2022-12-02 08:27:01 GMT 42.776917 -2.110436 35,000 198 515 0
2022-12-02 08:27:00 GMT 42.781494 -2.108501 35,000 198 515 0
2022-12-02 08:26:58 GMT 42.783741 -2.107523 35,000 198 515 0
2022-12-02 08:26:57 GMT 42.789188 -2.105159 35,000 198 515 0
2022-12-02 08:26:55 GMT 42.790558 -2.104568 35,000 198 515 0
2022-12-02 08:26:53 GMT 42.795090 -2.102633 35,000 198 515 0
2022-12-02 08:26:52 GMT 42.797836 -2.101510 35,000 198 515 0
2022-12-02 08:26:51 GMT 42.800125 -2.100497 35,000 198 515 0
2022-12-02 08:26:50 GMT 42.802368 -2.099512 35,000 198 515 0
2022-12-02 08:26:47 GMT 42.809204 -2.096623 35,000 198 515 0
2022-12-02 08:26:46 GMT 42.811478 -2.095642 35,000 198 515 0
2022-12-02 08:26:44 GMT 42.816010 -2.093726 35,000 198 515 0
2022-12-02 08:26:43 GMT 42.818756 -2.092512 35,000 198 515 0
2022-12-02 08:26:42 GMT 42.821030 -2.091522 35,000 198 515 0
2022-12-02 08:26:40 GMT 42.825119 -2.089830 35,000 198 515 0
2022-12-02 08:26:39 GMT 42.828293 -2.088449 35,000 198 515 0
2022-12-02 08:26:37 GMT 42.830566 -2.087466 35,000 198 515 0
2022-12-02 08:26:36 GMT 42.832855 -2.086487 35,000 198 515 0
2022-12-02 08:26:34 GMT 42.837368 -2.084525 35,000 198 515 64
2022-12-02 08:26:32 GMT 42.846039 -2.080823 35,000 198 515 64
2022-12-02 08:26:30 GMT 42.846039 -2.080823 35,000 198 515 64
2022-12-02 08:26:29 GMT 42.848309 -2.079882 35,000 198 515 64
2022-12-02 08:26:28 GMT 42.852825 -2.077920 35,000 198 516 64
2022-12-02 08:26:26 GMT 42.856018 -2.076544 35,000 198 516 0
2022-12-02 08:26:25 GMT 42.858318 -2.075566 35,000 198 516 0
2022-12-02 08:26:24 GMT 42.865128 -2.072647 35,000 198 515 0
2022-12-02 08:26:22 GMT 42.865128 -2.072647 35,000 198 515 0
2022-12-02 08:26:19 GMT 42.872406 -2.069518 35,000 198 515 -64
2022-12-02 08:26:18 GMT 42.874657 -2.068503 35,000 198 515 -64
2022-12-02 08:26:16 GMT 42.879219 -2.066541 35,000 198 515 -64
2022-12-02 08:26:15 GMT 42.881035 -2.065822 35,000 198 515 -64
2022-12-02 08:26:14 GMT 42.883347 -2.064791 35,000 198 515 -64
2022-12-02 08:26:13 GMT 42.887878 -2.062875 35,000 198 515 -64
2022-12-02 08:26:11 GMT 42.890160 -2.061898 35,000 198 515 0
2022-12-02 08:26:10 GMT 42.892456 -2.060959 35,000 198 515 0
2022-12-02 08:26:09 GMT 42.897423 -2.058825 35,000 198 515 0
2022-12-02 08:26:07 GMT 42.899284 -2.058040 35,000 198 515 0
2022-12-02 08:26:05 GMT 42.905182 -2.055529 35,000 198 515 0
2022-12-02 08:26:02 GMT 42.909714 -2.053549 35,000 198 515 0
2022-12-02 08:26:01 GMT 42.912926 -2.052220 35,000 198 515 0
2022-12-02 08:26:00 GMT 42.915668 -2.051043 35,000 198 515 0
2022-12-02 08:25:58 GMT 42.920654 -2.048886 35,000 198 516 0
2022-12-02 08:25:56 GMT 42.924747 -2.047185 35,000 198 516 0
2022-12-02 08:25:55 GMT 42.927017 -2.046204 35,000 198 516 0
2022-12-02 08:25:54 GMT 42.928848 -2.045437 35,000 198 516 0
2022-12-02 08:25:52 GMT 42.934296 -2.043074 35,000 198 516 0
2022-12-02 08:25:51 GMT 42.936619 -2.042084 35,000 198 517 0
2022-12-02 08:25:49 GMT 42.941135 -2.040122 35,000 198 517 0
2022-12-02 08:25:47 GMT 42.945698 -2.038160 35,000 198 517 0
2022-12-02 08:25:45 GMT 42.949326 -2.036591 35,000 198 517 0
2022-12-02 08:25:44 GMT 42.951645 -2.035664 35,000 198 517 0
2022-12-02 08:25:43 GMT 42.954346 -2.034451 35,000 198 517 0
2022-12-02 08:25:40 GMT 42.961624 -2.031321 35,000 198 517 64
2022-12-02 08:25:39 GMT 42.963898 -2.030313 35,000 198 517 0
2022-12-02 08:25:38 GMT 42.970322 -2.027566 35,000 198 517 0
2022-12-02 08:25:36 GMT 42.970322 -2.027566 35,000 198 517 0
2022-12-02 08:25:34 GMT 42.974838 -2.025604 35,000 198 517 0
2022-12-02 08:25:32 GMT 42.979401 -2.023642 35,000 198 517 0
2022-12-02 08:25:31 GMT 42.981674 -2.022698 35,000 198 517 0
2022-12-02 08:25:29 GMT 42.987167 -2.020335 35,000 198 517 0
2022-12-02 08:25:27 GMT 42.991699 -2.018355 35,000 198 517 64
2022-12-02 08:25:26 GMT 42.993973 -2.017365 35,000 198 517 64
2022-12-02 08:25:25 GMT 42.996277 -2.016374 35,000 198 517 64
2022-12-02 08:25:24 GMT 43.000809 -2.014394 35,000 198 517 0
2022-12-02 08:25:22 GMT 43.003094 -2.013441 35,000 198 517 0
2022-12-02 08:25:20 GMT 43.009964 -2.010498 35,000 198 517 0
2022-12-02 08:25:17 GMT 43.014965 -2.008340 35,000 198 517 0
2022-12-02 08:25:13 GMT 43.021343 -2.005528 35,000 198 517 0
2022-12-02 08:25:10 GMT 43.027267 -2.002961 35,000 198 517 0
2022-12-02 08:25:09 GMT 43.030468 -2.001604 35,000 198 517 0
2022-12-02 08:25:06 GMT 43.037731 -1.998400 35,000 198 517 0
2022-12-02 08:25:05 GMT 43.041870 -1.996574 35,000 198 517 0
2022-12-02 08:25:03 GMT 43.045040 -1.995196 35,000 198 517 0
2022-12-02 08:25:00 GMT 43.051414 -1.992384 35,000 198 518 0
2022-12-02 08:24:59 GMT 43.053680 -1.991400 35,000 198 518 0
2022-12-02 08:24:58 GMT 43.055981 -1.990422 35,000 198 518 0
2022-12-02 08:24:57 GMT 43.060089 -1.988589 35,000 198 518 0
2022-12-02 08:24:55 GMT 43.063286 -1.987217 35,000 198 518 0
2022-12-02 08:24:54 GMT 43.065536 -1.986226 35,000 198 518 0
2022-12-02 08:24:52 GMT 43.070114 -1.984182 35,000 198 518 0
2022-12-02 08:24:50 GMT 43.074692 -1.982202 35,000 198 518 0
2022-12-02 08:24:49 GMT 43.076477 -1.981372 35,000 198 518 0
2022-12-02 08:24:48 GMT 43.083305 -1.978389 35,000 198 518 0
2022-12-02 08:24:46 GMT 43.083305 -1.978389 35,000 198 518 0
2022-12-02 08:24:45 GMT 43.086502 -1.976964 35,000 198 517 0
2022-12-02 08:24:43 GMT 43.091080 -1.974984 35,000 198 517 0
2022-12-02 08:24:42 GMT 43.093361 -1.974008 35,000 198 517 0
2022-12-02 08:24:41 GMT 43.095657 -1.973004 35,000 198 517 0
2022-12-02 08:24:40 GMT 43.100670 -1.970803 35,000 198 518 0
2022-12-02 08:24:38 GMT 43.102936 -1.969810 35,000 198 518 0
2022-12-02 08:24:35 GMT 43.110260 -1.966680 35,000 198 518 0
2022-12-02 08:24:34 GMT 43.112541 -1.965637 35,000 198 518 0
2022-12-02 08:24:33 GMT 43.114353 -1.964852 35,000 198 518 0
2022-12-02 08:24:30 GMT 43.121201 -1.961890 35,000 198 518 0
2022-12-02 08:24:28 GMT 43.128525 -1.958760 35,000 198 518 0
2022-12-02 08:24:24 GMT 43.132603 -1.957005 35,000 198 518 0
2022-12-02 08:24:21 GMT 43.140842 -1.953474 35,000 198 518 0
2022-12-02 08:24:20 GMT 43.144958 -1.951670 35,000 198 518 0
2022-12-02 08:24:17 GMT 43.148621 -1.950073 35,000 198 518 0
2022-12-02 08:24:16 GMT 43.150898 -1.949092 35,000 198 518 0
2022-12-02 08:24:15 GMT 43.154114 -1.947710 35,000 198 518 0
2022-12-02 08:24:14 GMT 43.157276 -1.946346 35,000 198 518 0
2022-12-02 08:24:13 GMT 43.159561 -1.945347 35,000 198 518 0
2022-12-02 08:24:11 GMT 43.165970 -1.942600 35,000 198 518 0
2022-12-02 08:24:08 GMT 43.171463 -1.940237 35,000 198 519 0
2022-12-02 08:24:06 GMT 43.176041 -1.938257 35,000 198 519 0
2022-12-02 08:24:03 GMT 43.186066 -1.933977 35,000 198 519 0
2022-12-02 08:24:00 GMT 43.188812 -1.932763 35,000 198 519 64
2022-12-02 08:23:59 GMT 43.190189 -1.932155 35,000 198 519 64
2022-12-02 08:23:58 GMT 43.192474 -1.931167 35,000 198 518 0
2022-12-02 08:23:56 GMT 43.202545 -1.926887 35,000 198 518 0
2022-12-02 08:23:54 GMT 43.202545 -1.926887 35,000 198 518 0
2022-12-02 08:23:52 GMT 43.207123 -1.924907 35,000 198 518 0
2022-12-02 08:23:50 GMT 43.211700 -1.922863 35,000 198 518 0
2022-12-02 08:23:48 GMT 43.216232 -1.920883 35,000 199 518 0
2022-12-02 08:23:46 GMT 43.221287 -1.918684 35,000 199 518 0
2022-12-02 08:23:44 GMT 43.226257 -1.916412 35,000 199 518 -64
2022-12-02 08:23:41 GMT 43.235367 -1.912132 35,000 201 519 -64
2022-12-02 08:23:39 GMT 43.237625 -1.911033 35,000 202 520 0
2022-12-02 08:23:36 GMT 43.246078 -1.906320 35,000 204 521 0
2022-12-02 08:23:35 GMT 43.246078 -1.906320 35,000 206 522 0
2022-12-02 08:23:34 GMT 43.250473 -1.903573 35,000 206 522 0
2022-12-02 08:23:31 GMT 43.255177 -1.900242 35,000 209 523 0
2022-12-02 08:23:29 GMT 43.258163 -1.898016 35,000 210 523 0
2022-12-02 08:23:28 GMT 43.261135 -1.895730 35,000 215 525 0
2022-12-02 08:23:27 GMT 43.263603 -1.893703 35,000 215 525 0
2022-12-02 08:23:23 GMT 43.270908 -1.887098 35,000 217 527 0
2022-12-02 08:23:21 GMT 43.275970 -1.881920 35,000 219 526 0
2022-12-02 08:23:20 GMT 43.277527 -1.880259 35,000 220 527 0
2022-12-02 08:23:19 GMT 43.279430 -1.878204 35,000 220 527 0
2022-12-02 08:23:18 GMT 43.281666 -1.875589 35,000 221 527 0
2022-12-02 08:23:17 GMT 43.283154 -1.873888 35,000 224 528 0
2022-12-02 08:23:15 GMT 43.286739 -1.869376 35,000 225 528 0
2022-12-02 08:23:11 GMT 43.291626 -1.862771 35,000 227 528 0
2022-12-02 08:23:10 GMT 43.293274 -1.860394 35,000 228 528 0
2022-12-02 08:23:08 GMT 43.297211 -1.854390 35,000 230 528 64
2022-12-02 08:23:06 GMT 43.300655 -1.848777 35,000 232 528 64
2022-12-02 08:23:05 GMT 43.303635 -1.843480 35,000 233 528 0
2022-12-02 08:23:02 GMT 43.306568 -1.838117 35,000 235 528 0
2022-12-02 08:23:01 GMT 43.307732 -1.836025 35,000 235 528 0
2022-12-02 08:22:59 GMT 43.314835 -1.822325 35,000 236 528 0
2022-12-02 08:22:57 GMT 43.314835 -1.822325 35,000 236 528 0
2022-12-02 08:22:55 GMT 43.316765 -1.818499 35,000 236 527 0
2022-12-02 08:22:53 GMT 43.320282 -1.811275 35,000 237 528 0
2022-12-02 08:22:50 GMT 43.323532 -1.804632 35,000 237 528 0
2022-12-02 08:22:48 GMT 43.326828 -1.797925 35,000 237 527 0
2022-12-02 08:22:47 GMT 43.329800 -1.791818 35,000 237 528 0
2022-12-02 08:22:44 GMT 43.332546 -1.786325 35,000 237 528 0
2022-12-02 08:22:43 GMT 43.335804 -1.779654 35,000 237 528 0
2022-12-02 08:22:41 GMT 43.338505 -1.774096 35,000 237 528 0
2022-12-02 08:22:39 GMT 43.338505 -1.774096 35,000 237 528 0
2022-12-02 08:22:37 GMT 43.341808 -1.767426 35,000 237 528 0
2022-12-02 08:22:36 GMT 43.344772 -1.761326 35,000 237 528 0
2022-12-02 08:22:34 GMT 43.346138 -1.758532 35,000 237 528 0
2022-12-02 08:22:32 GMT 43.348068 -1.754683 35,000 237 528 0
2022-12-02 08:22:31 GMT 43.349670 -1.751361 35,000 237 528 0
2022-12-02 08:22:29 GMT 43.352703 -1.745257 35,000 237 528 0
2022-12-02 08:22:28 GMT 43.354889 -1.740810 35,000 237 528 0
2022-12-02 08:22:25 GMT 43.358414 -1.733604 35,000 237 528 0
2022-12-02 08:22:23 GMT 43.360611 -1.729197 35,000 236 527 64
2022-12-02 08:22:21 GMT 43.363861 -1.722490 35,000 236 527 64
2022-12-02 08:22:20 GMT 43.367157 -1.715847 35,000 236 527 64
2022-12-02 08:22:15 GMT 43.375050 -1.699807 35,000 236 527 64
2022-12-02 08:22:13 GMT 43.375050 -1.699807 35,000 236 527 64
2022-12-02 08:22:09 GMT 43.380543 -1.688690 35,000 236 527 0
2022-12-02 08:22:07 GMT 43.383286 -1.683132 35,000 236 527 0
2022-12-02 08:22:04 GMT 43.385742 -1.678162 35,000 236 527 0
2022-12-02 08:22:02 GMT 43.388443 -1.672605 35,000 236 527 0
2022-12-02 08:22:00 GMT 43.391479 -1.666521 35,000 236 527 0
2022-12-02 08:21:59 GMT 43.394180 -1.660963 35,000 236 527 0
2022-12-02 08:21:57 GMT 43.395855 -1.657693 35,000 236 527 0
2022-12-02 08:21:56 GMT 43.398045 -1.653246 35,000 236 527 0
2022-12-02 08:21:53 GMT 43.401031 -1.647119 35,000 236 527 0
2022-12-02 08:21:51 GMT 43.403732 -1.641562 35,000 237 528 0
2022-12-02 08:21:50 GMT 43.405121 -1.638794 35,000 237 528 0
2022-12-02 08:21:49 GMT 43.407822 -1.633235 35,000 237 528 0
2022-12-02 08:21:47 GMT 43.409451 -1.629966 35,000 237 527 0
2022-12-02 08:21:46 GMT 43.413574 -1.621633 35,000 237 527 0
2022-12-02 08:21:44 GMT 43.413574 -1.621633 35,000 237 527 0
2022-12-02 08:21:43 GMT 43.414894 -1.618849 35,000 237 527 0
2022-12-02 08:21:41 GMT 43.417877 -1.612691 35,000 237 526 0
2022-12-02 08:21:40 GMT 43.419273 -1.609955 35,000 237 526 0
2022-12-02 08:21:38 GMT 43.422226 -1.603812 35,000 237 527 0
2022-12-02 08:21:37 GMT 43.423325 -1.601577 35,000 237 527 0
2022-12-02 08:21:35 GMT 43.426025 -1.596020 35,000 237 527 0
2022-12-02 08:21:33 GMT 43.428444 -1.590990 35,000 236 527 0
2022-12-02 08:21:31 GMT 43.431145 -1.585432 35,000 236 527 0
2022-12-02 08:21:30 GMT 43.432480 -1.582670 35,000 235 527 0
2022-12-02 08:21:27 GMT 43.436684 -1.574380 35,000 235 527 0
2022-12-02 08:21:26 GMT 43.438358 -1.571176 35,000 234 527 0
2022-12-02 08:21:25 GMT 43.441292 -1.565748 35,000 233 527 0
2022-12-02 08:21:23 GMT 43.442455 -1.563590 35,000 233 527 0
2022-12-02 08:21:22 GMT 43.443924 -1.560953 35,000 232 528 0
2022-12-02 08:21:20 GMT 43.446899 -1.555651 35,000 232 528 0
2022-12-02 08:21:18 GMT 43.450607 -1.549392 35,000 230 527 0
2022-12-02 08:21:16 GMT 43.453720 -1.544282 35,000 230 528 0
2022-12-02 08:21:15 GMT 43.454651 -1.542729 35,000 229 528 0
2022-12-02 08:21:14 GMT 43.456238 -1.540194 35,000 229 527 0
2022-12-02 08:21:12 GMT 43.460129 -1.534190 35,000 228 528 0
2022-12-02 08:21:11 GMT 43.461124 -1.532658 35,000 228 527 0
2022-12-02 08:21:10 GMT 43.462784 -1.530229 35,000 227 528 0
2022-12-02 08:21:07 GMT 43.467781 -1.522914 35,000 226 527 0
2022-12-02 08:21:05 GMT 43.471176 -1.518075 35,000 226 528 0
2022-12-02 08:21:04 GMT 43.473274 -1.515263 35,000 225 527 0
2022-12-02 08:21:03 GMT 43.475006 -1.512920 35,000 224 527 0
2022-12-02 08:21:02 GMT 43.478531 -1.508257 35,000 223 527 0
2022-12-02 08:21:00 GMT 43.480682 -1.505574 35,000 223 527 0
2022-12-02 08:20:59 GMT 43.482834 -1.502827 35,000 223 527 0
2022-12-02 08:20:57 GMT 43.486450 -1.498356 35,000 221 526 0
2022-12-02 08:20:54 GMT 43.493477 -1.490086 35,000 219 526 0
2022-12-02 08:20:51 GMT 43.497246 -1.485835 35,000 219 526 0
2022-12-02 08:20:50 GMT 43.499527 -1.483350 35,000 219 526 0
2022-12-02 08:20:48 GMT 43.507210 -1.475176 35,000 217 526 -64
2022-12-02 08:20:46 GMT 43.507210 -1.475176 35,000 217 525 -64
2022-12-02 08:20:45 GMT 43.515121 -1.467460 35,000 215 524 0
2022-12-02 08:20:42 GMT 43.515121 -1.467460 35,000 215 524 0
2022-12-02 08:20:40 GMT 43.518723 -1.464056 35,000 214 525 0
2022-12-02 08:20:38 GMT 43.522797 -1.460351 35,000 214 524 0
2022-12-02 08:20:37 GMT 43.524807 -1.458566 35,000 214 524 0
2022-12-02 08:20:36 GMT 43.527649 -1.456008 35,000 214 524 0
2022-12-02 08:20:34 GMT 43.530075 -1.453772 35,000 214 524 0
2022-12-02 08:20:32 GMT 43.535328 -1.449018 35,000 214 524 0
2022-12-02 08:20:30 GMT 43.541428 -1.443552 35,000 214 524 0
2022-12-02 08:20:26 GMT 43.548313 -1.437378 35,000 214 524 0
2022-12-02 08:20:25 GMT 43.550354 -1.435568 35,000 214 524 0
2022-12-02 08:20:23 GMT 43.553204 -1.432996 35,000 214 524 0
2022-12-02 08:20:21 GMT 43.557255 -1.429334 35,000 214 524 0
2022-12-02 08:20:19 GMT 43.560059 -1.426817 35,000 214 524 0
2022-12-02 08:20:18 GMT 43.562096 -1.424953 35,000 214 524 0
2022-12-02 08:20:17 GMT 43.569405 -1.418413 35,000 214 524 0
2022-12-02 08:20:15 GMT 43.572662 -1.415471 35,000 214 523 0
2022-12-02 08:20:11 GMT 43.576714 -1.411874 35,000 214 523 0
2022-12-02 08:20:08 GMT 43.582809 -1.406378 35,000 214 523 0
2022-12-02 08:20:07 GMT 43.584812 -1.404550 35,000 214 523 0
2022-12-02 08:20:06 GMT 43.586441 -1.403111 35,000 214 523 0
2022-12-02 08:20:04 GMT 43.590912 -1.399096 35,000 214 523 0
2022-12-02 08:20:03 GMT 43.592911 -1.397291 35,000 214 523 0
2022-12-02 08:20:02 GMT 43.597008 -1.393629 35,000 214 523 0
2022-12-02 08:20:00 GMT 43.598591 -1.392190 35,000 214 523 0
2022-12-02 08:19:59 GMT 43.601059 -1.390032 35,000 214 523 0
2022-12-02 08:19:57 GMT 43.605110 -1.386370 35,000 214 523 0
2022-12-02 08:19:55 GMT 43.608322 -1.383493 35,000 214 523 0
2022-12-02 08:19:54 GMT 43.610786 -1.381269 35,000 214 523 0
2022-12-02 08:19:52 GMT 43.616043 -1.376549 35,000 214 523 0
2022-12-02 08:19:51 GMT 43.617645 -1.375143 35,000 214 523 0
2022-12-02 08:19:50 GMT 43.619678 -1.373291 35,000 214 523 0
2022-12-02 08:19:48 GMT 43.623730 -1.369629 35,000 214 523 64
2022-12-02 08:19:47 GMT 43.625793 -1.367862 35,000 213 523 64
2022-12-02 08:19:45 GMT 43.629822 -1.364221 35,000 213 523 64
2022-12-02 08:19:43 GMT 43.633896 -1.360580 35,000 213 523 64
2022-12-02 08:19:41 GMT 43.637146 -1.357642 35,000 213 523 64
2022-12-02 08:19:40 GMT 43.639187 -1.355831 35,000 213 523 64
2022-12-02 08:19:38 GMT 43.644028 -1.351515 35,000 213 523 64
2022-12-02 08:19:36 GMT 43.648125 -1.347852 35,000 213 523 64
2022-12-02 08:19:34 GMT 43.651749 -1.344612 35,000 213 523 64
2022-12-02 08:19:32 GMT 43.654999 -1.341673 35,000 213 523 0
2022-12-02 08:19:31 GMT 43.657013 -1.339874 35,000 213 523 0
2022-12-02 08:19:30 GMT 43.659897 -1.337330 35,000 213 523 0
2022-12-02 08:19:29 GMT 43.663925 -1.333689 35,000 213 524 0
2022-12-02 08:19:26 GMT 43.668823 -1.329346 35,000 213 524 0
2022-12-02 08:19:25 GMT 43.670841 -1.327580 35,000 213 524 0
2022-12-02 08:19:23 GMT 43.674500 -1.324300 35,000 213 524 0
2022-12-02 08:19:22 GMT 43.679779 -1.319602 35,000 213 524 0
2022-12-02 08:19:20 GMT 43.681824 -1.317785 35,000 213 523 0
2022-12-02 08:19:17 GMT 43.687500 -1.312675 35,000 213 523 0
2022-12-02 08:19:16 GMT 43.689507 -1.310839 35,000 213 523 0
2022-12-02 08:19:14 GMT 43.694000 -1.306862 35,000 213 523 0
2022-12-02 08:19:12 GMT 43.696026 -1.305019 35,000 214 523 0
2022-12-02 08:19:11 GMT 43.698444 -1.302861 35,000 214 523 0
2022-12-02 08:19:10 GMT 43.701324 -1.300347 35,000 214 523 0
2022-12-02 08:19:06 GMT 43.711075 -1.291596 35,000 214 523 0
2022-12-02 08:19:04 GMT 43.713112 -1.289782 35,000 214 523 0
2022-12-02 08:19:03 GMT 43.714691 -1.288343 35,000 214 523 0
2022-12-02 08:19:02 GMT 43.716751 -1.286486 35,000 214 523 0
2022-12-02 08:18:59 GMT 43.722000 -1.281738 35,000 214 523 0
2022-12-02 08:18:58 GMT 43.724030 -1.279907 35,000 214 523 0
2022-12-02 08:18:56 GMT 43.728519 -1.275918 35,000 214 523 0
2022-12-02 08:18:55 GMT 43.730530 -1.274095 35,000 214 523 0
2022-12-02 08:18:53 GMT 43.734604 -1.270454 35,000 214 524 64
2022-12-02 08:18:52 GMT 43.736206 -1.268985 35,000 214 524 0
2022-12-02 08:18:50 GMT 43.748428 -1.257998 35,000 214 524 0
2022-12-02 08:18:47 GMT 43.748428 -1.257998 35,000 214 524 0
2022-12-02 08:18:45 GMT 43.751678 -1.255060 35,000 214 524 0
2022-12-02 08:18:43 GMT 43.757355 -1.249950 35,000 214 525 0
2022-12-02 08:18:40 GMT 43.761013 -1.246687 35,000 214 525 0
2022-12-02 08:18:39 GMT 43.765457 -1.242669 35,000 214 525 0
2022-12-02 08:18:35 GMT 43.773209 -1.235700 35,000 214 525 0
2022-12-02 08:18:32 GMT 43.778458 -1.230980 35,000 214 525 0
2022-12-02 08:18:25 GMT 43.791924 -1.218894 35,000 214 525 0
2022-12-02 08:18:22 GMT 43.798393 -1.213008 35,000 214 525 0
2022-12-02 08:18:15 GMT 43.812653 -1.200192 35,000 214 525 0
2022-12-02 08:18:11 GMT 43.819527 -1.193978 35,000 214 525 0
2022-12-02 08:18:06 GMT 43.832153 -1.182563 35,000 214 525 0
2022-12-02 08:18:00 GMT 43.842293 -1.173379 35,000 214 525 0
2022-12-02 08:17:56 GMT 43.852478 -1.164168 35,000 214 525 0
2022-12-02 08:17:51 GMT 43.862637 -1.155003 35,000 214 526 0
2022-12-02 08:17:44 GMT 43.874405 -1.144303 35,000 214 526 64
2022-12-02 08:17:40 GMT 43.886238 -1.133554 35,000 214 526 64
2022-12-02 08:17:34 GMT 43.894337 -1.126164 35,000 214 526 0
2022-12-02 08:17:30 GMT 43.904526 -1.116901 35,000 214 526 0
2022-12-02 08:17:25 GMT 43.913891 -1.108377 35,000 214 526 0
2022-12-02 08:17:21 GMT 43.924458 -1.098764 35,000 214 527 0
2022-12-02 08:17:15 GMT 43.934647 -1.089499 35,000 214 527 0
2022-12-02 08:17:12 GMT 43.940369 -1.084325 35,000 214 527 0
2022-12-02 08:17:10 GMT 43.944443 -1.080620 35,000 214 527 0
2022-12-02 08:17:05 GMT 43.955017 -1.070911 35,000 214 527 0
2022-12-02 08:16:58 GMT 43.968494 -1.058677 35,000 214 527 0
2022-12-02 08:16:55 GMT 43.975388 -1.052388 35,000 214 527 0
2022-12-02 08:16:50 GMT 43.986420 -1.042328 35,000 214 527 0
2022-12-02 08:16:44 GMT 43.996628 -1.033034 35,000 214 527 0
2022-12-02 08:16:40 GMT 44.006809 -1.023756 35,000 214 529 0
2022-12-02 08:16:34 GMT 44.017822 -1.013680 35,000 214 529 0
2022-12-02 08:16:29 GMT 44.028034 -1.004399 35,000 214 529 0
2022-12-02 08:16:24 GMT 44.037857 -0.995440 35,000 214 529 0
2022-12-02 08:16:19 GMT 44.048473 -0.985761 35,000 214 529 0
2022-12-02 08:16:14 GMT 44.058296 -0.976802 35,000 214 530 0
2022-12-02 08:16:10 GMT 44.069321 -0.966669 35,000 214 530 0
2022-12-02 08:16:03 GMT 44.080360 -0.956595 35,000 214 530 0
2022-12-02 08:15:59 GMT 44.089783 -0.948018 35,000 214 530 0
2022-12-02 08:15:54 GMT 44.100845 -0.937892 35,000 214 531 0
2022-12-02 08:15:48 GMT 44.111938 -0.927834 35,000 214 531 0
2022-12-02 08:15:45 GMT 44.119698 -0.920694 35,000 214 531 0
2022-12-02 08:15:42 GMT 44.123001 -0.917751 35,000 214 531 0
2022-12-02 08:15:38 GMT 44.132034 -0.909511 35,000 214 531 0
2022-12-02 08:15:33 GMT 44.143112 -0.899346 35,000 214 531 64
2022-12-02 08:15:29 GMT 44.152130 -0.891106 35,000 214 531 64
2022-12-02 08:15:22 GMT 44.164444 -0.879800 35,000 214 531 64
2022-12-02 08:15:18 GMT 44.173046 -0.871909 35,000 214 532 0
2022-12-02 08:15:15 GMT 44.180878 -0.864790 35,000 214 532 0
2022-12-02 08:15:12 GMT 44.184998 -0.861022 35,000 214 532 0
2022-12-02 08:15:08 GMT 44.195251 -0.851574 35,000 214 532 0
2022-12-02 08:15:02 GMT 44.206375 -0.841435 35,000 214 532 0
2022-12-02 08:14:57 GMT 44.215828 -0.832750 35,000 214 533 0
2022-12-02 08:14:52 GMT 44.227798 -0.821817 35,000 214 533 0
2022-12-02 08:14:47 GMT 44.237686 -0.812792 35,000 214 534 0
2022-12-02 08:14:41 GMT 44.248398 -0.802983 35,000 214 534 0
2022-12-02 08:14:39 GMT 44.254559 -0.797313 35,000 214 534 0
2022-12-02 08:14:36 GMT 44.261963 -0.790480 35,000 214 534 0
2022-12-02 08:14:33 GMT 44.265701 -0.787092 35,000 214 534 0
2022-12-02 08:14:29 GMT 44.273941 -0.779506 35,000 214 534 0
2022-12-02 08:14:26 GMT 44.280117 -0.773799 35,000 214 534 0
2022-12-02 08:14:21 GMT 44.292068 -0.762765 35,000 214 534 0
2022-12-02 08:14:19 GMT 44.295757 -0.759329 35,000 214 534 0
2022-12-02 08:14:16 GMT 44.301956 -0.753610 35,000 214 534 0
2022-12-02 08:14:13 GMT 44.308140 -0.747941 35,000 214 535 0
2022-12-02 08:14:09 GMT 44.315140 -0.741446 35,000 214 535 0
2022-12-02 08:14:07 GMT 44.326675 -0.730787 35,000 214 535 64
2022-12-02 08:14:04 GMT 44.326675 -0.730787 35,000 214 535 64
2022-12-02 08:14:01 GMT 44.331184 -0.726571 35,000 214 535 64
2022-12-02 08:13:58 GMT 44.337387 -0.720847 35,000 214 535 0
2022-12-02 08:13:55 GMT 44.343567 -0.715116 35,000 214 535 0
2022-12-02 08:13:51 GMT 44.352646 -0.706742 35,000 214 536 0
2022-12-02 08:13:48 GMT 44.360092 -0.699842 35,000 214 536 0
2022-12-02 08:13:45 GMT 44.364235 -0.696024 35,000 214 536 0
2022-12-02 08:13:42 GMT 44.371639 -0.689124 35,000 214 536 0
2022-12-02 08:13:39 GMT 44.377029 -0.684161 35,000 214 536 0
2022-12-02 08:13:37 GMT 44.382393 -0.679210 35,000 214 536 0
2022-12-02 08:13:34 GMT 44.387325 -0.674587 35,000 214 536 0
2022-12-02 08:13:31 GMT 44.394775 -0.667687 35,000 214 536 0
2022-12-02 08:13:27 GMT 44.402618 -0.660422 35,000 214 536 0
2022-12-02 08:13:24 GMT 44.408432 -0.655125 35,000 214 537 0
2022-12-02 08:13:21 GMT 44.423729 -0.640958 35,000 214 538 0
2022-12-02 08:13:17 GMT 44.423729 -0.640958 35,000 214 537 0
2022-12-02 08:13:13 GMT 44.437790 -0.627895 35,000 214 537 0
2022-12-02 08:13:10 GMT 44.437790 -0.627895 35,000 214 537 0
2022-12-02 08:13:07 GMT 44.446518 -0.619877 35,000 214 537 0
2022-12-02 08:13:02 GMT 44.453522 -0.613359 35,000 214 538 0
2022-12-02 08:12:58 GMT 44.462646 -0.604918 35,000 214 538 0
2022-12-02 08:12:55 GMT 44.467987 -0.599867 35,000 214 538 0
2022-12-02 08:12:52 GMT 44.475029 -0.593329 35,000 214 538 0
2022-12-02 08:12:46 GMT 44.487461 -0.581806 35,000 214 538 0
2022-12-02 08:12:42 GMT 44.495316 -0.574493 35,000 214 538 0
2022-12-02 08:12:35 GMT 44.510193 -0.560564 35,000 214 538 0
2022-12-02 08:12:32 GMT 44.516830 -0.554417 35,000 214 538 0
2022-12-02 08:12:27 GMT 44.528008 -0.544024 35,000 214 538 0
2022-12-02 08:12:24 GMT 44.532150 -0.540139 35,000 214 538 0
2022-12-02 08:12:21 GMT 44.539597 -0.533239 35,000 214 538 0
2022-12-02 08:12:15 GMT 44.551620 -0.522047 35,000 214 538 0
2022-12-02 08:12:12 GMT 44.557011 -0.517027 35,000 214 538 0
2022-12-02 08:12:09 GMT 44.563202 -0.511257 35,000 214 538 0
2022-12-02 08:12:05 GMT 44.574005 -0.501251 35,000 214 538 0
2022-12-02 08:12:02 GMT 44.580193 -0.495457 35,000 214 538 0
2022-12-02 08:11:58 GMT 44.587280 -0.488892 35,000 214 538 0
2022-12-02 08:11:56 GMT 44.597649 -0.479245 35,000 214 538 0
2022-12-02 08:11:50 GMT 44.603851 -0.473458 35,000 214 538 0
2022-12-02 08:11:45 GMT 44.613831 -0.464238 35,000 214 539 0
2022-12-02 08:11:42 GMT 44.619644 -0.458810 35,000 214 539 0
2022-12-02 08:11:38 GMT 44.631634 -0.447626 35,000 214 539 0
2022-12-02 08:11:34 GMT 44.635391 -0.444096 35,000 214 539 0
2022-12-02 08:11:31 GMT 44.642433 -0.437510 35,000 214 539 0
2022-12-02 08:11:27 GMT 44.651554 -0.429003 35,000 214 539 0
2022-12-02 08:11:24 GMT 44.657330 -0.423577 35,000 214 539 0
2022-12-02 08:11:20 GMT 44.664413 -0.417023 35,000 214 539 0
2022-12-02 08:11:17 GMT 44.672699 -0.409241 35,000 214 539 0
2022-12-02 08:11:14 GMT 44.678089 -0.404216 35,000 214 539 0
2022-12-02 08:11:10 GMT 44.685539 -0.397250 35,000 214 539 0
2022-12-02 08:11:07 GMT 44.692989 -0.390216 35,000 214 539 0
2022-12-02 08:11:03 GMT 44.700027 -0.383606 35,000 214 539 0
2022-12-02 08:11:00 GMT 44.705841 -0.378178 35,000 214 539 0
2022-12-02 08:10:57 GMT 44.719524 -0.365362 35,000 214 539 0
2022-12-02 08:10:54 GMT 44.719524 -0.365362 35,000 214 539 0
2022-12-02 08:10:51 GMT 44.727402 -0.357971 35,000 214 539 0
2022-12-02 08:10:47 GMT 44.734421 -0.351362 35,000 214 539 0
2022-12-02 08:10:44 GMT 44.740631 -0.345546 35,000 214 540 0
2022-12-02 08:10:40 GMT 44.747688 -0.338901 35,000 214 540 0
2022-12-02 08:10:36 GMT 44.755974 -0.331131 35,000 214 540 0
2022-12-02 08:10:33 GMT 44.761791 -0.325704 35,000 214 540 0
2022-12-02 08:10:30 GMT 44.768402 -0.319407 35,000 214 540 0
2022-12-02 08:10:26 GMT 44.777939 -0.310495 35,000 214 540 0
2022-12-02 08:10:23 GMT 44.782928 -0.305786 35,000 214 540 0
2022-12-02 08:10:20 GMT 44.789566 -0.299574 35,000 214 540 0
2022-12-02 08:10:16 GMT 44.797451 -0.292143 35,000 214 540 0
2022-12-02 08:10:13 GMT 44.803665 -0.286298 35,000 214 540 0
2022-12-02 08:10:10 GMT 44.810719 -0.279682 35,000 214 540 0
2022-12-02 08:10:06 GMT 44.817764 -0.273089 35,000 214 540 0
2022-12-02 08:10:03 GMT 44.825226 -0.266091 35,000 214 540 0
2022-12-02 08:10:00 GMT 44.831863 -0.259814 35,000 214 540 0
2022-12-02 08:09:56 GMT 44.839767 -0.252418 35,000 214 540 0
2022-12-02 08:09:53 GMT 44.846378 -0.246188 35,000 214 540 0
2022-12-02 08:09:50 GMT 44.852600 -0.240326 35,000 214 540 0
2022-12-02 08:09:46 GMT 44.860886 -0.232544 35,000 214 539 0
2022-12-02 08:09:43 GMT 44.866699 -0.227051 35,000 214 539 0
2022-12-02 08:09:40 GMT 44.872913 -0.221200 35,000 214 539 0
2022-12-02 08:09:37 GMT 44.881577 -0.212926 35,000 214 539 0
2022-12-02 08:09:33 GMT 44.887810 -0.207065 35,000 214 539 0
2022-12-02 08:09:30 GMT 44.894852 -0.200435 35,000 214 539 0
2022-12-02 08:09:27 GMT 44.904381 -0.191457 35,000 214 539 0
2022-12-02 08:09:25 GMT 44.904381 -0.191457 35,000 214 539 0
2022-12-02 08:09:22 GMT 44.912666 -0.183619 35,000 214 539 0
2022-12-02 08:09:19 GMT 44.915974 -0.180471 35,000 214 539 0
2022-12-02 08:09:16 GMT 44.922180 -0.174604 35,000 214 539 64
2022-12-02 08:09:13 GMT 44.928818 -0.168392 35,000 214 539 0
2022-12-02 08:09:09 GMT 44.936687 -0.160977 35,000 214 538 0
2022-12-02 08:09:05 GMT 44.947441 -0.150794 35,000 214 539 0
2022-12-02 08:09:01 GMT 44.954052 -0.144497 35,000 214 539 0
2022-12-02 08:08:58 GMT 44.959442 -0.139422 35,000 214 539 0
2022-12-02 08:08:54 GMT 44.968113 -0.131233 35,000 214 539 0
2022-12-02 08:08:52 GMT 44.972256 -0.127281 35,000 214 539 0
2022-12-02 08:08:49 GMT 44.976791 -0.123008 35,000 214 539 0
2022-12-02 08:08:46 GMT 44.984684 -0.115557 35,000 214 538 0
2022-12-02 08:08:42 GMT 44.992924 -0.107720 35,000 214 538 0
2022-12-02 08:08:39 GMT 44.998306 -0.102670 35,000 214 538 0
2022-12-02 08:08:35 GMT 45.006145 -0.095260 35,000 214 538 0
2022-12-02 08:08:31 GMT 45.014832 -0.087040 35,000 214 538 0
2022-12-02 08:08:28 GMT 45.020645 -0.081547 35,000 214 538 0
2022-12-02 08:08:25 GMT 45.028488 -0.074091 35,000 214 538 0
2022-12-02 08:08:22 GMT 45.033829 -0.069057 35,000 214 538 0
2022-12-02 08:08:19 GMT 45.041290 -0.061994 35,000 214 538 0
2022-12-02 08:08:15 GMT 45.049114 -0.054530 35,000 214 538 0
2022-12-02 08:08:11 GMT 45.057350 -0.046692 35,000 215 538 0
2022-12-02 08:08:08 GMT 45.063126 -0.041199 35,000 215 538 0
2022-12-02 08:08:04 GMT 45.069736 -0.034969 35,000 215 538 0
2022-12-02 08:08:02 GMT 45.075897 -0.029035 35,000 215 538 0
2022-12-02 08:07:58 GMT 45.083748 -0.021571 35,000 215 538 0
2022-12-02 08:07:55 GMT 45.089520 -0.016078 35,000 215 537 0
2022-12-02 08:07:51 GMT 45.098553 -0.007436 35,000 215 537 0
2022-12-02 08:07:48 GMT 45.104736 -0.001569 35,000 215 537 0
2022-12-02 08:07:45 GMT 45.109680 0.003139 35,000 215 537 0
2022-12-02 08:07:39 GMT 45.122433 0.015341 35,000 215 537 0
2022-12-02 08:07:36 GMT 45.128159 0.020834 35,000 215 537 0
2022-12-02 08:07:33 GMT 45.141724 0.033875 35,000 215 537 0
2022-12-02 08:07:30 GMT 45.141724 0.033875 35,000 215 537 0
2022-12-02 08:07:28 GMT 45.145020 0.037013 35,000 215 537 0
2022-12-02 08:07:25 GMT 45.151203 0.042873 35,000 215 537 0
2022-12-02 08:07:20 GMT 45.161499 0.052708 35,000 215 537 -64
2022-12-02 08:07:17 GMT 45.166843 0.057812 35,000 215 537 -64
2022-12-02 08:07:11 GMT 45.179970 0.070406 35,000 215 532 0
2022-12-02 08:07:07 GMT 45.188210 0.078244 35,000 215 537 64
2022-12-02 08:07:01 GMT 45.200546 0.090034 35,000 215 536 0
2022-12-02 08:06:58 GMT 45.208740 0.097872 35,000 215 536 -64
2022-12-02 08:06:54 GMT 45.214886 0.103767 35,000 215 536 -64
2022-12-02 08:06:48 GMT 45.227177 0.115624 35,000 215 534 64
2022-12-02 08:06:45 GMT 45.235367 0.123462 35,000 215 534 64
2022-12-02 08:06:40 GMT 45.243561 0.131367 35,000 215 534 64
2022-12-02 08:06:37 GMT 45.257435 0.144698 35,000 215 534 0
2022-12-02 08:06:33 GMT 45.257435 0.144698 35,000 215 534 0
2022-12-02 08:06:28 GMT 45.268433 0.155313 35,000 215 533 0
2022-12-02 08:06:24 GMT 45.276581 0.163160 35,000 215 532 0
2022-12-02 08:06:18 GMT 45.288391 0.174575 35,000 215 532 0
2022-12-02 08:06:14 GMT 45.297729 0.183629 35,000 215 531 64
2022-12-02 08:06:11 GMT 45.303799 0.189514 35,000 215 531 64
2022-12-02 08:06:07 GMT 45.311508 0.196969 35,000 215 531 0
2022-12-02 08:06:03 GMT 45.318417 0.203582 35,000 215 531 0
2022-12-02 08:05:58 GMT 45.329777 0.214568 35,000 215 531 64
2022-12-02 08:05:54 GMT 45.338287 0.222800 35,000 215 531 0
2022-12-02 08:05:50 GMT 45.344788 0.229143 35,000 215 532 -64
2022-12-02 08:05:47 GMT 45.353333 0.237345 35,000 215 531 0
2022-12-02 08:05:44 GMT 45.359013 0.242838 35,000 215 531 0
2022-12-02 08:05:38 GMT 45.370789 0.254255 35,000 215 532 64
2022-12-02 08:05:35 GMT 45.381775 0.264811 35,000 215 532 0
2022-12-02 08:05:26 GMT 45.394764 0.277405 35,000 215 531 -64
2022-12-02 08:05:22 GMT 45.401688 0.284075 35,000 215 532 -64
2022-12-02 08:05:16 GMT 45.415108 0.297033 35,000 215 532 0
2022-12-02 08:05:13 GMT 45.420834 0.302526 35,000 215 532 -64
2022-12-02 08:05:10 GMT 45.427349 0.308756 35,000 215 532 -64
2022-12-02 08:05:06 GMT 45.435059 0.316184 35,000 215 531 -64
2022-12-02 08:05:03 GMT 45.441177 0.322087 35,000 215 531 0
2022-12-02 08:05:00 GMT 45.447281 0.327955 35,000 215 532 0
2022-12-02 08:04:57 GMT 45.453373 0.333877 35,000 215 532 0
2022-12-02 08:04:54 GMT 45.459843 0.340174 35,000 215 532 0
2022-12-02 08:04:51 GMT 45.465134 0.345285 35,000 215 532 0
2022-12-02 08:04:47 GMT 45.474060 0.353982 35,000 215 532 0
2022-12-02 08:04:44 GMT 45.478958 0.358691 35,000 215 532 0
2022-12-02 08:04:40 GMT 45.486656 0.366166 35,000 215 532 -64
2022-12-02 08:04:36 GMT 45.498062 0.377220 35,000 215 532 0
2022-12-02 08:04:33 GMT 45.502903 0.381976 35,000 215 532 0
2022-12-02 08:04:30 GMT 45.508209 0.387072 35,000 215 532 0
2022-12-02 08:04:25 GMT 45.524460 0.402832 35,000 215 532 0
2022-12-02 08:04:22 GMT 45.524460 0.402832 35,000 215 532 0
2022-12-02 08:04:19 GMT 45.530556 0.408772 35,000 215 533 0
2022-12-02 08:04:15 GMT 45.538700 0.416677 35,000 215 532 0
2022-12-02 08:04:12 GMT 45.543961 0.421797 35,000 215 532 0
2022-12-02 08:04:09 GMT 45.550900 0.428467 35,000 215 532 0
2022-12-02 08:04:04 GMT 45.561035 0.438381 35,000 215 532 0
2022-12-02 08:04:01 GMT 45.566757 0.443874 35,000 215 532 0
2022-12-02 08:03:57 GMT 45.576923 0.453735 35,000 215 532 64
2022-12-02 08:03:53 GMT 45.584610 0.461292 35,000 215 533 0
2022-12-02 08:03:46 GMT 45.597656 0.473953 35,000 215 533 0
2022-12-02 08:03:42 GMT 45.605759 0.481858 35,000 215 533 0
2022-12-02 08:03:38 GMT 45.614304 0.490128 35,000 215 533 0
2022-12-02 08:03:35 GMT 45.619190 0.494934 35,000 215 533 0
2022-12-02 08:03:32 GMT 45.625710 0.501251 35,000 215 533 0
2022-12-02 08:03:27 GMT 45.636276 0.511551 35,000 215 533 0
2022-12-02 08:03:24 GMT 45.643204 0.518300 35,000 215 533 0
2022-12-02 08:03:20 GMT 45.651730 0.526657 35,000 215 534 0
2022-12-02 08:03:17 GMT 45.657455 0.532219 35,000 215 533 0
2022-12-02 08:03:14 GMT 45.663136 0.537781 35,000 215 533 64
2022-12-02 08:03:09 GMT 45.672913 0.547256 35,000 215 533 64
2022-12-02 08:03:06 GMT 45.687973 0.561977 35,000 215 534 0
2022-12-02 08:03:02 GMT 45.693256 0.567169 35,000 215 534 0
2022-12-02 08:02:59 GMT 45.693256 0.567169 35,000 215 534 0
2022-12-02 08:02:56 GMT 45.698143 0.571976 35,000 215 534 0
2022-12-02 08:02:53 GMT 45.705048 0.578725 35,000 215 534 0
2022-12-02 08:02:50 GMT 45.711178 0.584679 35,000 215 534 0
2022-12-02 08:02:47 GMT 45.719742 0.593061 35,000 215 535 0
2022-12-02 08:02:44 GMT 45.725842 0.599030 35,000 215 535 0
2022-12-02 08:02:41 GMT 45.730728 0.603836 35,000 215 535 0
2022-12-02 08:02:38 GMT 45.735992 0.609071 35,000 215 535 0
2022-12-02 08:02:35 GMT 45.742134 0.615028 35,000 215 535 0
2022-12-02 08:02:31 GMT 45.750237 0.623062 35,000 215 535 0
2022-12-02 08:02:25 GMT 45.771011 0.643437 35,000 215 534 0
2022-12-02 08:02:21 GMT 45.771011 0.643437 35,000 215 537 0
2022-12-02 08:02:16 GMT 45.780762 0.653017 35,000 215 535 0
2022-12-02 08:02:13 GMT 45.787708 0.659866 35,000 215 535 0
2022-12-02 08:02:09 GMT 45.794632 0.666683 35,000 215 535 0
2022-12-02 08:02:03 GMT 45.815002 0.686712 35,000 215 535 64
2022-12-02 08:02:00 GMT 45.815002 0.686712 35,000 215 535 0
2022-12-02 08:01:55 GMT 45.823555 0.695091 35,000 215 535 64
2022-12-02 08:01:51 GMT 45.832493 0.703949 35,000 215 535 0
2022-12-02 08:01:46 GMT 45.842697 0.713910 35,000 215 535 0
2022-12-02 08:01:43 GMT 45.848419 0.719538 35,000 215 535 0
2022-12-02 08:01:39 GMT 45.856567 0.727576 35,000 215 535 0
2022-12-02 08:01:36 GMT 45.863068 0.734007 35,000 215 535 0
2022-12-02 08:01:33 GMT 45.868790 0.739634 35,000 215 535 0
2022-12-02 08:01:30 GMT 45.874512 0.745262 35,000 215 535 0
2022-12-02 08:01:27 GMT 45.880630 0.751328 35,000 215 535 0
2022-12-02 08:01:24 GMT 45.885910 0.756516 35,000 215 535 0
2022-12-02 08:01:21 GMT 45.893661 0.764168 35,000 215 535 0
2022-12-02 08:01:17 GMT 45.900181 0.770622 35,000 215 535 64
2022-12-02 08:01:13 GMT 45.910355 0.780699 35,000 215 535 64
2022-12-02 08:01:11 GMT 45.913216 0.783531 35,000 215 535 64
2022-12-02 08:01:08 GMT 45.919731 0.789986 35,000 215 537 64
2022-12-02 08:01:03 GMT 45.931183 0.801247 35,000 215 537 0
2022-12-02 08:01:01 GMT 45.934021 0.804079 35,000 215 537 0
2022-12-02 08:00:58 GMT 45.939331 0.809349 35,000 215 537 0
2022-12-02 08:00:55 GMT 45.946289 0.816204 35,000 215 537 0
2022-12-02 08:00:52 GMT 45.952011 0.821831 35,000 215 537 0
2022-12-02 08:00:49 GMT 45.959335 0.829133 35,000 215 537 0
2022-12-02 08:00:44 GMT 45.967915 0.837570 35,000 215 537 0
2022-12-02 08:00:41 GMT 45.975269 0.844849 35,000 215 537 0
2022-12-02 08:00:37 GMT 45.982624 0.852127 35,000 215 537 0
2022-12-02 08:00:32 GMT 45.993286 0.862633 35,000 215 537 0
2022-12-02 08:00:28 GMT 46.001431 0.870667 35,000 215 537 0
2022-12-02 08:00:24 GMT 46.016979 0.886116 35,000 215 537 0
2022-12-02 08:00:21 GMT 46.016979 0.886116 35,000 215 538 64
2022-12-02 08:00:17 GMT 46.022705 0.891747 35,000 215 538 64
2022-12-02 08:00:13 GMT 46.030899 0.899849 35,000 215 538 0
2022-12-02 08:00:10 GMT 46.038666 0.907578 35,000 215 538 0
2022-12-02 08:00:07 GMT 46.042786 0.911664 35,000 215 538 0
2022-12-02 08:00:04 GMT 46.050980 0.919837 35,000 215 538 0
2022-12-02 08:00:01 GMT 46.055054 0.923856 35,000 215 539 0
2022-12-02 07:59:58 GMT 46.063248 0.932029 35,000 215 539 0
2022-12-02 07:59:53 GMT 46.072704 0.941391 35,000 215 540 0
2022-12-02 07:59:50 GMT 46.078430 0.947090 35,000 215 539 0
2022-12-02 07:59:45 GMT 46.089088 0.957733 35,000 215 540 0
2022-12-02 07:59:42 GMT 46.095245 0.963849 35,000 215 540 0
2022-12-02 07:59:40 GMT 46.099751 0.968307 35,000 215 540 0
2022-12-02 07:59:35 GMT 46.110031 0.978587 35,000 215 540 0
2022-12-02 07:59:32 GMT 46.120281 0.988770 35,000 215 540 0
2022-12-02 07:59:30 GMT 46.120281 0.988770 35,000 215 541 0
2022-12-02 07:59:25 GMT 46.130939 0.999413 35,000 215 541 0
2022-12-02 07:59:22 GMT 46.137131 1.005584 35,000 215 541 0
2022-12-02 07:59:19 GMT 46.141647 1.010124 35,000 215 541 0
2022-12-02 07:59:14 GMT 46.151917 1.020389 35,000 215 541 0
2022-12-02 07:59:11 GMT 46.166271 1.034706 35,000 215 541 64
2022-12-02 07:59:08 GMT 46.166271 1.034706 35,000 215 541 0
2022-12-02 07:59:04 GMT 46.174118 1.042562 35,000 215 541 0
2022-12-02 07:59:01 GMT 46.188126 1.056563 35,000 215 542 0
2022-12-02 07:58:57 GMT 46.188126 1.056563 35,000 215 542 0
2022-12-02 07:58:53 GMT 46.196766 1.065193 35,000 215 543 0
2022-12-02 07:58:49 GMT 46.203781 1.072172 35,000 215 543 0
2022-12-02 07:58:44 GMT 46.223949 1.092453 35,000 215 543 0
2022-12-02 07:58:40 GMT 46.223949 1.092453 35,000 215 543 0
2022-12-02 07:58:37 GMT 46.229324 1.097829 35,000 215 543 0
2022-12-02 07:58:34 GMT 46.234657 1.103165 35,000 215 543 0
2022-12-02 07:58:31 GMT 46.242508 1.111026 35,000 215 544 0
2022-12-02 07:58:27 GMT 46.249924 1.118462 35,000 215 544 0
2022-12-02 07:58:24 GMT 46.263977 1.132530 35,000 215 544 0
2022-12-02 07:58:20 GMT 46.263977 1.132530 35,000 215 544 64
2022-12-02 07:58:17 GMT 46.270969 1.139557 35,000 215 544 64
2022-12-02 07:58:14 GMT 46.277206 1.145794 35,000 215 544 64
2022-12-02 07:58:11 GMT 46.282150 1.150751 35,000 215 545 0
2022-12-02 07:58:09 GMT 46.286705 1.155350 35,000 215 545 64
2022-12-02 07:58:03 GMT 46.299927 1.168602 35,000 215 545 0
2022-12-02 07:58:00 GMT 46.305744 1.174438 35,000 215 545 0
2022-12-02 07:57:57 GMT 46.312775 1.181499 35,000 215 545 0
2022-12-02 07:57:52 GMT 46.322708 1.191481 35,000 215 546 64
2022-12-02 07:57:49 GMT 46.328522 1.197309 35,000 215 546 64
2022-12-02 07:57:44 GMT 46.338840 1.207741 35,000 215 547 0
2022-12-02 07:57:41 GMT 46.344662 1.213577 35,000 215 547 0
2022-12-02 07:57:38 GMT 46.350861 1.219817 35,000 215 547 0
2022-12-02 07:57:34 GMT 46.360840 1.229799 35,000 215 546 0
2022-12-02 07:57:31 GMT 46.365784 1.234823 35,000 215 546 0
2022-12-02 07:57:28 GMT 46.380707 1.249896 35,000 215 546 0
2022-12-02 07:57:24 GMT 46.386093 1.255325 35,000 215 546 0
2022-12-02 07:57:21 GMT 46.386093 1.255325 35,000 216 547 0
2022-12-02 07:57:18 GMT 46.391464 1.260748 35,000 216 547 0
2022-12-02 07:57:15 GMT 46.397278 1.266643 35,000 216 547 0
2022-12-02 07:57:12 GMT 46.406387 1.275821 35,000 216 547 0
2022-12-02 07:57:08 GMT 46.412582 1.282173 35,000 216 548 0
2022-12-02 07:57:03 GMT 46.424606 1.294310 35,000 216 548 0
2022-12-02 07:56:59 GMT 46.433716 1.303622 35,000 216 548 0
2022-12-02 07:56:56 GMT 46.438278 1.308197 35,000 215 549 0
2022-12-02 07:56:53 GMT 46.444519 1.314541 35,000 216 548 0
2022-12-02 07:56:50 GMT 46.449917 1.320007 35,000 215 549 0
2022-12-02 07:56:48 GMT 46.454060 1.324196 35,000 215 549 0
2022-12-02 07:56:45 GMT 46.461136 1.331355 35,000 215 549 0
2022-12-02 07:56:42 GMT 46.467773 1.338121 35,000 215 549 0
2022-12-02 07:56:39 GMT 46.473190 1.343628 35,000 215 549 0
2022-12-02 07:56:36 GMT 46.481525 1.352074 35,000 216 549 0
2022-12-02 07:56:33 GMT 46.486507 1.357086 35,000 216 549 0
2022-12-02 07:56:30 GMT 46.491486 1.362167 35,000 216 549 0
2022-12-02 07:56:28 GMT 46.496063 1.366860 35,000 216 550 0
2022-12-02 07:56:25 GMT 46.501495 1.372330 35,000 216 550 0
2022-12-02 07:56:21 GMT 46.512344 1.383316 35,000 216 550 64
2022-12-02 07:56:18 GMT 46.517323 1.388397 35,000 216 551 64
2022-12-02 07:56:15 GMT 46.523575 1.394795 35,000 216 551 64
2022-12-02 07:56:11 GMT 46.533150 1.404533 35,000 216 551 64
2022-12-02 07:56:08 GMT 46.538177 1.409615 35,000 216 552 0
2022-12-02 07:56:04 GMT 46.547745 1.419380 35,000 216 552 0
2022-12-02 07:56:01 GMT 46.551086 1.422729 35,000 216 552 0
2022-12-02 07:55:58 GMT 46.559418 1.431237 35,000 216 552 0
2022-12-02 07:55:53 GMT 46.568207 1.440170 35,000 216 552 0
2022-12-02 07:55:50 GMT 46.575302 1.447382 35,000 216 552 0
2022-12-02 07:55:48 GMT 46.579891 1.452049 35,000 216 552 0
2022-12-02 07:55:45 GMT 46.586594 1.458847 35,000 216 552 0
2022-12-02 07:55:41 GMT 46.592834 1.465201 35,000 216 552 0
2022-12-02 07:55:38 GMT 46.601212 1.473709 35,000 216 552 0
2022-12-02 07:55:32 GMT 46.618294 1.491119 35,000 216 552 0
2022-12-02 07:55:29 GMT 46.618294 1.491119 35,000 216 552 0
2022-12-02 07:55:26 GMT 46.624603 1.497490 35,000 216 552 0
2022-12-02 07:55:23 GMT 46.631702 1.504715 35,000 216 552 0
2022-12-02 07:55:20 GMT 46.645477 1.518726 35,000 216 552 0
2022-12-02 07:55:16 GMT 46.645477 1.518726 35,000 216 552 0
2022-12-02 07:55:12 GMT 46.655502 1.528975 35,000 216 552 64
2022-12-02 07:55:08 GMT 46.664703 1.538354 35,000 216 552 64
2022-12-02 07:55:05 GMT 46.671387 1.545187 35,000 216 553 0
2022-12-02 07:55:01 GMT 46.677650 1.551544 35,000 216 553 0
2022-12-02 07:54:57 GMT 46.685577 1.559657 35,000 216 552 0
2022-12-02 07:54:53 GMT 46.695648 1.569906 35,000 216 552 0
2022-12-02 07:54:50 GMT 46.707321 1.581897 35,000 216 553 0
2022-12-02 07:54:47 GMT 46.707321 1.581897 35,000 216 552 0
2022-12-02 07:54:43 GMT 46.716103 1.590889 35,000 216 553 0
2022-12-02 07:54:40 GMT 46.722336 1.597305 35,000 216 552 0
2022-12-02 07:54:36 GMT 46.729843 1.605009 35,000 216 553 0
2022-12-02 07:54:33 GMT 46.736958 1.612312 35,000 216 552 0
2022-12-02 07:54:29 GMT 46.744034 1.619680 35,000 216 552 0
2022-12-02 07:54:26 GMT 46.749847 1.625709 35,000 214 552 0
2022-12-02 07:54:22 GMT 46.758652 1.634560 35,000 215 552 0
2022-12-02 07:54:19 GMT 46.765045 1.640781 35,000 213 552 0
2022-12-02 07:54:17 GMT 46.770172 1.645605 35,000 212 552 64
2022-12-02 07:54:12 GMT 46.780159 1.654678 35,000 212 552 64
2022-12-02 07:54:09 GMT 46.786255 1.659966 35,000 210 551 64
2022-12-02 07:54:06 GMT 46.792877 1.665501 35,000 208 551 0
2022-12-02 07:54:02 GMT 46.801804 1.672668 35,000 209 551 0
2022-12-02 07:53:59 GMT 46.809486 1.678574 35,000 208 551 0
2022-12-02 07:53:56 GMT 46.816315 1.683521 35,000 205 550 -64
2022-12-02 07:53:53 GMT 46.825035 1.689560 35,000 205 550 -64
2022-12-02 07:53:49 GMT 46.832436 1.694504 35,000 205 550 -64
2022-12-02 07:53:47 GMT 46.839386 1.699196 35,000 205 550 0
2022-12-02 07:53:43 GMT 46.848125 1.705078 35,000 205 550 0
2022-12-02 07:53:40 GMT 46.855087 1.709714 35,000 205 550 0
2022-12-02 07:53:36 GMT 46.862457 1.714671 35,000 205 550 0
2022-12-02 07:53:33 GMT 46.870789 1.720253 35,000 205 550 0
2022-12-02 07:53:29 GMT 46.878159 1.725197 35,000 205 550 0
2022-12-02 07:53:26 GMT 46.886490 1.730759 35,000 205 550 -64
2022-12-02 07:53:22 GMT 46.894775 1.736320 35,000 205 550 -64
2022-12-02 07:53:19 GMT 46.902637 1.741615 35,000 205 550 0
2022-12-02 07:53:16 GMT 46.908646 1.745659 35,000 205 550 0
2022-12-02 07:53:12 GMT 46.925262 1.756783 35,000 205 549 0
2022-12-02 07:53:09 GMT 46.925262 1.756783 35,000 205 549 0
2022-12-02 07:53:06 GMT 46.932632 1.761726 35,000 205 549 0
2022-12-02 07:53:02 GMT 46.940918 1.767357 35,000 205 549 0
2022-12-02 07:52:59 GMT 46.947372 1.771683 35,000 205 549 0
2022-12-02 07:52:57 GMT 46.952911 1.775459 35,000 205 549 0
2022-12-02 07:52:55 GMT 46.957535 1.778549 35,000 205 549 0
2022-12-02 07:52:52 GMT 46.964458 1.783236 35,000 205 549 0
2022-12-02 07:52:49 GMT 46.977814 1.792213 35,000 205 549 0
2022-12-02 07:52:46 GMT 46.977814 1.792213 35,000 205 549 64
2022-12-02 07:52:44 GMT 46.982895 1.795701 35,000 205 549 64
2022-12-02 07:52:40 GMT 46.992111 1.801899 35,000 205 549 64
2022-12-02 07:52:37 GMT 46.999512 1.806899 35,000 205 549 64
2022-12-02 07:52:35 GMT 47.005051 1.810631 35,000 205 549 64
2022-12-02 07:52:31 GMT 47.011963 1.815353 35,000 205 550 0
2022-12-02 07:52:28 GMT 47.019333 1.820366 35,000 205 550 0
2022-12-02 07:52:25 GMT 47.025787 1.824692 35,000 205 550 0
2022-12-02 07:52:23 GMT 47.029911 1.827533 35,000 205 550 0
2022-12-02 07:52:19 GMT 47.040527 1.834717 35,000 205 550 0
2022-12-02 07:52:16 GMT 47.047462 1.839435 35,000 205 550 0
2022-12-02 07:52:12 GMT 47.059425 1.847605 35,000 205 549 0
2022-12-02 07:52:09 GMT 47.063599 1.850372 35,000 205 549 0
2022-12-02 07:52:07 GMT 47.068222 1.853531 35,000 205 549 0
2022-12-02 07:52:04 GMT 47.076042 1.858873 35,000 205 549 0
2022-12-02 07:52:00 GMT 47.085262 1.865070 35,000 205 549 64
2022-12-02 07:51:56 GMT 47.094479 1.871338 35,000 205 549 0
2022-12-02 07:51:53 GMT 47.099087 1.874507 35,000 205 549 0
2022-12-02 07:51:51 GMT 47.105072 1.878525 35,000 205 549 64
2022-12-02 07:51:48 GMT 47.111980 1.883240 35,000 205 549 64
2022-12-02 07:51:45 GMT 47.118404 1.887606 35,000 205 549 64
2022-12-02 07:51:42 GMT 47.126694 1.893240 35,000 205 549 64
2022-12-02 07:51:39 GMT 47.132233 1.897043 35,000 205 549 64
2022-12-02 07:51:36 GMT 47.140091 1.902351 35,000 205 550 64
2022-12-02 07:51:33 GMT 47.148849 1.908311 35,000 205 550 0
2022-12-02 07:51:30 GMT 47.152039 1.910522 35,000 205 550 0
2022-12-02 07:51:27 GMT 47.162678 1.917748 35,000 205 550 0
2022-12-02 07:51:24 GMT 47.167740 1.921165 35,000 205 550 0
2022-12-02 07:51:22 GMT 47.171894 1.924016 35,000 205 550 0
2022-12-02 07:51:19 GMT 47.186142 1.933731 35,000 205 550 0
2022-12-02 07:51:16 GMT 47.186142 1.933731 35,000 205 550 0
2022-12-02 07:51:12 GMT 47.202293 1.944791 35,000 205 550 0
2022-12-02 07:51:09 GMT 47.202293 1.944791 35,000 206 549 0
2022-12-02 07:51:06 GMT 47.208717 1.949158 35,000 206 549 0
2022-12-02 07:51:01 GMT 47.220680 1.957397 35,000 205 549 64
2022-12-02 07:50:58 GMT 47.227154 1.961764 35,000 205 549 64
2022-12-02 07:50:54 GMT 47.235901 1.967789 35,000 205 549 64
2022-12-02 07:50:51 GMT 47.244141 1.973419 35,000 205 549 0
2022-12-02 07:50:47 GMT 47.262112 1.985708 35,000 205 549 0
2022-12-02 07:50:44 GMT 47.268082 1.989830 35,000 205 549 0
2022-12-02 07:50:40 GMT 47.268082 1.989830 35,000 205 549 0
2022-12-02 07:50:36 GMT 47.278198 1.996765 35,000 205 549 0
2022-12-02 07:50:33 GMT 47.283691 2.000542 35,000 205 549 0
2022-12-02 07:50:28 GMT 47.295685 2.008713 35,000 205 549 0
2022-12-02 07:50:25 GMT 47.301636 2.012822 35,000 205 549 0
2022-12-02 07:50:23 GMT 47.308060 2.017259 35,000 205 549 0
2022-12-02 07:50:21 GMT 47.314041 2.021347 35,000 205 549 0
2022-12-02 07:50:18 GMT 47.319580 2.025124 35,000 205 549 0
2022-12-02 07:50:15 GMT 47.325073 2.028900 35,000 205 549 0
2022-12-02 07:50:12 GMT 47.332920 2.034231 35,000 205 549 -64
2022-12-02 07:50:08 GMT 47.341644 2.040230 35,000 206 548 0
2022-12-02 07:50:05 GMT 47.354939 2.049373 35,000 206 548 0
2022-12-02 07:50:02 GMT 47.354939 2.049373 35,000 206 548 0
2022-12-02 07:49:59 GMT 47.361408 2.053739 35,000 206 548 0
2022-12-02 07:49:56 GMT 47.369648 2.059444 35,000 206 548 0
2022-12-02 07:49:53 GMT 47.381611 2.067613 35,000 206 548 0
2022-12-02 07:49:51 GMT 47.381611 2.067613 35,000 206 548 0
2022-12-02 07:49:48 GMT 47.388474 2.072365 35,000 206 548 0
2022-12-02 07:49:45 GMT 47.395393 2.077050 35,000 206 548 0
2022-12-02 07:49:42 GMT 47.408707 2.086235 35,000 206 548 0
2022-12-02 07:49:39 GMT 47.408707 2.086235 35,000 206 548 0
2022-12-02 07:49:36 GMT 47.416527 2.091557 35,000 206 548 0
2022-12-02 07:49:33 GMT 47.422485 2.095642 35,000 206 548 0
2022-12-02 07:49:30 GMT 47.430260 2.100994 35,000 206 548 0
2022-12-02 07:49:27 GMT 47.434868 2.104164 35,000 206 548 0
2022-12-02 07:49:23 GMT 47.451874 2.115829 35,000 206 548 0
2022-12-02 07:49:20 GMT 47.458752 2.120573 35,000 206 548 0
2022-12-02 07:49:18 GMT 47.458752 2.120573 35,000 206 548 0
2022-12-02 07:49:15 GMT 47.463360 2.123742 35,000 206 548 64
2022-12-02 07:49:11 GMT 47.472107 2.129768 35,000 206 548 0
2022-12-02 07:49:08 GMT 47.487240 2.140221 35,000 206 548 0
2022-12-02 07:49:05 GMT 47.487240 2.140221 35,000 206 548 0
2022-12-02 07:49:03 GMT 47.493210 2.144325 35,000 206 548 0
2022-12-02 07:49:00 GMT 47.498272 2.147827 35,000 206 548 0
2022-12-02 07:48:58 GMT 47.502880 2.150996 35,000 206 548 -64
2022-12-02 07:48:55 GMT 47.510651 2.156410 35,000 206 548 0
2022-12-02 07:48:51 GMT 47.518475 2.161771 35,000 206 548 0
2022-12-02 07:48:48 GMT 47.525345 2.166504 35,000 206 548 64
2022-12-02 07:48:45 GMT 47.532257 2.171279 35,000 206 548 64
2022-12-02 07:48:42 GMT 47.539562 2.176349 35,000 206 548 0
2022-12-02 07:48:38 GMT 47.551025 2.184288 35,000 206 547 0
2022-12-02 07:48:35 GMT 47.555161 2.187124 35,000 206 547 0
2022-12-02 07:48:32 GMT 47.562057 2.191841 35,000 206 547 0
2022-12-02 07:48:30 GMT 47.566635 2.195068 35,000 206 547 0
2022-12-02 07:48:27 GMT 47.579926 2.204238 35,000 206 547 0
2022-12-02 07:48:24 GMT 47.579926 2.204238 35,000 206 548 0
2022-12-02 07:48:18 GMT 47.594101 2.214088 35,000 206 548 0
2022-12-02 07:48:15 GMT 47.600967 2.218886 35,000 206 548 0
2022-12-02 07:48:11 GMT 47.610138 2.225224 35,000 206 548 0
2022-12-02 07:48:08 GMT 47.617905 2.230637 35,000 206 548 0
2022-12-02 07:48:05 GMT 47.623398 2.234482 35,000 206 548 0
2022-12-02 07:48:02 GMT 47.631226 2.239873 35,000 206 548 0
2022-12-02 07:47:58 GMT 47.639465 2.245648 35,000 206 548 0
2022-12-02 07:47:55 GMT 47.647247 2.251030 35,000 206 548 0
2022-12-02 07:47:51 GMT 47.655487 2.256798 35,000 206 548 0
2022-12-02 07:47:48 GMT 47.663727 2.262497 35,000 206 548 0
2022-12-02 07:47:45 GMT 47.669678 2.266634 35,000 206 548 0
2022-12-02 07:47:37 GMT 47.687088 2.278748 35,000 206 548 0
2022-12-02 07:47:34 GMT 47.693939 2.283577 35,000 206 548 0
2022-12-02 07:47:32 GMT 47.700348 2.288040 35,000 206 548 0
2022-12-02 07:47:29 GMT 47.706802 2.292503 35,000 206 548 0
2022-12-02 07:47:27 GMT 47.710464 2.295044 35,000 206 548 0
2022-12-02 07:47:24 GMT 47.716873 2.299507 35,000 206 548 0
2022-12-02 07:47:21 GMT 47.724655 2.304875 35,000 206 547 0
2022-12-02 07:47:18 GMT 47.733780 2.311284 35,000 206 547 0
2022-12-02 07:47:15 GMT 47.739273 2.315087 35,000 206 547 0
2022-12-02 07:47:12 GMT 47.748001 2.321136 35,000 206 547 0
2022-12-02 07:47:08 GMT 47.762177 2.331003 35,000 206 547 0
2022-12-02 07:47:05 GMT 47.762177 2.331003 35,000 206 548 0
2022-12-02 07:47:01 GMT 47.770889 2.337067 35,000 206 548 0
2022-12-02 07:46:58 GMT 47.777771 2.341849 35,000 206 548 64
2022-12-02 07:46:55 GMT 47.784622 2.346611 35,000 206 548 0
2022-12-02 07:46:51 GMT 47.794250 2.353328 35,000 206 548 0
2022-12-02 07:46:48 GMT 47.802490 2.359032 35,000 206 548 0
2022-12-02 07:46:45 GMT 47.807510 2.362541 35,000 206 548 0
2022-12-02 07:46:38 GMT 47.822205 2.372772 35,000 206 548 0
2022-12-02 07:46:35 GMT 47.844177 2.388153 35,000 206 548 0
2022-12-02 07:46:29 GMT 47.844177 2.388153 35,000 206 548 0
2022-12-02 07:46:25 GMT 47.854248 2.395226 35,000 206 548 0
2022-12-02 07:46:19 GMT 47.867523 2.404527 35,000 206 547 0
2022-12-02 07:46:14 GMT 47.879395 2.412837 35,000 206 548 0
2022-12-02 07:46:11 GMT 47.885818 2.417344 35,000 206 547 0
2022-12-02 07:46:09 GMT 47.890869 2.420837 35,000 206 547 0
2022-12-02 07:46:06 GMT 47.897278 2.425369 35,000 206 547 0
2022-12-02 07:46:03 GMT 47.904114 2.430162 35,000 206 547 0
2022-12-02 07:46:01 GMT 47.910538 2.434669 35,000 206 547 0
2022-12-02 07:45:58 GMT 47.914627 2.437592 35,000 206 547 0
2022-12-02 07:45:55 GMT 47.922867 2.443359 35,000 206 547 0
2022-12-02 07:45:48 GMT 47.936554 2.453110 35,000 206 547 0
2022-12-02 07:45:45 GMT 47.946152 2.459881 35,000 206 547 0
2022-12-02 07:45:43 GMT 47.949326 2.462173 35,000 206 547 0
2022-12-02 07:45:41 GMT 47.954346 2.465726 35,000 206 547 0
2022-12-02 07:45:37 GMT 47.962585 2.471572 35,000 206 547 0
2022-12-02 07:45:34 GMT 47.969421 2.476456 35,000 206 547 0
2022-12-02 07:45:30 GMT 47.978970 2.483262 35,000 206 547 0
2022-12-02 07:45:27 GMT 47.987640 2.489433 35,000 206 547 0
2022-12-02 07:45:24 GMT 47.991302 2.492043 35,000 206 546 0
2022-12-02 07:45:18 GMT 48.005459 2.502066 35,000 206 546 0
2022-12-02 07:45:15 GMT 48.012314 2.506874 35,000 206 546 0
2022-12-02 07:45:13 GMT 48.016445 2.509813 35,000 206 546 0
2022-12-02 07:45:11 GMT 48.022823 2.514320 35,000 206 546 0
2022-12-02 07:45:09 GMT 48.027386 2.517559 35,000 206 546 0
2022-12-02 07:45:07 GMT 48.032410 2.521088 35,000 206 546 0
2022-12-02 07:45:04 GMT 48.038818 2.525620 35,000 206 546 0
2022-12-02 07:45:01 GMT 48.045635 2.530447 35,000 206 547 0
2022-12-02 07:44:59 GMT 48.050198 2.533687 35,000 206 547 0
2022-12-02 07:44:56 GMT 48.057037 2.538528 35,000 206 547 0
2022-12-02 07:44:53 GMT 48.062065 2.542067 35,000 206 547 0
2022-12-02 07:44:49 GMT 48.072601 2.549515 35,000 206 547 0
2022-12-02 07:44:46 GMT 48.080360 2.555026 35,000 206 547 0
2022-12-02 07:44:43 GMT 48.086288 2.559196 35,000 206 547 0
2022-12-02 07:44:41 GMT 48.091736 2.563110 35,000 206 547 0
2022-12-02 07:44:38 GMT 48.096748 2.566646 35,000 206 547 64
2022-12-02 07:44:36 GMT 48.103172 2.571223 35,000 206 547 0
2022-12-02 07:44:34 GMT 48.107254 2.574097 35,000 206 547 0
2022-12-02 07:44:31 GMT 48.114113 2.578970 35,000 206 546 0
2022-12-02 07:44:29 GMT 48.118675 2.582210 35,000 206 546 0
2022-12-02 07:44:26 GMT 48.124603 2.586388 35,000 206 546 0
2022-12-02 07:44:23 GMT 48.131477 2.591224 35,000 206 546 0
2022-12-02 07:44:21 GMT 48.137856 2.595802 35,000 206 547 0
2022-12-02 07:44:18 GMT 48.149723 2.604182 35,000 206 547 0
2022-12-02 07:44:15 GMT 48.149723 2.604182 35,000 206 547 0
2022-12-02 07:44:13 GMT 48.154285 2.607422 35,000 206 547 0
2022-12-02 07:44:08 GMT 48.166157 2.615830 35,000 206 547 0
2022-12-02 07:44:04 GMT 48.176167 2.622986 35,000 206 547 0
2022-12-02 07:44:01 GMT 48.182545 2.627539 35,000 206 547 0
2022-12-02 07:43:59 GMT 48.188038 2.631442 35,000 206 547 0
2022-12-02 07:43:56 GMT 48.194870 2.636296 35,000 206 547 0
2022-12-02 07:43:53 GMT 48.198978 2.639248 35,000 206 547 0
2022-12-02 07:43:50 GMT 48.206284 2.644453 35,000 206 547 0
2022-12-02 07:43:47 GMT 48.214920 2.650663 35,000 206 547 0
2022-12-02 07:43:44 GMT 48.221786 2.655511 35,000 206 547 0
2022-12-02 07:43:42 GMT 48.229980 2.661366 35,000 206 547 0
2022-12-02 07:43:40 GMT 48.233658 2.663968 35,000 206 547 0
2022-12-02 07:43:38 GMT 48.233658 2.663968 35,000 206 547 0
2022-12-02 07:43:36 GMT 48.239105 2.667871 35,000 206 547 0
2022-12-02 07:43:33 GMT 48.245956 2.672776 35,000 206 547 -64
2022-12-02 07:43:30 GMT 48.252838 2.677628 35,000 206 547 0
2022-12-02 07:43:27 GMT 48.259689 2.682566 35,000 206 547 0
2022-12-02 07:43:24 GMT 48.271088 2.690711 35,000 206 547 0
2022-12-02 07:43:20 GMT 48.275208 2.693622 35,000 206 548 0
2022-12-02 07:43:18 GMT 48.280701 2.697496 35,000 206 547 0
2022-12-02 07:43:13 GMT 48.291641 2.705383 35,000 206 548 64
2022-12-02 07:43:10 GMT 48.298504 2.710226 35,000 206 548 0
2022-12-02 07:43:08 GMT 48.304001 2.714129 35,000 206 548 0
2022-12-02 07:43:06 GMT 48.308121 2.717074 35,000 206 548 0
2022-12-02 07:43:03 GMT 48.314484 2.721652 35,000 206 548 0
2022-12-02 07:43:00 GMT 48.321362 2.726561 35,000 206 548 0
2022-12-02 07:42:56 GMT 48.329132 2.732074 35,000 206 547 0
2022-12-02 07:42:54 GMT 48.335979 2.736969 35,000 206 547 0
2022-12-02 07:42:52 GMT 48.339203 2.739258 35,000 206 547 0
2022-12-02 07:42:50 GMT 48.344650 2.743202 35,000 206 548 0
2022-12-02 07:42:46 GMT 48.354721 2.750385 35,000 206 548 0
2022-12-02 07:42:43 GMT 48.359299 2.753625 35,000 206 548 0
2022-12-02 07:42:40 GMT 48.367962 2.759881 35,000 206 548 64
2022-12-02 07:42:36 GMT 48.374340 2.764435 35,000 206 548 64
2022-12-02 07:42:33 GMT 48.383972 2.771301 35,000 206 548 64
2022-12-02 07:42:29 GMT 48.391705 2.776867 35,000 206 548 0
2022-12-02 07:42:27 GMT 48.397198 2.780770 35,000 206 548 64
2022-12-02 07:42:25 GMT 48.400406 2.783062 35,000 206 548 0
2022-12-02 07:42:22 GMT 48.408600 2.788978 35,000 206 548 0
2022-12-02 07:42:19 GMT 48.415009 2.793556 35,000 206 548 0
2022-12-02 07:42:17 GMT 48.421417 2.798204 35,000 206 548 0
2022-12-02 07:42:13 GMT 48.429176 2.803754 35,000 206 548 0
2022-12-02 07:42:11 GMT 48.433319 2.806725 35,000 206 548 0
2022-12-02 07:42:08 GMT 48.444725 2.814885 35,000 206 548 0
2022-12-02 07:42:06 GMT 48.444725 2.814885 35,000 206 548 0
2022-12-02 07:42:03 GMT 48.450218 2.818861 35,000 206 548 0
2022-12-02 07:42:01 GMT 48.456161 2.823134 35,000 206 548 0
2022-12-02 07:41:58 GMT 48.468063 2.831656 35,000 206 548 0
2022-12-02 07:41:56 GMT 48.468063 2.831656 35,000 206 548 0
2022-12-02 07:41:53 GMT 48.474472 2.836233 35,000 206 548 0
2022-12-02 07:41:51 GMT 48.479500 2.839894 35,000 206 548 0
2022-12-02 07:41:48 GMT 48.485413 2.844191 35,000 206 548 0
2022-12-02 07:41:46 GMT 48.489990 2.847431 35,000 206 548 0
2022-12-02 07:41:44 GMT 48.495049 2.851097 35,000 206 548 0
2022-12-02 07:41:41 GMT 48.501427 2.855650 35,000 206 548 0
2022-12-02 07:41:39 GMT 48.506470 2.859333 35,000 206 548 0
2022-12-02 07:41:37 GMT 48.511917 2.863277 35,000 206 548 64
2022-12-02 07:41:35 GMT 48.515579 2.865882 35,000 206 548 0
2022-12-02 07:41:32 GMT 48.522903 2.871164 35,000 206 548 64
2022-12-02 07:41:29 GMT 48.529312 2.875812 35,000 206 548 64
2022-12-02 07:41:25 GMT 48.538422 2.882362 35,000 206 548 0
2022-12-02 07:41:22 GMT 48.545280 2.887308 35,000 206 547 0
2022-12-02 07:41:19 GMT 48.552155 2.892292 35,000 206 547 64
2022-12-02 07:41:16 GMT 48.559895 2.897861 35,000 206 548 0
2022-12-02 07:41:13 GMT 48.566757 2.902856 35,000 206 548 0
2022-12-02 07:41:11 GMT 48.570835 2.905812 35,000 206 548 0
2022-12-02 07:41:08 GMT 48.578144 2.911088 35,000 206 548 0
2022-12-02 07:41:05 GMT 48.582706 2.914413 35,000 206 548 0
2022-12-02 07:41:03 GMT 48.589130 2.919038 35,000 206 548 0
2022-12-02 07:41:01 GMT 48.592300 2.921377 35,000 206 548 0
2022-12-02 07:40:58 GMT 48.600540 2.927363 35,000 206 548 0
2022-12-02 07:40:56 GMT 48.604633 2.930314 35,000 206 548 0
2022-12-02 07:40:53 GMT 48.611942 2.935663 35,000 206 548 0
2022-12-02 07:40:51 GMT 48.615574 2.938265 35,000 206 548 0
2022-12-02 07:40:48 GMT 48.622421 2.943280 35,000 206 548 0
2022-12-02 07:40:46 GMT 48.626511 2.946287 35,000 206 548 0
2022-12-02 07:40:43 GMT 48.635193 2.952576 35,000 206 548 0
2022-12-02 07:40:41 GMT 48.639771 2.955886 35,000 206 548 0
2022-12-02 07:40:37 GMT 48.646576 2.960888 35,000 206 548 0
2022-12-02 07:40:35 GMT 48.653412 2.965886 35,000 206 548 0
2022-12-02 07:40:31 GMT 48.662079 2.972163 35,000 206 548 0
2022-12-02 07:40:28 GMT 48.669388 2.977512 35,000 206 548 0
2022-12-02 07:40:25 GMT 48.676208 2.982436 35,000 206 548 0
2022-12-02 07:40:22 GMT 48.682617 2.987084 35,000 206 548 0
2022-12-02 07:40:20 GMT 48.685822 2.989438 35,000 206 548 0
2022-12-02 07:40:17 GMT 48.694012 2.995437 35,000 206 548 0
2022-12-02 07:40:14 GMT 48.699459 2.999412 35,000 206 548 0
2022-12-02 07:40:11 GMT 48.706329 3.004409 35,000 206 548 0
2022-12-02 07:40:09 GMT 48.712261 3.008736 35,000 206 548 0
2022-12-02 07:40:07 GMT 48.722717 3.016381 35,000 206 548 0
2022-12-02 07:40:04 GMT 48.722717 3.016381 35,000 206 547 0
2022-12-02 07:40:01 GMT 48.729580 3.021313 35,000 206 547 0
2022-12-02 07:39:59 GMT 48.735489 3.025677 35,000 206 547 0
2022-12-02 07:39:57 GMT 48.740021 3.028987 35,000 206 547 0
2022-12-02 07:39:54 GMT 48.745514 3.033001 35,000 206 547 0
2022-12-02 07:39:51 GMT 48.759155 3.043002 35,000 206 547 0
2022-12-02 07:39:48 GMT 48.759155 3.043002 35,000 206 547 0
2022-12-02 07:39:46 GMT 48.763733 3.046312 35,000 206 547 0
2022-12-02 07:39:44 GMT 48.768265 3.049622 35,000 206 547 64
2022-12-02 07:39:42 GMT 48.774178 3.053982 35,000 206 547 0
2022-12-02 07:39:39 GMT 48.781487 3.059331 35,000 206 547 0
2022-12-02 07:39:36 GMT 48.784653 3.061664 35,000 206 547 0
2022-12-02 07:39:34 GMT 48.791492 3.066631 35,000 206 547 64
2022-12-02 07:39:32 GMT 48.796940 3.070679 35,000 206 547 64
2022-12-02 07:39:30 GMT 48.800571 3.073353 35,000 206 547 0
2022-12-02 07:39:28 GMT 48.804203 3.076027 35,000 206 547 0
2022-12-02 07:39:26 GMT 48.807835 3.078702 35,000 206 547 0
2022-12-02 07:39:24 GMT 48.814213 3.083400 35,000 206 547 64
2022-12-02 07:39:22 GMT 48.823334 3.090049 35,000 206 547 64
2022-12-02 07:39:20 GMT 48.823334 3.090049 35,000 206 547 0
2022-12-02 07:39:17 GMT 48.829712 3.094747 35,000 206 547 0
2022-12-02 07:39:14 GMT 48.841537 3.103421 35,000 206 547 64
2022-12-02 07:39:10 GMT 48.846100 3.106746 35,000 206 547 64
2022-12-02 07:39:07 GMT 48.853359 3.112094 35,000 206 547 0
2022-12-02 07:39:04 GMT 48.861099 3.117793 35,000 206 547 64
2022-12-02 07:39:02 GMT 48.867931 3.122791 35,000 206 547 0
2022-12-02 07:39:00 GMT 48.867931 3.122791 35,000 206 547 0
2022-12-02 07:38:58 GMT 48.872910 3.126455 35,000 206 547 0
2022-12-02 07:38:55 GMT 48.879757 3.131465 35,000 206 547 0
2022-12-02 07:38:52 GMT 48.887951 3.137464 35,000 206 547 0
2022-12-02 07:38:49 GMT 48.894325 3.142162 35,000 206 547 0
2022-12-02 07:38:46 GMT 48.901154 3.147160 35,000 206 547 0
2022-12-02 07:38:43 GMT 48.908012 3.152137 35,000 206 547 0
2022-12-02 07:38:40 GMT 48.915276 3.157485 35,000 206 547 0
2022-12-02 07:38:37 GMT 48.921654 3.162111 35,000 206 547 0
2022-12-02 07:38:33 GMT 48.938087 3.174037 35,000 206 547 0
2022-12-02 07:38:30 GMT 48.938087 3.174037 35,000 206 547 0
2022-12-02 07:38:28 GMT 48.941765 3.176639 35,000 206 547 0
2022-12-02 07:38:26 GMT 48.947212 3.180687 35,000 208 547 0
2022-12-02 07:38:21 GMT 48.957596 3.188570 35,000 208 547 0
2022-12-02 07:38:19 GMT 48.962082 3.192162 35,000 209 547 0
2022-12-02 07:38:17 GMT 48.966064 3.195431 35,000 209 547 0
2022-12-02 07:38:13 GMT 48.976227 3.203994 35,000 210 546 0
2022-12-02 07:38:11 GMT 48.979332 3.206635 35,000 211 547 0
2022-12-02 07:38:09 GMT 48.983662 3.210538 35,000 212 547 0
2022-12-02 07:38:07 GMT 48.988876 3.215308 35,000 212 547 0
2022-12-02 07:38:05 GMT 48.993156 3.219356 35,000 214 546 0
2022-12-02 07:38:02 GMT 48.998280 3.224270 35,000 214 546 0
2022-12-02 07:38:00 GMT 49.003353 3.229258 35,000 214 546 0
2022-12-02 07:37:57 GMT 49.010468 3.236600 35,000 214 546 0
2022-12-02 07:37:52 GMT 49.019974 3.246677 35,000 219 544 64
2022-12-02 07:37:50 GMT 49.024021 3.251230 35,000 218 545 64
2022-12-02 07:37:47 GMT 49.029655 3.257663 35,000 218 545 64
2022-12-02 07:37:45 GMT 49.034451 3.263301 35,000 221 544 0
2022-12-02 07:37:41 GMT 49.042271 3.272914 35,000 221 544 0
2022-12-02 07:37:39 GMT 49.046135 3.277829 35,000 221 544 0
2022-12-02 07:37:37 GMT 49.050743 3.283756 35,000 221 544 0
2022-12-02 07:37:33 GMT 49.058807 3.294138 35,000 221 544 0
2022-12-02 07:37:31 GMT 49.060753 3.296549 35,000 221 544 0
2022-12-02 07:37:29 GMT 49.065720 3.303011 35,000 221 544 0
2022-12-02 07:37:27 GMT 49.069180 3.307463 35,000 221 544 0
2022-12-02 07:37:25 GMT 49.073040 3.312378 35,000 221 544 0
2022-12-02 07:37:21 GMT 49.085331 3.328207 35,000 221 544 0
2022-12-02 07:37:19 GMT 49.085331 3.328207 35,000 221 544 0
2022-12-02 07:37:16 GMT 49.089939 3.334134 35,000 221 544 0
2022-12-02 07:37:14 GMT 49.095291 3.341072 35,000 221 544 0
2022-12-02 07:37:10 GMT 49.101837 3.349492 35,000 221 544 0
2022-12-02 07:37:08 GMT 49.105682 3.354422 35,000 221 544 0
2022-12-02 07:37:05 GMT 49.111446 3.361889 35,000 221 544 0
2022-12-02 07:37:00 GMT 49.119873 3.372730 35,000 221 544 0
2022-12-02 07:36:58 GMT 49.123352 3.377240 35,000 221 544 0
2022-12-02 07:36:56 GMT 49.127556 3.382633 35,000 221 544 0
2022-12-02 07:36:51 GMT 49.141380 3.400485 35,000 221 544 0
2022-12-02 07:36:49 GMT 49.141380 3.400485 35,000 221 544 0
2022-12-02 07:36:46 GMT 49.147934 3.408931 35,000 221 545 64
2022-12-02 07:36:41 GMT 49.157913 3.421819 35,000 221 545 64
2022-12-02 07:36:38 GMT 49.161758 3.426819 35,000 221 545 64
2022-12-02 07:36:36 GMT 49.166752 3.433300 35,000 221 545 64
2022-12-02 07:36:30 GMT 49.177460 3.447177 35,000 221 545 64
2022-12-02 07:36:27 GMT 49.184395 3.456140 35,000 221 545 64
2022-12-02 07:36:22 GMT 49.193611 3.468066 35,000 221 545 0
2022-12-02 07:36:20 GMT 49.196274 3.471539 35,000 221 545 0
2022-12-02 07:36:18 GMT 49.201675 3.478511 35,000 221 545 0
2022-12-02 07:36:14 GMT 49.216610 3.497989 35,000 221 545 0
2022-12-02 07:36:10 GMT 49.216610 3.497989 35,000 221 545 0
2022-12-02 07:36:08 GMT 49.221634 3.504427 35,000 221 545 0
2022-12-02 07:36:06 GMT 49.224289 3.507891 35,000 221 545 0
2022-12-02 07:36:04 GMT 49.227768 3.512385 35,000 221 545 64
2022-12-02 07:36:00 GMT 49.235413 3.522386 35,000 221 545 0
2022-12-02 07:35:56 GMT 49.243469 3.532827 35,000 221 545 0
2022-12-02 07:35:54 GMT 49.247334 3.537814 35,000 221 545 0
2022-12-02 07:35:51 GMT 49.258831 3.552776 35,000 221 545 64
2022-12-02 07:35:48 GMT 49.258831 3.552776 35,000 221 545 64
2022-12-02 07:35:46 GMT 49.262283 3.557317 35,000 221 545 0
2022-12-02 07:35:44 GMT 49.268002 3.564774 35,000 221 545 64
2022-12-02 07:35:40 GMT 49.273403 3.571785 35,000 221 545 0
2022-12-02 07:35:38 GMT 49.278351 3.578303 35,000 221 545 0
2022-12-02 07:35:36 GMT 49.281036 3.581760 35,000 221 545 0
2022-12-02 07:35:34 GMT 49.285645 3.587759 35,000 221 545 0
2022-12-02 07:35:29 GMT 49.294815 3.599757 35,000 221 545 0
2022-12-02 07:35:27 GMT 49.299423 3.605756 35,000 221 545 0
2022-12-02 07:35:23 GMT 49.305569 3.613779 35,000 221 544 0
2022-12-02 07:35:19 GMT 49.315887 3.627319 35,000 221 544 0
2022-12-02 07:35:16 GMT 49.320839 3.633800 35,000 221 544 0
2022-12-02 07:35:10 GMT 49.330444 3.646334 35,000 221 544 64
2022-12-02 07:35:07 GMT 49.341110 3.660278 35,000 221 544 64
2022-12-02 07:35:02 GMT 49.348022 3.669293 35,000 221 544 64
2022-12-02 07:34:59 GMT 49.351822 3.674293 35,000 221 544 64
2022-12-02 07:34:57 GMT 49.361385 3.686853 35,000 221 543 0
2022-12-02 07:34:54 GMT 49.361385 3.686853 35,000 221 543 0
2022-12-02 07:34:51 GMT 49.368622 3.696336 35,000 221 543 64
2022-12-02 07:34:47 GMT 49.375862 3.705862 35,000 221 543 64
2022-12-02 07:34:45 GMT 49.379681 3.710921 35,000 221 543 64
2022-12-02 07:34:43 GMT 49.383133 3.715421 35,000 221 543 0
2022-12-02 07:34:40 GMT 49.396484 3.732894 35,000 221 543 0
2022-12-02 07:34:36 GMT 49.396484 3.732894 35,000 221 543 0
2022-12-02 07:34:33 GMT 49.401840 3.739905 35,000 221 542 0
2022-12-02 07:34:29 GMT 49.410217 3.750964 35,000 221 543 0
2022-12-02 07:34:26 GMT 49.415176 3.757465 35,000 221 543 0
2022-12-02 07:34:24 GMT 49.419392 3.762962 35,000 221 543 0
2022-12-02 07:34:20 GMT 49.427399 3.773522 35,000 221 543 0
2022-12-02 07:34:18 GMT 49.430050 3.776996 35,000 221 543 0
2022-12-02 07:34:16 GMT 49.435406 3.783973 35,000 221 543 0
2022-12-02 07:34:13 GMT 49.439964 3.789986 35,000 221 543 0
2022-12-02 07:34:09 GMT 49.454395 3.809064 35,000 221 543 64
2022-12-02 07:34:06 GMT 49.459351 3.815581 35,000 221 543 0
2022-12-02 07:34:03 GMT 49.459351 3.815581 35,000 221 541 0
2022-12-02 07:33:59 GMT 49.473816 3.834590 35,000 221 542 0
2022-12-02 07:33:55 GMT 49.473816 3.834590 35,000 221 542 0
2022-12-02 07:33:52 GMT 49.479488 3.842097 35,000 221 542 0
2022-12-02 07:33:50 GMT 49.484436 3.848612 35,000 221 542 0
2022-12-02 07:33:48 GMT 49.488235 3.853599 35,000 221 541 0
2022-12-02 07:33:45 GMT 49.492813 3.859598 35,000 221 541 0
2022-12-02 07:33:43 GMT 49.496994 3.865109 35,000 221 541 0
2022-12-02 07:33:40 GMT 49.503433 3.873620 35,000 221 540 0
2022-12-02 07:33:37 GMT 49.509888 3.882108 35,000 221 540 64
2022-12-02 07:33:34 GMT 49.515194 3.889086 35,000 221 540 0
2022-12-02 07:33:31 GMT 49.527695 3.905567 35,000 221 540 0
2022-12-02 07:33:27 GMT 49.533398 3.913063 35,000 221 540 0
2022-12-02 07:33:24 GMT 49.533398 3.913063 35,000 221 539 0
2022-12-02 07:33:22 GMT 49.536423 3.917071 35,000 221 540 0
2022-12-02 07:33:20 GMT 49.540558 3.922553 35,000 221 539 0
2022-12-02 07:33:16 GMT 49.548889 3.933611 35,000 221 539 0
2022-12-02 07:33:13 GMT 49.555664 3.942574 35,000 221 539 0
2022-12-02 07:33:09 GMT 49.560974 3.949585 35,000 221 539 0
2022-12-02 07:33:07 GMT 49.564728 3.954572 35,000 221 539 0
2022-12-02 07:33:04 GMT 49.571152 3.963095 35,000 221 539 0
2022-12-02 07:33:02 GMT 49.574177 3.967104 35,000 221 539 0
2022-12-02 07:32:59 GMT 49.579834 3.974593 35,000 221 539 0
2022-12-02 07:32:57 GMT 49.585487 3.982024 35,000 221 539 0
2022-12-02 07:32:54 GMT 49.591141 3.989555 35,000 221 539 0
2022-12-02 07:32:51 GMT 49.597961 3.998517 35,000 221 538 0
2022-12-02 07:32:48 GMT 49.602108 4.004071 35,000 221 538 0
2022-12-02 07:32:45 GMT 49.606979 4.010516 35,000 221 538 0
2022-12-02 07:32:43 GMT 49.609604 4.014018 35,000 221 538 0
2022-12-02 07:32:41 GMT 49.614532 4.020562 35,000 221 538 0
2022-12-02 07:32:38 GMT 49.620171 4.028048 35,000 221 533 64
2022-12-02 07:32:35 GMT 49.626526 4.036536 35,000 221 538 0
2022-12-02 07:32:32 GMT 49.631058 4.042535 35,000 221 538 0
2022-12-02 07:32:30 GMT 49.636696 4.050021 35,000 221 537 64
2022-12-02 07:32:26 GMT 49.653580 4.072531 35,000 221 537 64
2022-12-02 07:32:21 GMT 49.653580 4.072531 35,000 221 537 64
2022-12-02 07:32:18 GMT 49.659180 4.080085 35,000 221 537 0
2022-12-02 07:32:15 GMT 49.662552 4.084529 35,000 221 537 0
2022-12-02 07:32:12 GMT 49.672680 4.098049 35,000 221 537 0
2022-12-02 07:32:10 GMT 49.672680 4.098049 35,000 221 537 0
2022-12-02 07:32:07 GMT 49.678345 4.105562 35,000 221 537 0
2022-12-02 07:32:04 GMT 49.688049 4.118572 35,000 221 537 0
2022-12-02 07:31:59 GMT 49.692932 4.125069 35,000 221 537 0
2022-12-02 07:31:57 GMT 49.697449 4.131082 35,000 221 537 0
2022-12-02 07:31:54 GMT 49.702332 4.137654 35,000 221 536 0
2022-12-02 07:31:51 GMT 49.707176 4.144147 35,000 221 535 0
2022-12-02 07:31:48 GMT 49.713924 4.153129 35,000 221 536 0
2022-12-02 07:31:45 GMT 49.720276 4.161650 35,000 221 536 0
2022-12-02 07:31:41 GMT 49.727005 4.170685 35,000 221 536 0
2022-12-02 07:31:39 GMT 49.730759 4.175744 35,000 221 535 0
2022-12-02 07:31:36 GMT 49.738598 4.186236 35,000 221 535 0
2022-12-02 07:31:32 GMT 49.744171 4.193742 35,000 221 535 0
2022-12-02 07:31:30 GMT 49.746792 4.197223 35,000 222 534 0
2022-12-02 07:31:27 GMT 49.755386 4.208703 35,000 222 534 0
2022-12-02 07:31:24 GMT 49.757965 4.212218 35,000 221 533 0
2022-12-02 07:31:21 GMT 49.770626 4.229217 35,000 221 533 0
2022-12-02 07:31:18 GMT 49.770626 4.229217 35,000 222 533 0
2022-12-02 07:31:15 GMT 49.775482 4.235663 35,000 221 532 0
2022-12-02 07:31:12 GMT 49.784035 4.247181 35,000 221 532 0
2022-12-02 07:31:10 GMT 49.788456 4.253119 35,000 221 532 0
2022-12-02 07:31:08 GMT 49.788456 4.253119 35,000 221 532 64
2022-12-02 07:31:05 GMT 49.795906 4.263066 35,000 221 532 64
2022-12-02 07:31:02 GMT 49.799240 4.267610 35,000 221 532 64
2022-12-02 07:31:00 GMT 49.802948 4.272525 35,000 222 531 64
2022-12-02 07:30:58 GMT 49.812943 4.286004 35,000 221 530 64
2022-12-02 07:30:55 GMT 49.812943 4.286004 35,000 221 530 64
2022-12-02 07:30:51 GMT 49.819244 4.294426 35,000 221 530 64
2022-12-02 07:30:49 GMT 49.824417 4.301364 35,000 221 530 64
2022-12-02 07:30:47 GMT 49.834450 4.314806 35,000 221 530 0
2022-12-02 07:30:44 GMT 49.834450 4.314806 35,000 221 530 0
2022-12-02 07:30:41 GMT 49.839619 4.321784 35,000 221 530 0
2022-12-02 07:30:38 GMT 49.849640 4.335191 35,000 221 530 0
2022-12-02 07:30:36 GMT 49.849640 4.335191 35,000 221 530 0
2022-12-02 07:30:32 GMT 49.854813 4.342129 35,000 221 530 0
2022-12-02 07:30:29 GMT 49.861122 4.350586 35,000 221 530 0
2022-12-02 07:30:27 GMT 49.864426 4.355067 35,000 221 530 0
2022-12-02 07:30:24 GMT 49.869270 4.361498 35,000 221 530 0
2022-12-02 07:30:21 GMT 49.875927 4.370406 35,000 221 530 0
2022-12-02 07:30:18 GMT 49.881500 4.377835 35,000 221 530 0
2022-12-02 07:30:15 GMT 49.887798 4.386292 35,000 221 530 0
2022-12-02 07:30:12 GMT 49.892578 4.392724 35,000 221 530 0
2022-12-02 07:30:09 GMT 49.903702 4.407614 35,000 221 530 0
2022-12-02 07:30:06 GMT 49.903702 4.407614 35,000 221 530 0
2022-12-02 07:30:03 GMT 49.917023 4.425466 35,000 221 529 0
2022-12-02 07:29:59 GMT 49.917023 4.425466 35,000 221 529 0
2022-12-02 07:29:56 GMT 49.922527 4.432909 35,000 221 529 0
2022-12-02 07:29:53 GMT 49.935471 4.450258 35,000 221 529 0
2022-12-02 07:29:50 GMT 49.938400 4.454233 35,000 221 529 0
2022-12-02 07:29:47 GMT 49.938400 4.454233 35,000 221 529 0
2022-12-02 07:29:44 GMT 49.943939 4.461711 35,000 221 529 0
2022-12-02 07:29:41 GMT 49.952831 4.473588 35,000 221 529 0
2022-12-02 07:29:39 GMT 49.952831 4.473588 35,000 222 528 0
2022-12-02 07:29:36 GMT 49.958359 4.481049 35,000 225 525 0
2022-12-02 07:29:33 GMT 49.965637 4.491095 35,000 223 527 0
2022-12-02 07:29:31 GMT 49.968845 4.495709 35,000 227 523 64
2022-12-02 07:29:28 GMT 49.973083 4.501945 35,000 225 525 0
2022-12-02 07:29:25 GMT 49.979366 4.511372 35,000 227 523 64
2022-12-02 07:29:22 GMT 49.986118 4.522062 35,000 227 523 64
2022-12-02 07:29:18 GMT 49.996262 4.539160 35,000 228 523 64
2022-12-02 07:29:15 GMT 49.996262 4.539160 35,000 228 521 0
2022-12-02 07:29:12 GMT 50.000504 4.546336 35,000 228 521 0
2022-12-02 07:29:10 GMT 50.004368 4.553016 35,000 228 521 0
2022-12-02 07:29:07 GMT 50.009857 4.562434 35,000 228 521 0
2022-12-02 07:29:04 GMT 50.012791 4.567417 35,000 228 521 0
2022-12-02 07:29:01 GMT 50.018280 4.576818 35,000 228 521 0
2022-12-02 07:28:58 GMT 50.023731 4.586272 35,000 228 521 0
2022-12-02 07:28:55 GMT 50.029221 4.595682 35,000 228 521 64
2022-12-02 07:28:52 GMT 50.031830 4.600091 35,000 228 521 64
2022-12-02 07:28:50 GMT 50.035675 4.606741 35,000 228 521 64
2022-12-02 07:28:47 GMT 50.042446 4.618415 35,000 228 521 0
2022-12-02 07:28:44 GMT 50.050507 4.632255 35,000 228 521 0
2022-12-02 07:28:41 GMT 50.050507 4.632255 35,000 228 521 0
2022-12-02 07:28:39 GMT 50.057556 4.644470 35,000 228 521 0
2022-12-02 07:28:37 GMT 50.057556 4.644470 35,000 228 521 0
2022-12-02 07:28:34 GMT 50.061447 4.651120 35,000 228 521 0
2022-12-02 07:28:31 GMT 50.065933 4.658926 35,000 228 521 0
2022-12-02 07:28:29 GMT 50.069778 4.665576 35,000 229 520 -64
2022-12-02 07:28:26 GMT 50.073669 4.672225 35,000 229 520 -64
2022-12-02 07:28:24 GMT 50.077515 4.678947 35,000 229 520 -64
2022-12-02 07:28:21 GMT 50.082993 4.688341 35,025 228 519 -64
2022-12-02 07:28:18 GMT 50.087509 4.696136 35,000 229 520 -64
2022-12-02 07:28:16 GMT 50.090069 4.700515 35,025 228 519 -64
2022-12-02 07:28:14 GMT 50.092941 4.705546 35,025 228 519 -64
2022-12-02 07:28:11 GMT 50.098400 4.714991 35,025 228 519 -64
2022-12-02 07:28:07 GMT 50.105476 4.727165 35,000 229 520 128
2022-12-02 07:28:04 GMT 50.110645 4.736072 35,000 229 520 512
2022-12-02 07:28:01 GMT 50.114822 4.743275 34,975 229 521 768
2022-12-02 07:27:58 GMT 50.119949 4.752237 34,950 229 521 768
2022-12-02 07:27:55 GMT 50.126751 4.763909 34,900 229 522 704
2022-12-02 07:27:53 GMT 50.126751 4.763909 34,850 229 522 768
2022-12-02 07:27:50 GMT 50.132217 4.773415 34,800 229 522 768
2022-12-02 07:27:47 GMT 50.136063 4.780137 34,825 229 522 704
2022-12-02 07:27:45 GMT 50.140297 4.787367 34,800 229 522 704
2022-12-02 07:27:41 GMT 50.147049 4.799146 34,750 229 522 704
2022-12-02 07:27:37 GMT 50.151890 4.807558 34,700 229 522 704
2022-12-02 07:27:35 GMT 50.160919 4.823147 34,650 229 522 704
2022-12-02 07:27:32 GMT 50.166042 4.832129 34,625 229 522 704
2022-12-02 07:27:29 GMT 50.168289 4.836008 34,500 229 521 640
2022-12-02 07:27:27 GMT 50.168289 4.836008 34,575 229 521 704
2022-12-02 07:27:25 GMT 50.172180 4.842730 34,550 229 521 640
2022-12-02 07:27:23 GMT 50.175385 4.848296 34,375 229 520 640
2022-12-02 07:27:20 GMT 50.184357 4.863980 34,450 229 520 640
2022-12-02 07:27:17 GMT 50.184357 4.863980 34,400 229 520 640
2022-12-02 07:27:14 GMT 50.191406 4.876267 34,450 229 520 640
2022-12-02 07:27:11 GMT 50.194611 4.881833 34,425 229 520 640
2022-12-02 07:27:08 GMT 50.199738 4.890795 34,400 229 520 640
2022-12-02 07:27:05 GMT 50.206448 4.902500 34,325 229 519 704
2022-12-02 07:27:02 GMT 50.210312 4.909181 34,275 229 519 704
2022-12-02 07:26:59 GMT 50.213837 4.915298 34,275 229 519 704
2022-12-02 07:26:57 GMT 50.216995 4.920935 34,250 229 519 768
2022-12-02 07:26:55 GMT 50.220840 4.927585 34,225 229 519 768
2022-12-02 07:26:52 GMT 50.225327 4.935463 34,175 229 519 768
2022-12-02 07:26:49 GMT 50.233612 4.949991 34,075 229 519 768
2022-12-02 07:26:44 GMT 50.237732 4.957209 34,075 229 519 768
2022-12-02 07:26:41 GMT 50.243458 4.967305 34,050 229 519 640
2022-12-02 07:26:39 GMT 50.245697 4.971241 34,025 229 519 384
2022-12-02 07:26:36 GMT 50.251091 4.980741 34,000 229 519 64
2022-12-02 07:26:34 GMT 50.254307 4.986383 34,000 229 519 0
2022-12-02 07:26:31 GMT 50.263195 5.002046 34,000 229 519 64
2022-12-02 07:26:26 GMT 50.267014 5.008801 34,000 229 519 64
2022-12-02 07:26:23 GMT 50.272133 5.017708 34,000 229 519 64
2022-12-02 07:26:20 GMT 50.278198 5.028341 34,000 229 519 64
2022-12-02 07:26:17 GMT 50.281403 5.033907 34,000 229 519 64
2022-12-02 07:26:15 GMT 50.284561 5.039544 34,000 229 519 0
2022-12-02 07:26:11 GMT 50.291267 5.051261 34,000 229 518 -64
2022-12-02 07:26:08 GMT 50.295734 5.059130 34,000 229 518 0
2022-12-02 07:26:05 GMT 50.301132 5.068600 34,000 229 518 0
2022-12-02 07:26:02 GMT 50.305885 5.077020 34,000 229 518 0
2022-12-02 07:25:59 GMT 50.309372 5.083201 34,000 229 518 64
2022-12-02 07:25:57 GMT 50.313171 5.089922 34,000 229 518 0
2022-12-02 07:25:55 GMT 50.320816 5.103294 34,000 229 518 0
2022-12-02 07:25:52 GMT 50.320816 5.103294 34,000 229 518 64
2022-12-02 07:25:49 GMT 50.324924 5.110573 34,000 229 518 64
2022-12-02 07:25:47 GMT 50.328136 5.116214 34,000 229 518 64
2022-12-02 07:25:44 GMT 50.334778 5.127941 34,000 229 517 0
2022-12-02 07:25:41 GMT 50.337982 5.133506 34,000 229 517 -64
2022-12-02 07:25:38 GMT 50.342709 5.141898 34,000 229 517 -64
2022-12-02 07:25:36 GMT 50.345875 5.147466 34,000 229 517 0
2022-12-02 07:25:33 GMT 50.351601 5.157561 34,000 229 517 0
2022-12-02 07:25:31 GMT 50.359188 5.170997 34,000 229 517 0
2022-12-02 07:25:28 GMT 50.359188 5.170997 34,000 229 517 0
2022-12-02 07:25:25 GMT 50.364262 5.179905 34,000 229 517 64
2022-12-02 07:25:23 GMT 50.366501 5.183812 34,000 229 517 64
2022-12-02 07:25:21 GMT 50.371243 5.192228 34,000 229 517 64
2022-12-02 07:25:18 GMT 50.375061 5.198909 34,000 229 517 64
2022-12-02 07:25:15 GMT 50.379482 5.206777 34,000 229 517 64
2022-12-02 07:25:12 GMT 50.386467 5.219100 34,000 229 517 0
2022-12-02 07:25:09 GMT 50.389297 5.224144 34,000 229 517 0
2022-12-02 07:25:07 GMT 50.395309 5.234763 34,000 229 517 0
2022-12-02 07:25:05 GMT 50.395309 5.234763 34,000 229 517 0
2022-12-02 07:25:02 GMT 50.400387 5.243745 34,000 229 519 64
2022-12-02 07:24:59 GMT 50.405460 5.252727 34,000 229 519 64
2022-12-02 07:24:56 GMT 50.409576 5.259994 34,000 229 519 64
2022-12-02 07:24:53 GMT 50.414658 5.269029 34,000 229 519 64
2022-12-02 07:24:51 GMT 50.417816 5.274666 34,000 229 519 0
2022-12-02 07:24:48 GMT 50.421333 5.280861 34,000 229 519 64
2022-12-02 07:24:46 GMT 50.425415 5.288182 34,000 229 519 0
2022-12-02 07:24:41 GMT 50.437500 5.309577 34,000 229 520 64
2022-12-02 07:24:36 GMT 50.441586 5.316937 34,000 229 520 64
2022-12-02 07:24:34 GMT 50.444798 5.322579 34,000 229 520 64
2022-12-02 07:24:31 GMT 50.449539 5.330971 34,000 229 519 64
2022-12-02 07:24:28 GMT 50.452698 5.336609 34,000 229 519 0
2022-12-02 07:24:26 GMT 50.457138 5.344560 34,000 229 519 0
2022-12-02 07:24:24 GMT 50.460297 5.350197 34,000 229 519 0
2022-12-02 07:24:21 GMT 50.466660 5.361473 34,000 229 518 0
2022-12-02 07:24:17 GMT 50.474854 5.376145 34,000 229 518 0
2022-12-02 07:24:13 GMT 50.477711 5.381222 34,000 229 518 0
2022-12-02 07:24:10 GMT 50.483093 5.390818 34,000 229 518 0
2022-12-02 07:24:08 GMT 50.485611 5.395299 34,000 229 518 64
2022-12-02 07:24:06 GMT 50.489719 5.402675 34,000 229 518 64
2022-12-02 07:24:04 GMT 50.492886 5.408317 34,000 229 518 64
2022-12-02 07:24:01 GMT 50.497307 5.416186 34,000 229 518 64
2022-12-02 07:23:58 GMT 50.501732 5.424054 34,000 229 518 64
2022-12-02 07:23:56 GMT 50.504848 5.429696 34,000 229 518 64
2022-12-02 07:23:53 GMT 50.510529 5.439866 34,000 229 518 0
2022-12-02 07:23:50 GMT 50.516556 5.450592 34,000 229 518 0
2022-12-02 07:23:47 GMT 50.519669 5.456230 34,000 229 517 0
2022-12-02 07:23:44 GMT 50.523468 5.463024 34,000 229 517 0
2022-12-02 07:23:41 GMT 50.528217 5.471488 34,000 229 517 0
2022-12-02 07:23:38 GMT 50.532944 5.479937 34,000 229 517 0
2022-12-02 07:23:35 GMT 50.537979 5.488972 34,000 229 517 0
2022-12-02 07:23:32 GMT 50.543953 5.499696 34,000 229 517 0
2022-12-02 07:23:26 GMT 50.556568 5.522189 34,000 229 516 64
2022-12-02 07:23:20 GMT 50.562515 5.532845 34,000 229 516 0
2022-12-02 07:23:17 GMT 50.565369 5.537926 34,000 229 516 0
2022-12-02 07:23:15 GMT 50.569740 5.545795 34,000 229 515 0
2022-12-02 07:23:11 GMT 50.576027 5.557078 34,000 229 515 0
2022-12-02 07:23:08 GMT 50.580780 5.565443 34,000 229 515 64
2022-12-02 07:23:05 GMT 50.587990 5.578382 34,000 229 515 64
2022-12-02 07:23:03 GMT 50.587990 5.578382 34,000 229 515 64
2022-12-02 07:23:00 GMT 50.593323 5.587921 34,000 229 515 64
2022-12-02 07:22:57 GMT 50.596790 5.594045 34,000 229 515 64
2022-12-02 07:22:55 GMT 50.600876 5.601365 34,000 229 514 0
2022-12-02 07:22:52 GMT 50.605865 5.610327 34,000 229 513 0
2022-12-02 07:22:49 GMT 50.610569 5.618765 34,000 229 513 0
2022-12-02 07:22:46 GMT 50.619003 5.633890 34,000 229 513 0
2022-12-02 07:22:43 GMT 50.619003 5.633890 34,000 229 513 0
2022-12-02 07:22:41 GMT 50.622757 5.640612 34,000 229 513 0
2022-12-02 07:22:39 GMT 50.626209 5.646750 34,000 229 513 0
2022-12-02 07:22:37 GMT 50.629936 5.653505 34,000 229 512 64
2022-12-02 07:22:34 GMT 50.633377 5.659621 34,000 229 512 64
2022-12-02 07:22:32 GMT 50.636490 5.665259 34,000 229 512 0
2022-12-02 07:22:29 GMT 50.640549 5.672508 34,000 229 512 0
2022-12-02 07:22:26 GMT 50.651161 5.691512 34,000 229 512 0
2022-12-02 07:22:23 GMT 50.651161 5.691512 34,000 229 512 0
2022-12-02 07:22:20 GMT 50.655212 5.698796 34,000 229 511 64
2022-12-02 07:22:17 GMT 50.661125 5.709402 34,000 229 511 0
2022-12-02 07:22:14 GMT 50.670181 5.725612 34,000 229 511 64
2022-12-02 07:22:11 GMT 50.670181 5.725612 34,000 229 511 64
2022-12-02 07:22:08 GMT 50.673294 5.731226 34,000 229 511 64
2022-12-02 07:22:06 GMT 50.677326 5.738525 34,000 229 511 0
2022-12-02 07:22:03 GMT 50.683563 5.749664 34,000 229 511 0
2022-12-02 07:22:01 GMT 50.688217 5.758024 34,000 229 511 0
2022-12-02 07:21:59 GMT 50.688217 5.758024 34,000 229 511 0
2022-12-02 07:21:56 GMT 50.692566 5.765892 34,000 229 511 0
2022-12-02 07:21:53 GMT 50.698746 5.777027 34,000 229 511 64
2022-12-02 07:21:50 GMT 50.706207 5.790463 34,000 229 511 0
2022-12-02 07:21:47 GMT 50.706207 5.790463 34,000 229 511 0
2022-12-02 07:21:45 GMT 50.709320 5.796105 34,000 229 510 64
2022-12-02 07:21:43 GMT 50.711792 5.800559 34,000 229 510 64
2022-12-02 07:21:41 GMT 50.715172 5.806732 34,000 229 510 64
2022-12-02 07:21:38 GMT 50.720757 5.816803 34,000 229 510 64
2022-12-02 07:21:36 GMT 50.724152 5.822902 34,000 229 510 0
2022-12-02 07:21:34 GMT 50.727264 5.828544 34,000 229 510 64
2022-12-02 07:21:32 GMT 50.729416 5.832443 34,000 229 510 0
2022-12-02 07:21:29 GMT 50.734039 5.840867 34,000 229 510 64
2022-12-02 07:21:26 GMT 50.741753 5.854874 34,000 229 510 64
2022-12-02 07:21:22 GMT 50.749512 5.868852 34,000 229 510 64
2022-12-02 07:21:19 GMT 50.749512 5.868852 34,000 229 509 64
2022-12-02 07:21:16 GMT 50.758163 5.884515 34,000 229 508 0
2022-12-02 07:21:13 GMT 50.758163 5.884515 34,000 229 508 0
2022-12-02 07:21:10 GMT 50.765217 5.897369 34,000 229 508 0
2022-12-02 07:21:07 GMT 50.768005 5.902405 34,000 229 508 0
2022-12-02 07:21:05 GMT 50.772011 5.909729 34,000 230 508 0
2022-12-02 07:21:02 GMT 50.780960 5.925936 34,000 230 509 0
2022-12-02 07:20:59 GMT 50.780960 5.925936 34,000 230 508 0
2022-12-02 07:20:56 GMT 50.785263 5.933805 34,000 230 508 0
2022-12-02 07:20:54 GMT 50.788025 5.938797 34,000 230 509 0
2022-12-02 07:20:51 GMT 50.793823 5.949468 34,000 230 508 0
2022-12-02 07:20:48 GMT 50.798454 5.957870 34,000 230 508 0
2022-12-02 07:20:45 GMT 50.802429 5.965131 34,000 230 507 0
2022-12-02 07:20:42 GMT 50.808231 5.975800 34,000 230 507 64
2022-12-02 07:20:39 GMT 50.811909 5.982513 34,000 230 507 64
2022-12-02 07:20:37 GMT 50.814056 5.986435 34,000 230 507 64
2022-12-02 07:20:35 GMT 50.817402 5.992584 34,000 230 507 0
2022-12-02 07:20:32 GMT 50.826874 6.009967 34,000 230 506 0
2022-12-02 07:20:29 GMT 50.826874 6.009967 34,000 230 506 0
2022-12-02 07:20:26 GMT 50.832668 6.020660 34,000 230 506 0
2022-12-02 07:20:23 GMT 50.838501 6.031271 34,000 230 506 0
2022-12-02 07:20:21 GMT 50.838501 6.031271 34,000 230 506 64
2022-12-02 07:20:18 GMT 50.843052 6.039658 34,000 230 506 64
2022-12-02 07:20:16 GMT 50.846729 6.046371 34,000 230 506 64
2022-12-02 07:20:13 GMT 50.851913 6.055842 34,000 230 506 0
2022-12-02 07:20:10 GMT 50.856503 6.064301 34,000 230 506 0
2022-12-02 07:20:07 GMT 50.860786 6.072083 34,000 230 505 64
2022-12-02 07:20:05 GMT 50.863541 6.077147 34,000 230 506 64
2022-12-02 07:20:03 GMT 50.866280 6.082153 34,000 230 505 64
2022-12-02 07:20:01 GMT 50.870819 6.090583 34,000 230 505 64
2022-12-02 07:19:58 GMT 50.873886 6.096150 34,000 230 506 0
2022-12-02 07:19:55 GMT 50.878429 6.104584 34,000 230 506 0
2022-12-02 07:19:53 GMT 50.881504 6.110153 34,000 230 505 0
2022-12-02 07:19:50 GMT 50.885738 6.118011 34,000 230 505 0
2022-12-02 07:19:47 GMT 50.889725 6.125249 34,000 230 505 0
2022-12-02 07:19:45 GMT 50.893341 6.132004 34,000 230 505 0
2022-12-02 07:19:43 GMT 50.896679 6.138153 34,000 230 505 0
2022-12-02 07:19:40 GMT 50.900665 6.145440 34,000 230 505 0
2022-12-02 07:19:37 GMT 50.906708 6.156649 34,000 230 505 0
2022-12-02 07:19:34 GMT 50.916412 6.174613 34,000 230 505 0
2022-12-02 07:19:31 GMT 50.920376 6.181870 34,000 230 505 0
2022-12-02 07:19:28 GMT 50.920376 6.181870 34,000 230 504 0
2022-12-02 07:19:25 GMT 50.924610 6.189728 34,000 230 504 64
2022-12-02 07:19:22 GMT 50.927353 6.194730 34,000 230 504 64
2022-12-02 07:19:20 GMT 50.931313 6.202011 34,000 230 504 64
2022-12-02 07:19:17 GMT 50.936153 6.210938 34,000 230 504 0
2022-12-02 07:19:14 GMT 50.943146 6.223829 34,000 230 504 0
2022-12-02 07:19:12 GMT 50.949875 6.236077 34,000 230 504 0
2022-12-02 07:19:09 GMT 50.949875 6.236077 34,000 229 504 64
2022-12-02 07:19:06 GMT 50.953846 6.243362 34,000 230 504 64
2022-12-02 07:19:03 GMT 50.956917 6.248932 34,000 229 505 64
2022-12-02 07:19:01 GMT 50.960861 6.256120 34,000 229 505 64
2022-12-02 07:18:58 GMT 50.966694 6.266632 34,000 229 505 64
2022-12-02 07:18:55 GMT 50.970108 6.272748 34,000 229 505 0
2022-12-02 07:18:53 GMT 50.973221 6.278315 34,000 229 505 0
2022-12-02 07:18:50 GMT 50.978165 6.287075 34,000 229 505 0
2022-12-02 07:18:47 GMT 50.982197 6.294250 34,000 229 505 0
2022-12-02 07:18:44 GMT 50.985580 6.300362 34,000 229 505 64
2022-12-02 07:18:42 GMT 50.989643 6.307526 34,000 229 505 64
2022-12-02 07:18:40 GMT 50.993042 6.313576 34,000 229 505 64
2022-12-02 07:18:38 GMT 50.996441 6.319656 34,000 229 505 64
2022-12-02 07:18:35 GMT 51.000771 6.327362 34,000 229 504 64
2022-12-02 07:18:32 GMT 51.005447 6.335622 34,000 229 504 0
2022-12-02 07:18:29 GMT 51.011944 6.347198 34,000 229 505 64
2022-12-02 07:18:26 GMT 51.017212 6.356630 34,000 229 505 64
2022-12-02 07:18:24 GMT 51.017212 6.356630 34,000 229 505 64
2022-12-02 07:18:22 GMT 51.020920 6.363237 34,000 229 505 64
2022-12-02 07:18:19 GMT 51.025269 6.370957 34,000 229 505 64
2022-12-02 07:18:16 GMT 51.035156 6.388550 34,000 229 505 64
2022-12-02 07:18:13 GMT 51.035156 6.388550 34,000 229 504 0
2022-12-02 07:18:10 GMT 51.038910 6.395156 34,000 229 504 0
2022-12-02 07:18:08 GMT 51.042900 6.402359 34,000 229 504 0
2022-12-02 07:18:05 GMT 51.046967 6.409483 34,000 229 504 0
2022-12-02 07:18:03 GMT 51.051270 6.417203 34,000 229 504 0
2022-12-02 07:18:00 GMT 51.056259 6.426037 34,000 229 504 64
2022-12-02 07:17:57 GMT 51.060562 6.433757 34,000 229 504 0
2022-12-02 07:17:54 GMT 51.064270 6.440364 34,000 229 504 0
2022-12-02 07:17:52 GMT 51.067383 6.445931 34,000 229 504 0
2022-12-02 07:17:49 GMT 51.071091 6.452538 34,000 229 504 0
2022-12-02 07:17:47 GMT 51.075718 6.460800 34,000 229 504 0
2022-12-02 07:17:44 GMT 51.079742 6.467978 34,000 229 503 0
2022-12-02 07:17:41 GMT 51.083771 6.475143 34,000 229 503 0
2022-12-02 07:17:38 GMT 51.090225 6.486759 34,000 229 503 0
2022-12-02 07:17:35 GMT 51.098877 6.502199 34,000 229 503 0
2022-12-02 07:17:32 GMT 51.102299 6.508331 34,000 229 503 0
2022-12-02 07:17:29 GMT 51.102299 6.508331 34,000 229 503 0
2022-12-02 07:17:27 GMT 51.110596 6.523207 34,000 229 503 0
2022-12-02 07:17:24 GMT 51.110596 6.523207 34,000 229 503 0
2022-12-02 07:17:22 GMT 51.113068 6.527660 34,000 229 502 0
2022-12-02 07:17:20 GMT 51.117058 6.534805 34,000 229 502 0
2022-12-02 07:17:17 GMT 51.121387 6.542511 34,000 229 502 0
2022-12-02 07:17:14 GMT 51.126022 6.550821 34,000 229 502 0
2022-12-02 07:17:12 GMT 51.129997 6.557999 34,000 229 502 64
2022-12-02 07:17:09 GMT 51.133724 6.564636 34,000 229 502 64
2022-12-02 07:17:06 GMT 51.139870 6.575623 34,000 229 502 0
2022-12-02 07:17:03 GMT 51.142044 6.579549 34,000 229 502 0
2022-12-02 07:17:01 GMT 51.146057 6.586685 34,000 229 502 0
2022-12-02 07:16:58 GMT 51.149738 6.593323 34,000 229 502 0
2022-12-02 07:16:56 GMT 51.153416 6.599960 34,000 229 502 64
2022-12-02 07:16:53 GMT 51.157745 6.607666 34,000 229 502 64
2022-12-02 07:16:51 GMT 51.162025 6.615372 34,000 229 502 64
2022-12-02 07:16:48 GMT 51.167267 6.624756 34,000 229 501 0
2022-12-02 07:16:45 GMT 51.171570 6.632476 34,000 229 501 0
2022-12-02 07:16:42 GMT 51.174969 6.638565 34,000 229 501 0
2022-12-02 07:16:40 GMT 51.178345 6.644650 34,000 229 501 0
2022-12-02 07:16:37 GMT 51.184479 6.655636 34,000 229 501 0
2022-12-02 07:16:34 GMT 51.188187 6.662243 34,000 229 502 0
2022-12-02 07:16:32 GMT 51.191540 6.668320 34,000 229 501 0
2022-12-02 07:16:29 GMT 51.195217 6.674957 34,000 229 501 0
2022-12-02 07:16:27 GMT 51.197685 6.679382 34,000 229 501 0
2022-12-02 07:16:24 GMT 51.202576 6.688232 34,000 229 501 0
2022-12-02 07:16:22 GMT 51.205647 6.693726 34,000 229 501 0
2022-12-02 07:16:20 GMT 51.209610 6.700918 34,000 229 500 64
2022-12-02 07:16:17 GMT 51.213318 6.707524 34,000 229 500 0
2022-12-02 07:16:14 GMT 51.217888 6.715851 34,000 229 500 0
2022-12-02 07:16:12 GMT 51.220963 6.721344 34,000 229 500 0
2022-12-02 07:16:10 GMT 51.224899 6.728532 34,000 229 500 64
2022-12-02 07:16:07 GMT 51.229202 6.736326 34,000 229 500 0
2022-12-02 07:16:03 GMT 51.234375 6.745680 34,000 229 500 64
2022-12-02 07:16:01 GMT 51.238651 6.753464 34,000 229 500 0
2022-12-02 07:15:58 GMT 51.244144 6.763382 34,000 229 500 0
2022-12-02 07:15:55 GMT 51.247776 6.770020 34,000 229 500 0
2022-12-02 07:15:52 GMT 51.252365 6.778268 34,000 229 499 0
2022-12-02 07:15:49 GMT 51.256340 6.785507 34,000 229 499 0
2022-12-02 07:15:46 GMT 51.261833 6.795425 34,000 229 499 0
2022-12-02 07:15:43 GMT 51.265778 6.802616 34,000 229 499 0
2022-12-02 07:15:41 GMT 51.269142 6.808701 34,000 229 499 0
2022-12-02 07:15:38 GMT 51.273102 6.815829 34,000 229 499 64
2022-12-02 07:15:36 GMT 51.276169 6.821396 34,000 229 499 0
2022-12-02 07:15:33 GMT 51.281616 6.831269 34,000 229 499 0
2022-12-02 07:15:31 GMT 51.284969 6.837387 34,000 229 499 64
2022-12-02 07:15:28 GMT 51.288044 6.842880 34,000 229 499 64
2022-12-02 07:15:26 GMT 51.291367 6.848936 34,000 229 499 0
2022-12-02 07:15:23 GMT 51.295624 6.856656 34,000 229 499 0
2022-12-02 07:15:21 GMT 51.299881 6.864377 34,000 229 499 0
2022-12-02 07:15:18 GMT 51.304138 6.872097 34,000 229 498 0
2022-12-02 07:15:15 GMT 51.308712 6.880417 34,000 229 498 64
2022-12-02 07:15:12 GMT 51.312950 6.888123 34,000 229 498 64
2022-12-02 07:15:10 GMT 51.315414 6.892548 34,000 229 498 64
2022-12-02 07:15:07 GMT 51.320572 6.901938 34,000 229 498 0
2022-12-02 07:15:05 GMT 51.323284 6.906891 34,000 229 498 0
2022-12-02 07:15:02 GMT 51.328171 6.915665 34,000 229 498 0
2022-12-02 07:15:00 GMT 51.331196 6.921234 34,000 229 498 0
2022-12-02 07:14:57 GMT 51.335724 6.929478 34,000 229 498 64
2022-12-02 07:14:54 GMT 51.340622 6.938312 34,000 229 497 64
2022-12-02 07:14:52 GMT 51.347584 6.950989 34,000 229 497 64
2022-12-02 07:14:50 GMT 51.347584 6.950989 34,000 229 497 64
2022-12-02 07:14:47 GMT 51.351822 6.958694 34,000 229 497 64
2022-12-02 07:14:44 GMT 51.355450 6.965256 34,000 229 497 64
2022-12-02 07:14:41 GMT 51.359390 6.972458 34,000 229 497 0
2022-12-02 07:14:39 GMT 51.364243 6.981292 34,000 229 497 0
2022-12-02 07:14:36 GMT 51.367554 6.987381 34,000 229 497 0
2022-12-02 07:14:33 GMT 51.371792 6.995087 34,000 229 497 0
2022-12-02 07:14:31 GMT 51.375423 7.001648 34,000 229 496 0
2022-12-02 07:14:28 GMT 51.380871 7.011566 34,000 229 494 0
2022-12-02 07:14:25 GMT 51.383896 7.017059 34,000 229 494 0
2022-12-02 07:14:22 GMT 51.388687 7.025909 34,000 229 493 0
2022-12-02 07:14:20 GMT 51.392624 7.033032 34,025 229 492 0
2022-12-02 07:14:17 GMT 51.397114 7.041245 34,025 229 491 0
2022-12-02 07:14:14 GMT 51.402145 7.050476 34,025 229 489 0
2022-12-02 07:14:11 GMT 51.405449 7.056503 34,025 229 488 0
2022-12-02 07:14:08 GMT 51.409035 7.063065 34,025 229 487 0
2022-12-02 07:14:05 GMT 51.414047 7.072300 34,000 229 484 576
2022-12-02 07:14:02 GMT 51.418213 7.079872 34,025 229 486 64
2022-12-02 07:14:00 GMT 51.421738 7.086330 34,000 229 485 448
2022-12-02 07:13:57 GMT 51.430260 7.101974 33,975 229 484 768
2022-12-02 07:13:54 GMT 51.430260 7.101974 33,925 229 484 1088
2022-12-02 07:13:51 GMT 51.434692 7.110084 33,900 229 484 1088
2022-12-02 07:13:49 GMT 51.437622 7.115503 33,875 229 484 1024
2022-12-02 07:13:46 GMT 51.442886 7.125228 33,800 230 484 960
2022-12-02 07:13:43 GMT 51.447006 7.132725 33,750 230 484 960
2022-12-02 07:13:39 GMT 51.457306 7.151642 33,675 230 484 1088
2022-12-02 07:13:36 GMT 51.461105 7.158706 33,650 230 484 1216
2022-12-02 07:13:33 GMT 51.465225 7.166278 33,575 230 484 1216
2022-12-02 07:13:30 GMT 51.465225 7.166278 33,525 230 484 1152
2022-12-02 07:13:27 GMT 51.469643 7.174377 33,500 230 485 1088
2022-12-02 07:13:24 GMT 51.475510 7.185287 33,400 230 486 1152
2022-12-02 07:13:21 GMT 51.483143 7.199326 33,375 230 486 1216
2022-12-02 07:13:18 GMT 51.483143 7.199326 33,300 230 486 1280
2022-12-02 07:13:15 GMT 51.487846 7.208023 33,275 230 486 1216
2022-12-02 07:13:12 GMT 51.491989 7.215652 33,100 230 486 1216
2022-12-02 07:13:09 GMT 51.496132 7.223206 33,150 230 486 1152
2022-12-02 07:13:06 GMT 51.500519 7.231379 33,075 230 487 1152
2022-12-02 07:13:03 GMT 51.505829 7.241178 32,975 229 487 1088
2022-12-02 07:13:00 GMT 51.514381 7.256927 32,900 229 487 1216
2022-12-02 07:12:57 GMT 51.514381 7.256927 32,925 229 487 1152
2022-12-02 07:12:55 GMT 51.516754 7.261276 32,850 229 487 1216
2022-12-02 07:12:52 GMT 51.521164 7.269460 32,800 229 487 1216
2022-12-02 07:12:50 GMT 51.523830 7.274399 32,825 229 487 1216
2022-12-02 07:12:48 GMT 51.528259 7.282525 32,750 229 487 1216
2022-12-02 07:12:45 GMT 51.532116 7.289658 32,625 229 487 1280
2022-12-02 07:12:42 GMT 51.537422 7.299423 32,475 229 489 1408
2022-12-02 07:12:39 GMT 51.543941 7.311401 32,575 230 488 1344
2022-12-02 07:12:37 GMT 51.543941 7.311401 32,450 229 489 1408
2022-12-02 07:12:34 GMT 51.547478 7.317963 32,450 230 489 1344
2022-12-02 07:12:31 GMT 51.551926 7.326174 32,400 230 489 1344
2022-12-02 07:12:29 GMT 51.554901 7.331667 32,375 230 489 1344
2022-12-02 07:12:26 GMT 51.559349 7.339859 32,125 230 489 1216
2022-12-02 07:12:23 GMT 51.563782 7.348072 32,175 229 490 1280
2022-12-02 07:12:20 GMT 51.568542 7.356906 32,150 229 490 1280
2022-12-02 07:12:17 GMT 51.572990 7.365112 32,075 230 491 1280
2022-12-02 07:12:14 GMT 51.577740 7.373886 32,050 230 491 1216
2022-12-02 07:12:11 GMT 51.582184 7.382144 32,000 230 491 1216
2022-12-02 07:12:09 GMT 51.585464 7.388153 31,850 230 491 1152
2022-12-02 07:12:06 GMT 51.590214 7.397003 31,875 230 491 1088
2022-12-02 07:12:03 GMT 51.594086 7.404117 31,800 230 491 960
2022-12-02 07:12:00 GMT 51.598251 7.411837 31,750 230 490 960
2022-12-02 07:11:57 GMT 51.603561 7.421710 31,700 230 490 960
2022-12-02 07:11:54 GMT 51.606537 7.427203 31,650 230 490 960
2022-12-02 07:11:51 GMT 51.612743 7.438736 31,550 230 489 896
2022-12-02 07:11:48 GMT 51.616890 7.446442 31,525 230 489 832
2022-12-02 07:11:45 GMT 51.620728 7.453630 31,525 230 487 832
2022-12-02 07:11:42 GMT 51.626038 7.463503 31,450 230 488 832
2022-12-02 07:11:39 GMT 51.630436 7.471695 31,450 230 487 832
2022-12-02 07:11:36 GMT 51.634277 7.478869 31,400 230 486 768
2022-12-02 07:11:33 GMT 51.639278 7.488174 31,375 230 486 768
2022-12-02 07:11:30 GMT 51.643112 7.495274 31,350 230 486 768
2022-12-02 07:11:27 GMT 51.647518 7.503510 31,300 230 486 768
2022-12-02 07:11:24 GMT 51.650452 7.508926 31,250 230 484 832
2022-12-02 07:11:21 GMT 51.655975 7.519325 31,225 230 484 832
2022-12-02 07:11:18 GMT 51.661285 7.529124 31,200 230 484 832
2022-12-02 07:11:15 GMT 51.668884 7.543228 31,150 230 484 832
2022-12-02 07:11:13 GMT 51.668884 7.543228 31,125 230 483 768
2022-12-02 07:11:10 GMT 51.674988 7.554626 31,075 230 483 832
2022-12-02 07:11:08 GMT 51.674988 7.554626 31,075 230 483 832
2022-12-02 07:11:05 GMT 51.680244 7.564392 30,950 230 482 832
2022-12-02 07:11:02 GMT 51.683441 7.570397 30,950 230 481 832
2022-12-02 07:10:59 GMT 51.688660 7.580195 30,925 230 481 832
2022-12-02 07:10:56 GMT 51.696762 7.595339 30,900 230 481 832
2022-12-02 07:10:53 GMT 51.696762 7.595339 30,875 230 480 768
2022-12-02 07:10:50 GMT 51.700241 7.601797 30,850 230 480 832
2022-12-02 07:10:48 GMT 51.703125 7.607216 30,775 230 479 960
2022-12-02 07:10:45 GMT 51.707478 7.615356 30,750 230 479 1024
2022-12-02 07:10:43 GMT 51.716446 7.632083 30,675 230 479 1024
2022-12-02 07:10:40 GMT 51.716446 7.632083 30,625 230 478 1024
2022-12-02 07:10:37 GMT 51.719879 7.638542 30,625 230 478 1024
2022-12-02 07:10:34 GMT 51.723633 7.645569 30,575 230 478 1024
2022-12-02 07:10:31 GMT 51.728531 7.654724 30,475 230 477 1088
2022-12-02 07:10:29 GMT 51.731415 7.660143 30,500 230 477 1088
2022-12-02 07:10:27 GMT 51.734013 7.664948 30,425 230 477 1088
2022-12-02 07:10:24 GMT 51.738064 7.672501 30,400 230 477 1152
2022-12-02 07:10:21 GMT 51.742355 7.680557 30,300 230 477 1152
2022-12-02 07:10:18 GMT 51.747234 7.689743 30,275 230 477 1216
2022-12-02 07:10:16 GMT 51.750412 7.695626 30,200 230 477 1216
2022-12-02 07:10:13 GMT 51.753845 7.702084 30,175 230 477 1216
2022-12-02 07:10:10 GMT 51.759895 7.713394 30,100 230 477 1216
2022-12-02 07:10:07 GMT 51.763641 7.720419 30,075 230 477 1216
2022-12-02 07:10:04 GMT 51.767075 7.726878 29,975 230 477 1280
2022-12-02 07:10:01 GMT 51.772514 7.737122 29,750 230 477 1344
2022-12-02 07:09:58 GMT 51.775681 7.742986 29,900 230 477 1344
2022-12-02 07:09:56 GMT 51.782848 7.756500 29,775 230 477 1344
2022-12-02 07:09:53 GMT 51.782848 7.756500 29,775 230 477 1344
2022-12-02 07:09:50 GMT 51.787457 7.765121 29,700 230 477 1344
2022-12-02 07:09:47 GMT 51.792622 7.774811 29,625 230 477 1408
2022-12-02 07:09:44 GMT 51.796921 7.782848 29,475 230 477 1472
2022-12-02 07:09:41 GMT 51.800629 7.789917 29,325 230 478 1152
2022-12-02 07:09:38 GMT 51.804073 7.796402 29,450 230 478 1152
2022-12-02 07:09:36 GMT 51.808125 7.803955 29,300 230 475 1088
2022-12-02 07:09:33 GMT 51.816132 7.819061 29,350 230 476 832
2022-12-02 07:09:30 GMT 51.816132 7.819061 29,325 230 476 960
2022-12-02 07:09:28 GMT 51.818413 7.823334 29,275 230 475 1088
2022-12-02 07:09:25 GMT 51.822975 7.831955 29,200 230 474 832
2022-12-02 07:09:22 GMT 51.828415 7.842160 29,175 230 474 960
2022-12-02 07:09:19 GMT 51.830982 7.847061 29,075 230 473 768
2022-12-02 07:09:17 GMT 51.835236 7.855076 29,075 230 473 768
2022-12-02 07:09:14 GMT 51.838943 7.862091 29,050 230 473 768
2022-12-02 07:09:12 GMT 51.842606 7.869106 29,025 230 473 832
2022-12-02 07:09:09 GMT 51.845181 7.873917 28,875 230 471 960
2022-12-02 07:09:06 GMT 51.851120 7.885140 28,950 230 470 960
2022-12-02 07:09:03 GMT 51.855328 7.893143 28,875 230 470 1024
2022-12-02 07:09:00 GMT 51.858994 7.900061 28,750 230 469 1152
2022-12-02 07:08:57 GMT 51.864075 7.909711 28,775 230 469 1216
2022-12-02 07:08:54 GMT 51.866318 7.913942 28,650 230 468 1280
2022-12-02 07:08:51 GMT 51.875885 7.932055 28,625 230 468 768
2022-12-02 07:08:48 GMT 51.879776 7.939478 28,600 230 468 896
2022-12-02 07:08:45 GMT 51.883446 7.946396 28,550 230 467 832
2022-12-02 07:08:42 GMT 51.883446 7.946396 28,475 230 466 960
2022-12-02 07:08:39 GMT 51.891266 7.961273 28,475 230 466 1024
2022-12-02 07:08:37 GMT 51.891266 7.961273 28,450 230 466 960
2022-12-02 07:08:34 GMT 51.895737 7.969718 28,400 230 465 1024
2022-12-02 07:08:31 GMT 51.899368 7.976608 28,350 230 465 1024
2022-12-02 07:08:28 GMT 51.903259 7.984009 28,325 230 464 960
2022-12-02 07:08:25 GMT 51.910492 7.997742 28,250 230 463 960
2022-12-02 07:08:22 GMT 51.910492 7.997742 28,150 230 462 1024
2022-12-02 07:08:19 GMT 51.916313 8.008798 28,150 230 462 1088
2022-12-02 07:08:15 GMT 51.921021 8.017731 28,075 230 461 1088
2022-12-02 07:08:12 GMT 51.926273 8.027710 28,025 230 461 1088
2022-12-02 07:08:09 GMT 51.929855 8.034515 27,900 230 461 1088
2022-12-02 07:08:06 GMT 51.934002 8.042385 27,875 230 459 1024
2022-12-02 07:08:03 GMT 51.938984 8.051723 27,875 230 459 1024
2022-12-02 07:08:00 GMT 51.942287 8.058001 27,850 230 458 1024
2022-12-02 07:07:57 GMT 51.948296 8.069536 27,750 230 458 1088
2022-12-02 07:07:55 GMT 51.948296 8.069536 27,750 230 458 1152
2022-12-02 07:07:53 GMT 51.951599 8.075736 27,650 230 456 1216
2022-12-02 07:07:50 GMT 51.955975 8.084054 27,650 230 456 1152
2022-12-02 07:07:48 GMT 51.958164 8.088213 27,250 230 455 960
2022-12-02 07:07:45 GMT 51.962814 8.097076 27,525 230 455 960
2022-12-02 07:07:42 GMT 51.966614 8.104324 27,475 230 455 960
2022-12-02 07:07:39 GMT 51.969910 8.110580 27,450 230 455 960
2022-12-02 07:07:37 GMT 51.976131 8.122506 27,425 230 454 1088
2022-12-02 07:07:35 GMT 51.976131 8.122506 27,275 230 451 1088
2022-12-02 07:07:33 GMT 51.978832 8.127686 27,225 230 451 1088
2022-12-02 07:07:30 GMT 51.983459 8.136444 27,225 230 451 1088
2022-12-02 07:07:27 GMT 51.986664 8.142624 26,250 230 432 1152
2022-12-02 07:07:24 GMT 51.996101 8.160645 27,150 230 450 960
2022-12-02 07:07:21 GMT 51.996101 8.160645 27,125 230 449 1152
2022-12-02 07:07:19 GMT 51.997971 8.164291 27,075 230 449 1280
2022-12-02 07:07:16 GMT 52.001221 8.170395 27,025 230 449 1216
2022-12-02 07:07:13 GMT 52.005478 8.178635 26,925 230 448 1152
2022-12-02 07:07:10 GMT 52.009510 8.186305 26,925 230 448 1152
2022-12-02 07:07:07 GMT 52.013535 8.194046 26,875 230 447 1216
2022-12-02 07:07:05 GMT 52.017006 8.200666 26,825 230 447 1280
2022-12-02 07:07:03 GMT 52.023384 8.212908 26,725 230 446 1152
2022-12-02 07:07:00 GMT 52.023384 8.212908 26,725 230 446 1152
2022-12-02 07:06:57 GMT 52.027359 8.220596 26,625 230 445 1152
2022-12-02 07:06:53 GMT 52.035873 8.236923 26,550 230 444 1408
2022-12-02 07:06:50 GMT 52.035873 8.236923 26,525 230 444 1408
2022-12-02 07:06:47 GMT 52.039864 8.244533 26,375 230 444 1344
2022-12-02 07:06:44 GMT 52.044609 8.253714 26,300 230 444 896
2022-12-02 07:06:41 GMT 52.051498 8.266898 26,300 230 441 832
2022-12-02 07:06:39 GMT 52.051498 8.266898 26,300 230 441 832
2022-12-02 07:06:36 GMT 52.054916 8.273468 26,075 230 439 1216
2022-12-02 07:06:33 GMT 52.059128 8.281555 26,175 230 439 1216
2022-12-02 07:06:30 GMT 52.063091 8.289106 26,175 230 439 1216
2022-12-02 07:06:27 GMT 52.067280 8.297110 26,075 230 437 1024
2022-12-02 07:06:24 GMT 52.070663 8.303604 26,025 230 435 960
2022-12-02 07:06:21 GMT 52.074875 8.311615 25,975 230 436 960
2022-12-02 07:06:19 GMT 52.076935 8.315659 25,750 230 434 1088
2022-12-02 07:06:16 GMT 52.081604 8.324585 25,900 230 434 1024
2022-12-02 07:06:13 GMT 52.084717 8.330612 25,750 230 433 1216
2022-12-02 07:06:10 GMT 52.088600 8.338074 25,700 230 432 1216
2022-12-02 07:06:07 GMT 52.093002 8.346481 25,625 230 431 960
2022-12-02 07:06:04 GMT 52.096619 8.353424 25,525 230 432 1088
2022-12-02 07:06:01 GMT 52.101746 8.363342 25,550 230 425 0
2022-12-02 07:05:58 GMT 52.104813 8.369293 25,550 230 429 1216
2022-12-02 07:05:55 GMT 52.112251 8.383589 25,475 230 428 1344
2022-12-02 07:05:52 GMT 52.112251 8.383589 25,450 230 427 1536
2022-12-02 07:05:50 GMT 52.114254 8.387512 25,375 230 427 1536
2022-12-02 07:05:47 GMT 52.119598 8.397827 25,275 230 424 0
2022-12-02 07:05:44 GMT 52.122665 8.403702 24,275 230 426 1152
2022-12-02 07:05:41 GMT 52.129009 8.415920 24,275 230 416 1088
2022-12-02 07:05:39 GMT 52.129009 8.415920 25,100 230 425 1088
2022-12-02 07:05:36 GMT 52.132324 8.422318 25,000 230 424 1280
2022-12-02 07:05:33 GMT 52.136856 8.431091 24,925 230 423 1536
2022-12-02 07:05:30 GMT 52.139626 8.436401 24,975 230 423 1536
2022-12-02 07:05:27 GMT 52.143673 8.444249 24,900 230 423 1536
2022-12-02 07:05:24 GMT 52.147934 8.452454 24,775 230 422 1216
2022-12-02 07:05:21 GMT 52.150955 8.458328 24,700 230 422 1216
2022-12-02 07:05:18 GMT 52.158966 8.473816 24,650 230 420 1216
2022-12-02 07:05:15 GMT 52.158966 8.473816 24,600 230 419 1344
2022-12-02 07:05:12 GMT 52.163227 8.481995 24,525 230 419 1344
2022-12-02 07:05:09 GMT 52.165924 8.487320 24,375 230 418 1088
2022-12-02 07:05:06 GMT 52.169403 8.494034 24,400 230 416 1088
2022-12-02 07:05:03 GMT 52.173386 8.501740 24,325 230 415 1152
2022-12-02 07:05:00 GMT 52.177608 8.509853 24,300 230 415 1216
2022-12-02 07:04:56 GMT 52.182034 8.518406 24,125 231 412 1472
2022-12-02 07:04:53 GMT 52.185944 8.526018 23,950 231 411 1408
2022-12-02 07:04:50 GMT 52.189636 8.533173 24,000 231 412 1472
2022-12-02 07:04:47 GMT 52.193298 8.540301 23,525 231 407 1856
2022-12-02 07:04:44 GMT 52.200607 8.554504 23,825 231 409 1408
2022-12-02 07:04:41 GMT 52.200607 8.554504 23,825 231 409 1408
2022-12-02 07:04:38 GMT 52.204742 8.562546 23,600 230 408 1536
2022-12-02 07:04:35 GMT 52.207672 8.568192 23,600 231 408 1728
2022-12-02 07:04:31 GMT 52.217087 8.586522 23,525 231 407 1920
2022-12-02 07:04:28 GMT 52.217087 8.586522 23,400 231 407 1856
2022-12-02 07:04:25 GMT 52.219975 8.592172 22,650 231 405 1984
2022-12-02 07:04:22 GMT 52.223839 8.599705 23,225 231 406 1664
2022-12-02 07:04:19 GMT 52.226944 8.605804 23,150 231 406 1728
2022-12-02 07:04:16 GMT 52.231293 8.614273 23,125 231 406 1856
2022-12-02 07:04:13 GMT 52.234406 8.620344 22,950 231 406 1984
2022-12-02 07:04:10 GMT 52.238270 8.627877 22,850 231 405 1984
2022-12-02 07:04:07 GMT 52.241364 8.633957 22,800 231 405 1984
2022-12-02 07:04:04 GMT 52.248550 8.647995 22,600 231 404 1792
2022-12-02 07:04:01 GMT 52.248550 8.647995 22,600 231 404 1792
2022-12-02 07:03:58 GMT 52.252605 8.655971 22,500 231 404 1728
2022-12-02 07:03:55 GMT 52.256699 8.663940 22,225 231 403 1792
2022-12-02 07:03:52 GMT 52.260288 8.670959 22,225 231 403 1792
2022-12-02 07:03:49 GMT 52.263126 8.676531 22,225 231 402 1728
2022-12-02 07:03:46 GMT 52.271229 8.692383 21,875 231 402 1664
2022-12-02 07:03:43 GMT 52.271229 8.692383 22,000 231 400 1344
2022-12-02 07:03:40 GMT 52.274113 8.697954 21,900 230 398 1152
2022-12-02 07:03:38 GMT 52.276955 8.703526 21,950 230 399 1216
2022-12-02 07:03:35 GMT 52.279327 8.708156 21,900 230 396 1280
2022-12-02 07:03:32 GMT 52.283562 8.716396 21,725 230 396 1280
2022-12-02 07:03:29 GMT 52.287846 8.724636 21,725 230 396 1280
2022-12-02 07:03:25 GMT 52.291397 8.731461 21,425 234 390 1536
2022-12-02 07:03:22 GMT 52.295387 8.739232 21,600 231 393 1472
2022-12-02 07:03:19 GMT 52.301720 8.752101 21,525 233 392 1472
2022-12-02 07:03:16 GMT 52.301720 8.752101 21,450 234 390 1536
2022-12-02 07:03:13 GMT 52.304947 8.759232 21,350 236 389 1536
2022-12-02 07:03:10 GMT 52.309479 8.769836 21,300 237 388 1600
2022-12-02 07:03:06 GMT 52.312637 8.777618 21,150 238 387 1600
2022-12-02 07:03:02 GMT 52.315823 8.786080 21,075 241 386 1664
2022-12-02 07:02:59 GMT 52.318710 8.794163 20,925 242 385 1792
2022-12-02 07:02:56 GMT 52.324295 8.811663 20,875 244 384 1856
2022-12-02 07:02:53 GMT 52.324295 8.811663 20,775 246 384 1856
2022-12-02 07:02:50 GMT 52.327927 8.824844 20,725 249 382 1728
2022-12-02 07:02:47 GMT 52.327927 8.824844 20,600 249 382 1728
2022-12-02 07:02:44 GMT 52.333000 8.845799 20,525 249 381 1664
2022-12-02 07:02:40 GMT 52.333000 8.845799 20,325 249 379 1984
2022-12-02 07:02:37 GMT 52.334656 8.852768 20,350 249 379 1920
2022-12-02 07:02:33 GMT 52.337284 8.864005 20,150 249 379 2048
2022-12-02 07:02:30 GMT 52.338913 8.870911 20,125 250 377 2048
2022-12-02 07:02:28 GMT 52.340790 8.878937 20,025 250 377 2048
2022-12-02 07:02:25 GMT 52.343536 8.890610 19,875 250 377 2112
2022-12-02 07:02:20 GMT 52.345154 8.897513 19,700 250 375 2176
2022-12-02 07:02:17 GMT 52.347107 8.905988 17,050 250 375 2240
2022-12-02 07:02:14 GMT 52.348984 8.913956 19,450 250 375 2240
2022-12-02 07:02:11 GMT 52.350723 8.921356 19,400 250 375 2304
2022-12-02 07:02:08 GMT 52.352692 8.929825 19,275 250 374 2368
2022-12-02 07:02:05 GMT 52.354553 8.937770 19,150 250 374 2368
2022-12-02 07:02:02 GMT 52.357864 8.952026 18,975 250 374 2304
2022-12-02 07:01:56 GMT 52.359955 8.960999 18,800 250 374 2240
2022-12-02 07:01:53 GMT 52.361446 8.967276 18,750 250 373 2176
2022-12-02 07:01:50 GMT 52.363911 8.977870 18,600 250 373 2240
2022-12-02 07:01:48 GMT 52.365124 8.983128 18,275 250 373 2240
2022-12-02 07:01:45 GMT 52.366974 8.991013 18,275 250 372 2240
2022-12-02 07:01:42 GMT 52.369171 9.000473 18,275 250 372 2240
2022-12-02 07:01:39 GMT 52.370476 9.006199 18,225 250 371 2176
2022-12-02 07:01:36 GMT 52.372330 9.014130 18,050 250 371 2112
2022-12-02 07:01:33 GMT 52.374023 9.021454 17,850 250 368 2112
2022-12-02 07:01:30 GMT 52.376221 9.030838 17,850 250 368 2112
2022-12-02 07:01:27 GMT 52.377411 9.036026 17,775 250 369 2112
2022-12-02 07:01:24 GMT 52.379837 9.046402 17,500 250 366 2112
2022-12-02 07:01:20 GMT 52.383602 9.062544 17,400 250 366 2112
2022-12-02 07:01:15 GMT 52.385281 9.069763 17,075 250 364 2304
2022-12-02 07:01:12 GMT 52.386955 9.076983 17,150 250 364 2304
2022-12-02 07:01:09 GMT 52.388763 9.084702 17,125 250 364 2304
2022-12-02 07:01:06 GMT 52.390411 9.091873 16,975 250 364 2304
2022-12-02 07:01:03 GMT 52.392563 9.101181 16,825 250 363 2176
2022-12-02 07:01:00 GMT 52.395802 9.114964 16,725 250 361 2304
2022-12-02 07:00:57 GMT 52.395802 9.114964 16,200 250 360 2432
2022-12-02 07:00:54 GMT 52.397476 9.122105 16,475 250 360 2432
2022-12-02 07:00:51 GMT 52.399105 9.129246 16,325 250 360 2432
2022-12-02 07:00:48 GMT 52.400894 9.136887 16,200 250 360 2432
2022-12-02 07:00:45 GMT 52.403229 9.147110 15,950 250 359 2432
2022-12-02 07:00:42 GMT 52.405018 9.154672 16,000 250 359 2432
2022-12-02 07:00:39 GMT 52.406181 9.159773 15,925 250 359 2432
2022-12-02 07:00:37 GMT 52.407944 9.167404 15,800 250 358 2368
2022-12-02 07:00:34 GMT 52.409252 9.172956 15,625 250 358 2368
2022-12-02 07:00:31 GMT 52.411240 9.181519 15,400 250 356 2432
2022-12-02 07:00:28 GMT 52.412979 9.189122 15,400 250 356 2432
2022-12-02 07:00:25 GMT 52.414143 9.194144 15,200 250 356 2432
2022-12-02 07:00:22 GMT 52.416138 9.202728 15,125 250 355 2432
2022-12-02 07:00:19 GMT 52.417969 9.210739 15,025 250 354 2560
2022-12-02 07:00:15 GMT 52.420303 9.220810 14,625 250 353 2624
2022-12-02 07:00:12 GMT 52.422134 9.228821 14,625 250 353 2624
2022-12-02 07:00:09 GMT 52.424290 9.238325 14,600 250 353 2688
2022-12-02 07:00:06 GMT 52.425453 9.243347 14,275 250 352 2816
2022-12-02 07:00:03 GMT 52.427399 9.251862 14,325 250 352 2880
2022-12-02 07:00:00 GMT 52.428898 9.258336 14,125 250 352 2624
2022-12-02 06:59:57 GMT 52.430714 9.266340 13,750 250 349 2048
2022-12-02 06:59:54 GMT 52.432663 9.274826 13,950 250 351 2048
2022-12-02 06:59:51 GMT 52.434265 9.281769 13,850 250 350 1984
2022-12-02 06:59:48 GMT 52.436050 9.289703 13,750 250 349 2176
2022-12-02 06:59:44 GMT 52.438442 9.300005 13,550 250 346 2560
2022-12-02 06:59:41 GMT 52.441330 9.312796 13,350 250 345 2560
2022-12-02 06:59:38 GMT 52.441330 9.312796 13,350 250 345 2560
2022-12-02 06:59:35 GMT 52.442680 9.318682 13,150 250 344 2688
2022-12-02 06:59:32 GMT 52.446808 9.336777 13,025 250 344 2816
2022-12-02 06:59:29 GMT 52.446808 9.336777 12,900 250 343 2944
2022-12-02 06:59:26 GMT 52.448364 9.343567 12,750 250 343 3008
2022-12-02 06:59:22 GMT 52.450218 9.351876 12,550 250 343 2944
2022-12-02 06:59:19 GMT 52.452347 9.361115 12,400 250 343 2816
2022-12-02 06:59:17 GMT 52.453106 9.364511 12,225 250 343 2816
2022-12-02 06:59:14 GMT 52.454773 9.371872 12,025 250 343 2880
2022-12-02 06:59:11 GMT 52.456181 9.378165 11,750 250 342 2880
2022-12-02 06:59:08 GMT 52.459625 9.393234 11,750 250 342 3008
2022-12-02 06:59:05 GMT 52.461487 9.401472 11,650 250 342 2880
2022-12-02 06:59:01 GMT 52.461487 9.401472 11,525 250 342 2688
2022-12-02 06:58:58 GMT 52.463333 9.409790 11,350 250 341 2304
2022-12-02 06:58:55 GMT 52.464890 9.416504 11,200 250 339 1472
2022-12-02 06:58:52 GMT 52.468468 9.432390 11,100 250 336 960
2022-12-02 06:58:49 GMT 52.468468 9.432390 11,125 250 325 1024
2022-12-02 06:58:45 GMT 52.470520 9.441376 11,075 250 328 896
2022-12-02 06:58:41 GMT 52.473171 9.452951 11,000 250 323 1088
2022-12-02 06:58:37 GMT 52.474659 9.459307 10,950 250 319 896
2022-12-02 06:58:33 GMT 52.476940 9.469273 10,850 250 311 832
2022-12-02 06:58:30 GMT 52.478199 9.474531 10,825 250 307 1024
2022-12-02 06:58:27 GMT 52.480015 9.482457 10,800 250 303 1088
2022-12-02 06:58:23 GMT 52.481918 9.490585 10,700 250 300 1024
2022-12-02 06:58:20 GMT 52.483414 9.496974 10,625 250 294 640
2022-12-02 06:58:16 GMT 52.485134 9.504586 10,500 250 278 1984
2022-12-02 06:58:13 GMT 52.486771 9.511566 10,575 250 286 768
2022-12-02 06:58:10 GMT 52.489792 9.524833 10,525 250 281 1344
2022-12-02 06:58:07 GMT 52.489792 9.524833 10,450 250 277 2560
2022-12-02 06:58:04 GMT 52.490860 9.529619 10,325 250 277 2560
2022-12-02 06:58:01 GMT 52.492256 9.535897 10,225 250 275 2816
2022-12-02 06:57:57 GMT 52.494026 9.543745 10,050 251 275 2880
2022-12-02 06:57:53 GMT 52.495651 9.551163 9,675 251 275 2880
2022-12-02 06:57:50 GMT 52.497147 9.557870 9,400 250 276 3200
2022-12-02 06:57:47 GMT 52.498310 9.563363 9,475 251 274 3392
2022-12-02 06:57:43 GMT 52.499771 9.570007 9,350 251 274 3392
2022-12-02 06:57:40 GMT 52.501007 9.575424 9,100 251 275 3392
2022-12-02 06:57:37 GMT 52.502499 9.582118 8,950 250 276 3328
2022-12-02 06:57:34 GMT 52.503983 9.588776 8,800 250 276 3200
2022-12-02 06:57:30 GMT 52.505802 9.597107 8,450 250 276 3200
2022-12-02 06:57:27 GMT 52.507015 9.602600 8,350 250 276 3136
2022-12-02 06:57:24 GMT 52.508698 9.610062 8,200 250 276 3136
2022-12-02 06:57:21 GMT 52.509750 9.614792 8,050 250 276 3072
2022-12-02 06:57:17 GMT 52.511536 9.622726 7,850 250 276 3008
2022-12-02 06:57:13 GMT 52.513275 9.630585 7,650 250 276 2944
2022-12-02 06:57:09 GMT 52.514790 9.637286 7,350 250 275 3136
2022-12-02 06:57:06 GMT 52.516186 9.643485 7,300 250 275 3136
2022-12-02 06:57:02 GMT 52.517815 9.650548 7,000 250 275 3392
2022-12-02 06:56:58 GMT 52.520000 9.659886 6,825 249 275 3456
2022-12-02 06:56:55 GMT 52.521561 9.666519 6,625 249 275 3200
2022-12-02 06:56:51 GMT 52.523354 9.673854 6,400 248 275 2688
2022-12-02 06:56:48 GMT 52.524517 9.678484 6,200 248 274 2560
2022-12-02 06:56:45 GMT 52.526596 9.686584 5,900 247 273 2688
2022-12-02 06:56:42 GMT 52.527496 9.689941 6,050 247 272 2944
2022-12-02 06:56:38 GMT 52.529617 9.697876 5,625 247 271 3072
2022-12-02 06:56:35 GMT 52.532364 9.709396 5,050 250 272 3136
2022-12-02 06:56:32 GMT 52.532364 9.709396 5,500 253 272 3136
2022-12-02 06:56:29 GMT 52.533455 9.716230 5,325 260 274 3008
2022-12-02 06:56:25 GMT 52.534012 9.722366 5,050 278 273 1792
2022-12-02 06:56:22 GMT 52.534058 9.729843 5,025 276 274 1920
2022-12-02 06:56:18 GMT 52.533550 9.736869 4,900 282 271 1536
2022-12-02 06:56:15 GMT 52.532730 9.742889 4,825 287 268 1344
2022-12-02 06:56:12 GMT 52.531265 9.749756 4,700 293 264 1280
2022-12-02 06:56:08 GMT 52.529266 9.756487 4,650 300 258 1408
2022-12-02 06:56:04 GMT 52.526230 9.763870 4,525 308 253 1856
2022-12-02 06:55:59 GMT 52.522522 9.770584 4,350 320 246 2304
2022-12-02 06:55:56 GMT 52.519909 9.774222 4,250 324 242 2624
2022-12-02 06:55:51 GMT 52.516068 9.778595 4,050 331 240 3072
2022-12-02 06:55:48 GMT 52.512543 9.781647 3,850 336 239 3200
2022-12-02 06:55:44 GMT 52.508224 9.784502 3,600 343 238 3264
2022-12-02 06:55:41 GMT 52.505711 9.785758 3,475 346 237 3264
2022-12-02 06:55:38 GMT 52.502930 9.786758 2,450 356 235 2816
2022-12-02 06:55:35 GMT 52.498993 9.787521 3,025 13 226 1664
2022-12-02 06:55:32 GMT 52.495102 9.787674 2,975 5 231 2112
2022-12-02 06:55:28 GMT 52.490627 9.787013 2,825 10 228 1792
2022-12-02 06:55:24 GMT 52.487915 9.786148 2,750 13 226 1664
2022-12-02 06:55:21 GMT 52.484390 9.784317 2,650 21 219 1472
2022-12-02 06:55:17 GMT 52.480946 9.781599 2,450 36 207 1088
2022-12-02 06:55:11 GMT 52.476471 9.776154 2,450 47 196 2048
2022-12-02 06:55:07 GMT 52.473728 9.771711 2,325 47 196 2048
2022-12-02 06:55:04 GMT 52.470890 9.766375 2,150 53 191 2112
2022-12-02 06:54:57 GMT 52.468376 9.760097 1,925 66 186 1664
2022-12-02 06:54:53 GMT 52.466702 9.753348 1,800 74 182 1984
2022-12-02 06:54:49 GMT 52.466171 9.749298 1,700 82 180 1856
2022-12-02 06:54:46 GMT 52.465942 9.746094 1,625 87 179 1792
2022-12-02 06:54:42 GMT 52.465954 9.740400 1,475 92 176 1728
2022-12-02 06:54:38 GMT 52.466095 9.733573 1,325 92 171 1472
2022-12-02 06:54:33 GMT 52.466263 9.727631 1,200 92 167 1728

Making use of Plane Finder data

You are free to use the raw flight data, aircraft information and images provided in this report for your own purposes provided the data is correctly attributed to Plane Finder. We ask that you please credit Plane Finder and link to planefinder.net in close proximity to the content.

Optionally one of the following logos (no smaller then 150x24px) can be used and must link to planefinder.net

Embedding the Plane Finder map

You are welcome to embed the Plane Finder playback map on your website to offer visitors a more interactive experience. We suggest using the following HTML code:

<iframe src="//planefinder.net/data/report/X32148-D-ATUF-7700-squawk-2022-12-02/map" width="800" height="600" seamless="seamless"></iframe>

Where our data comes from

Plane Finder has a global network of data feeds and antenna radars that receive data broadcast directly from aircraft. The primary technologies used are ADS-B and MLAT. We also show feeds from the FAA and a FLARM glider feed.

Click here to find out more about the Plane Finder network.

How we collect our data